GFSSGP_250_spd_000.txt.gz
Wind_Speed
60 58 60 58 57 53 48 44 43 45 41 34 33 34 33 30 34 39 40 40 41 40 42 44 45 45 44 40 38 36 32 32 33 30 30 34 32 30 32 34 37 40 37 38 40 41 45 46 48
62 61 61 61 62 59 52 49 51 48 45 39 39 38 36 34 37 41 43 43 42 40 41 43 44 44 44 39 39 31 33 37 34 33 31 32 31 32 35 38 40 40 45 44 42 45 46 47 49
66 66 67 67 64 62 53 55 55 51 46 45 43 42 40 36 39 42 45 46 41 37 38 41 41 42 42 40 40 35 34 34 33 34 33 30 33 37 37 38 40 43 43 41 44 45 47 49 49
67 66 65 68 65 62 57 56 55 54 50 46 41 41 42 39 41 43 46 46 39 35 35 37 39 39 40 41 39 38 37 36 34 36 33 31 31 35 38 40 42 42 42 45 46 47 49 48 48
61 66 68 68 66 63 59 58 54 53 51 44 43 39 41 40 43 43 45 45 37 32 32 33 34 37 41 41 38 39 40 36 35 36 35 33 35 36 39 41 41 41 44 46 47 47 47 45 43
58 64 65 65 67 65 64 61 58 53 48 42 42 41 40 38 43 42 44 40 35 28 28 30 32 37 42 41 38 36 33 35 34 35 33 35 37 39 39 40 42 44 46 47 47 46 42 41 36
49 53 60 62 64 66 63 62 57 56 55 48 44 40 38 39 42 42 41 37 32 25 26 28 31 39 43 41 40 35 33 32 32 34 35 36 39 42 41 41 43 46 47 46 45 41 39 33 32
38 43 48 54 56 57 62 62 62 59 58 49 47 41 38 40 40 41 37 33 27 23 24 26 31 38 43 42 39 37 37 33 35 37 38 38 40 39 41 43 44 43 43 43 41 35 30 30 32
35 33 40 47 47 48 54 59 60 57 55 49 43 41 38 40 39 38 32 29 24 22 22 26 31 39 40 41 37 35 36 37 37 38 38 39 40 40 42 39 39 40 43 40 33 31 30 32 34
33 31 31 31 34 38 44 50 51 52 51 45 41 36 39 38 36 36 29 25 22 21 23 26 33 39 39 41 37 35 36 34 37 38 41 42 44 40 40 38 40 42 39 37 31 32 33 35 36
33 30 29 23 23 29 34 43 44 49 46 40 39 39 40 36 35 33 25 22 22 21 23 27 34 38 39 37 35 34 35 40 41 44 42 40 39 38 38 40 42 38 37 32 32 34 35 37 38
36 34 28 24 27 29 31 33 42 44 42 41 35 39 39 34 33 30 22 21 22 23 25 28 33 35 35 34 31 33 37 40 41 38 39 39 39 39 41 40 37 38 34 33 37 38 39 41 42
39 36 31 26 26 28 30 31 37 40 38 38 37 39 36 31 30 27 19 21 23 26 28 31 31 33 34 31 30 35 37 38 38 37 38 39 40 42 38 37 34 30 34 38 38 39 41 43 45
40 37 34 27 28 25 27 28 35 34 37 40 36 36 33 29 28 23 20 23 25 29 30 31 31 33 33 34 34 32 31 32 35 35 39 40 41 38 38 32 31 33 37 39 41 43 44 46 46
39 38 36 32 32 27 29 30 31 35 39 34 35 34 30 25 27 24 23 24 24 28 30 28 31 33 33 30 32 32 35 37 37 39 40 38 35 34 32 33 35 37 40 42 45 47 49 49 50
43 40 37 34 30 30 31 27 32 37 38 33 33 31 28 28 28 25 23 20 25 30 28 28 30 31 31 29 31 34 38 40 39 38 35 36 34 31 34 36 39 42 45 48 50 51 51 54 52
40 42 35 33 28 29 28 27 30 34 32 29 31 30 29 30 26 23 20 23 28 29 29 29 30 29 30 33 36 39 41 40 37 35 34 33 32 35 37 41 44 47 49 52 53 54 52 55 59
46 37 38 32 33 32 30 31 27 29 27 25 29 29 30 29 27 24 23 26 28 29 29 28 29 29 32 36 38 40 42 40 38 36 33 33 36 38 41 45 47 48 50 54 56 57 60 61 64
41 39 38 35 35 29 31 34 30 28 24 25 28 29 31 28 28 25 25 25 26 26 25 27 33 35 38 40 39 41 42 41 39 37 39 40 42 44 47 49 52 53 53 56 59 62 66 69 66
47 43 38 39 36 32 31 33 28 30 26 25 27 29 31 33 30 28 28 27 27 28 30 33 36 40 41 44 43 43 40 43 42 42 43 45 49 52 54 56 57 58 61 62 65 67 69 72 73
48 45 43 39 36 31 33 37 27 28 29 25 27 31 32 35 35 33 32 32 33 33 36 38 39 41 43 45 45 43 44 46 46 47 48 50 55 58 60 61 63 64 67 69 71 72 74 74 75
51 48 43 40 38 36 32 31 28 26 28 26 28 32 35 38 39 38 38 38 39 38 40 41 44 46 47 46 44 46 49 50 51 52 55 58 61 63 65 65 67 71 74 76 76 76 77 79 79
57 48 46 42 40 37 32 29 26 29 30 28 29 33 35 37 38 38 39 39 38 40 45 45 45 44 44 45 47 50 52 52 54 57 61 65 68 68 69 72 74 76 78 81 79 82 82 85 85
54 51 48 44 41 36 29 30 29 31 33 28 29 31 31 33 35 39 40 41 43 40 38 39 41 43 45 48 51 53 54 56 59 63 67 70 72 74 75 79 81 83 85 83 87 89 91 92 93
55 49 47 47 44 41 36 31 32 33 33 28 31 31 32 33 32 32 35 36 37 38 40 43 44 45 47 50 52 55 60 63 67 71 73 76 78 81 83 84 86 87 88 91 93 95 97 99 100
57 53 49 46 48 44 40 34 32 33 34 30 35 34 31 31 31 34 36 36 39 42 45 46 47 49 52 56 59 63 67 71 74 76 79 81 83 84 86 88 91 94 95 97 100 102 104 107 109
53 47 47 46 48 46 39 36 35 35 35 34 37 38 36 35 37 38 39 41 43 46 48 49 52 55 59 63 66 70 73 76 79 81 83 85 87 89 92 96 98 101 104 105 107 109 110 111 112
55 50 46 48 48 46 40 38 41 35 35 38 40 41 40 42 42 42 44 45 49 52 54 57 59 62 65 69 72 76 79 81 84 86 90 93 96 99 102 104 105 107 109 110 112 113 115 118 119
56 51 44 52 46 48 42 43 43 38 39 40 42 45 47 47 46 47 49 52 55 58 61 63 65 69 72 74 78 81 84 87 90 94 97 99 102 105 107 110 113 115 117 120 122 123 126 126 126
56 50 45 45 49 47 45 46 44 43 43 42 45 48 50 51 52 53 56 58 60 61 65 68 71 75 78 81 85 88 91 95 99 102 105 109 110 113 116 120 123 125 127 129 131 131 133 130 126

GFSSGP_250_spd_003.txt.gz
Wind_Speed
59 57 55 54 54 53 52 48 46 46 44 41 41 40 40 38 38 38 37 38 38 40 42 45 48 49 50 50 48 47 44 42 43 41 39 38 38 37 41 41 36 40 40 41 41 44 45 46 47
58 57 58 60 60 58 54 51 53 54 48 46 48 44 43 45 41 43 42 41 42 43 44 46 47 47 48 49 47 45 41 41 37 37 35 36 34 33 34 36 39 40 41 43 44 43 46 44 45
62 64 62 64 64 59 54 53 53 56 55 53 53 48 46 47 46 46 44 43 45 48 49 49 46 44 45 46 45 43 39 37 33 36 38 38 32 35 34 35 37 42 43 44 43 44 46 46 48
70 70 72 69 65 59 60 61 60 58 57 56 56 53 50 49 47 45 45 44 45 51 51 49 44 42 41 42 43 41 38 37 32 35 37 35 36 36 34 34 36 40 43 45 45 45 46 47 50
70 64 69 71 68 65 63 61 63 60 57 59 57 52 50 49 47 46 45 44 47 52 51 47 43 41 39 39 40 40 39 39 38 38 37 33 35 39 39 37 40 41 44 45 45 47 48 50 51
63 65 63 65 67 69 65 65 61 60 60 59 56 57 50 48 45 45 45 45 49 51 49 44 41 39 37 38 38 39 40 39 40 42 39 36 36 37 36 39 42 44 44 43 45 49 50 50 47
57 60 63 68 63 60 59 60 63 63 61 61 62 58 56 47 49 46 45 46 49 48 46 40 36 34 34 36 39 38 41 38 35 35 34 35 35 37 38 39 42 45 45 44 47 47 44 42 43
54 58 62 63 59 59 60 60 64 63 63 65 63 62 56 48 48 50 47 47 48 45 41 36 34 32 32 34 39 39 39 40 37 34 29 35 36 39 42 41 41 44 44 45 45 43 42 40 34
43 49 49 48 47 51 52 53 55 58 60 61 60 57 54 53 53 48 47 47 47 41 37 32 31 30 31 36 40 41 40 38 35 41 39 36 36 36 40 44 45 45 44 45 43 43 39 34 35
33 32 37 40 42 46 46 47 47 49 50 51 54 53 53 50 47 44 45 46 46 40 33 30 30 29 31 37 41 44 41 33 35 36 39 41 41 44 46 44 43 41 41 41 43 40 36 35 36
33 32 27 35 37 37 34 37 42 41 42 46 45 46 47 45 44 43 45 47 42 38 31 29 31 29 32 36 40 42 42 39 36 36 39 41 43 44 44 43 41 41 43 44 39 39 35 36 39
33 29 29 29 29 34 30 29 31 34 35 38 40 39 41 42 41 43 43 46 41 38 31 28 29 29 32 36 39 37 38 40 39 37 37 41 43 44 41 42 42 43 42 40 39 36 34 38 41
36 31 32 28 26 30 29 28 28 30 33 30 34 36 40 42 42 42 43 45 41 36 30 27 28 30 32 35 35 36 36 36 37 37 39 40 42 40 41 44 45 43 40 36 33 34 37 41 44
36 33 31 30 28 27 26 21 26 28 26 23 31 34 39 42 40 41 42 42 38 33 30 28 29 32 32 34 37 37 36 36 36 36 36 37 40 42 45 46 43 40 35 34 36 39 42 45 47
36 35 31 26 29 26 24 25 25 23 26 25 29 33 39 42 40 40 39 38 35 31 29 29 28 30 33 35 38 39 39 40 37 34 38 41 42 43 45 41 41 36 37 38 41 44 47 51 52
38 38 37 30 29 27 30 26 28 31 26 26 25 34 37 38 38 37 35 36 34 31 30 29 30 30 32 31 33 34 35 38 36 36 39 43 43 43 43 42 39 39 41 44 48 50 52 54 55
39 40 41 34 32 31 31 25 29 32 26 24 26 35 37 36 35 32 34 36 33 30 30 29 30 31 32 31 32 33 36 37 38 40 43 44 45 44 44 42 41 43 47 50 52 55 55 57 58
43 45 36 35 33 34 29 26 27 31 27 27 25 31 32 31 32 30 32 35 34 31 29 27 29 30 31 32 34 36 38 41 45 45 46 48 48 48 45 46 46 49 52 54 56 59 62 65 65
49 43 41 38 36 32 30 29 28 33 27 29 26 25 27 30 30 29 31 34 33 30 30 28 27 29 31 33 36 40 42 45 47 47 49 52 50 50 48 50 53 54 56 59 62 65 68 71 73
50 46 44 40 38 34 32 31 30 35 29 27 26 26 28 27 27 27 32 32 32 30 28 27 28 30 32 35 40 43 46 49 50 50 54 53 52 52 51 54 56 60 62 66 70 71 72 72 77
50 50 47 44 40 37 35 34 30 35 34 30 28 27 26 26 27 27 32 34 35 34 32 31 33 36 39 42 44 46 49 51 53 55 54 53 55 56 57 59 62 65 68 72 76 78 78 79 83
51 54 51 46 43 41 34 35 34 37 36 31 31 31 30 28 28 31 33 37 40 40 39 38 39 41 43 46 48 49 53 56 57 55 54 55 60 61 63 66 68 71 74 78 81 84 85 87 88
60 57 52 46 44 43 37 35 37 40 37 32 31 30 31 30 31 33 35 34 38 43 44 43 41 43 46 48 54 56 54 52 51 54 58 61 62 65 67 71 74 77 81 85 87 90 93 95 96
57 56 51 47 43 37 39 36 40 44 40 35 31 28 31 31 32 33 34 34 37 41 43 42 42 45 48 45 45 47 49 51 53 55 58 62 66 70 73 77 81 85 88 91 93 96 98 99 101
57 56 52 47 42 41 42 39 42 46 40 35 34 33 33 32 31 33 37 37 36 36 37 40 42 42 43 47 48 50 52 55 58 61 66 69 74 78 81 84 87 91 94 95 96 98 102 105 107
64 60 56 52 46 48 44 39 42 46 42 37 35 33 33 32 31 35 39 37 35 36 37 39 41 45 48 51 53 55 57 60 65 69 73 77 80 84 87 90 93 96 99 101 104 106 107 109 110
63 60 59 54 49 48 47 49 46 48 47 42 37 33 33 32 34 36 39 40 39 40 43 45 47 50 52 55 57 60 64 68 71 74 78 82 86 89 93 96 98 102 106 110 111 112 114 117 118
62 64 58 55 51 51 47 51 48 51 50 45 41 37 36 35 35 39 43 43 43 46 48 49 51 54 58 61 64 67 70 74 78 81 84 88 92 95 98 102 106 110 113 117 120 122 125 126 129
65 64 60 58 56 53 51 51 52 53 51 46 44 42 41 38 40 44 46 47 49 50 52 54 58 61 64 67 70 72 75 80 84 87 92 96 101 105 108 111 114 118 122 126 129 133 136 136 138
64 62 59 56 57 53 53 52 54 56 55 49 46 46 46 44 46 48 50 51 52 55 57 58 61 64 68 71 75 80 84 88 93 97 101 105 107 112 116 119 123 126 130 132 134 136 139 139 140

GFSSGP_250_spd_006.txt.gz
Wind_Speed
58 61 58 55 55 55 52 48 48 47 45 48 44 40 41 42 42 39 38 39 38 41 41 42 42 42 44 47 48 51 52 52 50 47 44 44 43 42 41 39 40 39 43 45 45 44 43 43 45
60 63 61 60 60 54 51 47 50 49 50 49 48 48 49 46 48 48 45 42 42 46 47 45 44 44 46 48 48 48 49 48 46 44 42 42 41 41 35 33 36 37 39 40 42 43 43 45 45
64 64 63 62 63 58 58 53 52 52 53 52 50 50 49 53 52 53 51 50 45 48 49 48 46 47 49 50 47 44 46 44 42 41 39 39 37 33 36 37 35 36 37 39 40 42 43 43 44
68 68 70 57 63 59 53 50 55 56 54 54 55 55 56 57 52 52 53 52 51 49 49 49 49 50 52 49 46 42 41 41 40 37 34 30 35 37 38 36 38 40 41 39 41 42 43 43 44
70 72 72 70 64 61 56 57 62 61 58 58 59 60 60 57 53 51 46 47 47 47 49 50 51 52 54 49 43 38 38 39 39 33 37 32 37 35 36 36 39 40 40 43 44 44 45 45 44
71 69 71 72 66 64 67 63 65 66 64 62 65 66 61 56 57 55 54 50 49 49 52 53 53 54 53 47 40 35 36 37 37 36 37 37 38 36 37 38 40 41 42 43 44 46 46 46 46
74 68 67 64 64 64 69 62 57 58 62 65 70 65 61 59 58 59 58 56 55 54 54 55 54 55 51 44 37 34 35 37 35 38 39 39 38 42 41 40 39 38 41 41 42 43 43 43 41
63 63 65 66 63 67 63 62 64 62 63 63 64 60 59 60 60 60 58 58 56 53 54 55 53 53 48 42 35 33 36 37 37 39 37 35 35 34 34 35 36 40 41 45 43 41 41 39 38
54 53 56 55 54 56 57 58 58 59 60 62 62 60 58 60 61 60 58 56 54 56 52 53 52 50 46 41 34 33 37 37 41 39 38 39 39 41 42 41 42 47 46 45 43 40 39 39 38
49 50 51 50 50 50 51 52 53 53 53 52 54 55 55 55 56 55 55 54 54 49 49 50 50 46 43 38 34 34 38 40 40 36 38 37 35 37 41 43 46 46 46 45 43 43 43 42 38
46 49 45 46 47 48 48 47 49 49 50 47 47 47 47 47 45 45 48 50 48 47 49 48 47 43 40 34 34 34 38 40 40 40 33 32 36 37 40 44 47 47 49 46 45 43 46 41 40
46 46 43 37 35 40 42 41 42 40 40 42 41 40 39 40 40 39 42 44 45 44 45 47 44 41 38 33 34 34 38 42 44 42 39 37 41 40 43 45 48 49 47 47 45 48 43 41 36
44 42 41 34 32 31 39 39 34 33 26 34 38 39 38 40 36 35 38 41 42 41 44 45 42 38 35 33 34 34 36 37 39 40 38 44 45 43 43 44 44 47 48 49 46 41 38 36 37
40 40 33 34 31 28 29 27 36 24 29 35 36 38 39 36 32 33 35 41 39 40 44 43 39 36 34 33 33 33 33 36 37 35 40 40 41 44 41 44 47 48 48 47 44 41 38 40 41
36 34 31 34 27 26 27 28 30 27 33 33 34 34 37 29 25 30 33 36 38 41 42 40 37 34 32 32 32 33 34 36 37 38 41 44 42 42 43 48 48 48 50 48 45 43 42 44 46
36 34 31 30 28 24 29 22 30 32 32 32 34 32 31 20 21 26 29 34 38 40 39 38 36 33 32 31 32 33 34 37 40 41 43 45 45 45 46 50 51 52 52 51 48 46 47 50 52
36 36 35 29 29 27 28 22 30 31 32 33 34 30 25 21 23 24 28 33 36 36 36 36 34 32 31 31 31 32 33 34 37 38 41 45 45 48 50 53 54 55 54 54 52 52 52 55 57
44 44 37 32 30 31 28 26 31 29 28 28 29 27 22 24 23 27 34 33 34 35 33 34 33 30 30 31 31 33 33 33 35 40 42 44 47 51 53 55 57 58 56 57 56 57 60 61 64
46 42 40 36 32 33 31 30 30 31 29 27 25 24 24 22 23 26 30 32 31 33 32 33 32 28 28 29 31 32 34 36 39 41 45 49 52 54 55 56 61 59 58 60 61 63 65 69 71
47 47 43 39 36 35 30 30 30 30 28 27 26 29 26 23 25 27 29 32 30 30 31 32 32 29 28 28 30 32 35 39 42 45 49 53 55 56 57 61 62 60 61 65 67 69 71 74 78
51 47 41 41 38 37 32 31 31 30 29 30 24 29 28 25 28 30 30 31 31 28 30 33 34 32 32 33 35 37 40 43 47 50 51 53 57 60 61 61 60 62 65 69 73 74 77 79 83
56 51 44 42 41 40 33 33 33 32 32 34 28 32 31 29 31 34 32 32 31 30 32 32 35 37 37 39 40 43 45 48 50 52 54 55 55 55 57 59 63 66 70 73 76 79 83 85 88
65 54 49 46 45 41 37 35 35 34 33 35 34 29 33 31 30 31 30 32 34 34 33 33 35 39 42 43 43 45 47 50 52 52 54 56 58 61 63 66 69 72 75 79 83 87 91 94 96
62 53 52 47 45 41 40 36 40 37 38 39 37 33 34 32 33 30 30 32 36 34 31 32 34 39 42 44 45 46 50 50 52 55 58 59 61 64 67 71 74 78 82 85 88 92 96 100 103
59 55 52 47 44 47 42 36 43 39 40 41 39 36 36 37 37 34 34 35 38 34 31 32 33 36 39 40 43 45 47 51 56 58 60 63 67 71 74 77 81 84 87 91 95 98 102 106 108
60 57 53 49 47 49 46 41 45 44 42 43 43 40 36 43 43 40 40 38 38 36 32 34 37 38 39 41 44 48 51 53 56 61 65 68 71 75 79 83 87 92 96 99 103 106 110 114 118
63 57 58 51 50 49 48 49 50 48 45 47 46 44 40 44 47 46 42 36 35 35 37 39 40 41 43 46 48 51 55 58 62 66 69 73 77 81 85 89 94 98 103 107 110 113 117 121 125
62 63 56 53 53 53 51 53 52 51 50 48 50 49 47 48 49 48 47 40 39 39 41 43 45 47 50 52 55 58 61 64 67 72 76 80 85 89 92 97 102 106 111 113 117 120 122 125 128
69 62 60 59 57 56 55 56 55 55 53 52 52 53 53 53 54 52 50 46 45 44 46 48 50 53 56 58 61 63 67 70 75 79 83 87 90 95 100 105 108 112 116 116 116 120 126 129 134
71 65 62 60 59 61 60 59 58 57 56 54 52 53 56 57 56 56 53 51 50 49 53 55 56 57 60 63 67 70 73 77 80 85 89 94 98 102 106 108 110 110 115 119 125 129 132 136 139

GFSSGP_250_spd_009.txt.gz
Wind_Speed
64 65 61 58 54 54 52 42 39 40 41 43 47 44 42 42 40 40 39 40 42 42 40 38 39 41 41 40 42 42 44 46 48 48 48 48 46 47 45 43 42 40 39 38 38 40 40 45 47
63 60 61 59 59 56 52 50 45 46 46 46 45 47 46 45 44 41 43 46 46 47 47 46 45 45 43 45 45 46 47 48 48 45 45 45 43 43 43 40 39 39 34 34 34 36 38 39 41
70 67 60 60 60 58 55 51 48 50 50 49 49 50 51 50 47 45 44 43 45 51 52 50 50 48 48 46 45 49 49 50 48 42 43 42 41 41 39 38 36 32 36 37 38 37 38 37 40
73 74 68 63 62 56 51 46 54 55 54 53 55 55 54 52 50 50 49 48 47 46 46 42 44 46 45 44 48 51 50 51 46 38 40 40 39 38 36 32 36 34 37 38 38 38 39 40 41
71 71 71 68 67 62 55 51 56 53 53 54 53 54 57 55 52 52 52 54 53 53 51 52 50 49 52 54 52 53 52 50 42 35 38 38 37 33 25 34 32 36 37 37 38 39 38 38 39
71 71 74 71 68 60 56 57 62 59 56 56 60 58 59 56 58 58 59 58 56 56 55 55 55 55 57 55 53 54 53 48 38 34 37 37 34 36 35 38 35 33 37 40 39 37 39 40 38
76 72 75 71 68 63 60 63 65 67 61 62 67 66 59 58 58 58 57 57 57 57 56 57 57 58 57 56 54 54 52 44 33 32 36 35 34 37 37 39 41 39 40 36 36 39 41 41 38
75 71 70 69 69 64 64 63 66 65 64 65 66 67 65 61 60 60 61 61 62 61 58 57 58 57 54 54 50 52 48 39 31 32 35 34 36 37 33 39 42 36 36 41 42 43 46 42 39
63 68 68 67 68 63 64 65 66 67 62 63 66 66 62 61 61 63 63 63 61 59 58 57 56 54 49 48 48 49 42 35 31 32 34 36 38 35 34 36 41 44 43 46 46 47 47 45 43
57 60 64 64 59 59 67 67 65 65 63 62 62 59 58 60 59 60 59 58 57 56 53 52 53 47 44 46 47 45 38 34 33 34 36 40 39 37 38 41 41 42 43 42 46 50 48 47 44
52 56 56 58 57 57 58 56 55 55 55 57 55 55 55 55 55 54 55 54 50 47 45 44 45 42 43 45 45 40 36 34 34 35 40 43 36 37 35 37 37 39 42 45 49 49 47 46 46
53 57 55 52 48 51 51 51 52 53 50 48 50 52 51 50 50 50 46 45 43 41 34 38 39 40 42 43 42 37 34 33 34 37 39 40 39 39 40 39 41 44 44 46 46 47 48 48 48
54 56 51 47 47 48 46 48 51 52 44 47 45 44 42 42 43 42 40 41 40 32 29 35 37 38 41 41 38 35 32 33 34 34 40 43 44 46 48 48 48 49 48 49 48 47 48 49 45
56 55 49 45 47 45 38 38 47 41 38 41 42 39 38 41 41 41 39 37 32 27 28 32 37 37 40 39 35 34 32 33 33 35 37 42 43 48 49 48 49 49 50 50 49 49 50 51 47
54 50 46 49 49 45 38 35 32 31 38 39 42 37 35 36 37 34 34 28 24 22 25 29 36 37 37 35 33 33 32 32 33 35 36 38 42 42 44 48 50 51 50 52 53 52 52 53 51
56 46 47 49 47 41 36 32 26 31 32 35 36 35 33 34 36 31 25 19 20 23 27 31 33 35 34 31 30 30 32 32 33 35 39 41 44 46 49 51 51 53 52 54 56 56 55 57 54
52 50 48 48 38 32 34 27 24 28 31 31 32 33 34 37 32 25 19 21 21 23 28 32 34 33 30 28 29 29 33 32 33 35 38 41 44 45 46 50 52 53 54 56 56 59 58 59 57
52 52 45 44 34 31 30 25 25 26 27 25 29 31 29 28 28 20 22 22 24 27 29 32 35 32 29 27 27 26 30 33 34 35 38 40 41 43 46 49 52 56 59 60 60 60 61 59 58
60 50 44 39 33 32 29 30 27 26 24 24 24 25 27 24 21 20 22 22 23 25 28 31 33 29 28 28 27 27 27 29 31 33 36 39 42 45 47 52 56 58 60 61 63 64 62 63 63
59 51 45 39 36 32 29 29 29 28 23 21 20 23 26 23 24 22 22 22 23 26 27 30 29 28 28 28 28 28 28 29 31 34 36 40 44 48 51 55 57 60 62 63 62 61 64 68 72
58 53 47 40 36 33 32 28 29 27 25 23 20 23 25 24 23 26 24 23 24 27 30 32 32 30 28 30 31 31 33 35 37 40 43 46 49 51 55 55 54 56 58 61 64 66 68 70 76
60 59 48 40 36 34 34 34 33 28 26 26 25 22 25 27 25 29 29 27 27 28 30 32 34 32 31 31 34 37 38 40 42 45 47 48 51 53 52 55 58 61 63 66 69 72 74 77 80
66 57 46 40 37 37 38 35 35 27 27 29 29 27 27 29 26 31 35 32 29 28 31 31 32 33 34 32 34 37 40 42 45 48 49 51 52 53 57 61 63 66 68 71 74 78 81 85 88
65 53 47 44 40 39 36 35 35 32 29 29 31 31 32 33 32 29 34 35 34 32 33 33 33 34 33 34 35 36 39 42 44 46 49 51 54 58 61 64 67 70 73 76 81 85 88 91 97
61 52 48 45 42 45 37 35 39 34 33 35 34 33 35 35 38 34 31 35 36 36 35 36 35 34 36 37 35 36 39 42 45 48 51 55 58 62 65 68 72 75 78 83 87 92 97 101 104
63 54 51 48 48 46 41 40 41 38 37 38 38 37 38 40 41 40 34 34 39 41 41 40 41 39 39 37 39 40 43 46 50 53 57 60 64 68 72 76 78 84 88 91 96 99 103 107 110
62 53 56 53 51 47 46 44 43 42 40 40 41 41 40 41 45 47 42 38 38 42 44 46 47 44 43 45 45 47 50 54 57 60 64 66 69 73 77 81 86 90 94 97 101 106 109 112 115
62 61 55 52 53 51 47 49 46 44 44 44 45 45 45 44 47 49 49 49 46 45 49 52 53 51 50 50 50 52 57 60 63 65 68 72 75 79 82 87 91 95 99 103 107 109 110 113 115
67 62 59 57 52 52 51 53 52 48 47 47 48 49 49 50 51 51 52 51 51 51 52 55 58 59 58 57 58 60 63 66 68 70 73 76 80 84 89 93 97 101 104 106 107 109 112 114 119
68 66 62 59 57 57 57 57 57 53 50 53 53 54 56 55 54 55 54 53 56 57 57 58 61 62 62 64 66 68 71 70 71 74 77 82 87 91 94 98 101 102 104 108 108 110 114 121 127

GFSSGP_250_spd_012.txt.gz
Wind_Speed
63 61 66 63 53 54 53 50 53 48 45 41 39 39 41 41 40 38 37 34 33 36 36 39 42 44 43 41 43 44 41 42 44 45 50 50 51 51 51 50 48 46 41 42 42 39 41 39 39
66 66 60 64 58 61 51 49 48 50 46 41 41 44 42 41 39 41 41 37 36 36 37 39 42 46 48 48 48 46 45 45 43 46 50 51 50 50 49 45 44 40 38 38 38 38 37 35 35
68 68 65 61 59 64 58 49 55 54 51 48 46 49 47 46 44 47 46 43 41 40 42 42 39 41 44 41 40 42 42 45 50 50 50 51 49 46 45 43 40 38 35 36 33 37 39 38 40
74 71 71 66 62 59 56 65 61 58 56 55 54 52 50 50 49 51 52 48 45 43 44 45 45 46 47 47 49 48 49 50 52 51 52 50 44 42 42 41 39 35 33 34 37 37 38 39 39
76 76 74 73 70 65 60 53 51 56 57 53 51 52 51 50 49 51 51 50 46 48 50 48 47 51 52 52 54 54 54 55 53 53 51 47 39 38 40 39 38 32 34 36 38 42 40 39 41
78 80 76 73 73 71 67 63 59 60 56 54 55 53 51 49 51 52 50 49 50 52 53 53 56 57 58 56 56 54 55 55 51 49 49 41 34 35 38 37 31 29 38 40 36 38 40 41 41
81 77 76 76 70 70 70 68 67 66 62 59 59 57 57 56 53 55 57 54 55 57 59 59 60 62 61 60 58 57 56 53 47 47 45 35 31 34 38 34 36 41 43 43 46 43 43 39 42
67 74 77 77 73 70 67 69 73 68 65 61 59 60 62 58 57 59 58 59 62 66 60 61 63 64 64 59 59 56 54 49 45 44 40 31 31 35 38 37 38 41 43 48 46 44 41 44 46
66 66 72 79 72 70 68 69 72 71 66 63 62 64 65 62 57 56 58 62 63 61 64 63 64 63 62 58 54 51 47 45 44 43 36 30 32 35 37 37 38 39 38 39 44 44 44 45 44
60 63 69 71 71 71 67 67 71 72 67 66 63 63 65 63 61 60 62 63 63 61 60 59 60 58 54 50 47 42 42 42 43 39 33 30 32 34 39 40 38 37 40 44 46 45 39 42 47
60 60 65 64 61 67 72 69 67 67 66 63 64 64 64 63 63 64 61 61 59 58 56 52 51 50 49 42 39 38 40 41 40 35 32 30 33 38 43 42 41 42 45 47 42 39 44 48 49
61 62 62 61 59 60 63 67 66 64 63 61 61 65 63 59 57 57 57 56 54 49 47 47 45 45 39 33 35 36 38 40 36 33 32 31 34 39 45 46 42 43 42 42 45 47 50 51 53
65 63 60 55 52 54 53 58 60 61 58 56 56 56 53 53 54 52 50 45 42 42 44 43 41 35 30 29 32 35 38 36 33 32 32 32 36 41 44 45 47 50 47 52 51 53 54 55 54
68 64 60 53 51 51 49 48 54 55 54 50 53 50 50 51 48 41 38 40 42 43 42 38 34 28 28 28 30 34 36 33 31 32 33 31 34 41 44 49 51 53 55 57 57 56 55 56 56
70 61 57 52 50 51 47 46 47 40 44 48 47 47 48 45 40 37 37 38 38 40 35 31 30 27 27 28 30 32 33 31 31 33 34 34 40 44 45 46 47 47 52 53 56 57 59 58 57
69 62 55 54 52 53 47 49 41 40 39 40 42 42 43 41 37 36 38 40 39 32 25 25 24 24 24 29 32 31 30 31 30 32 35 37 40 42 43 47 50 53 53 55 57 59 60 60 58
67 57 58 56 53 52 50 48 40 40 36 35 37 38 36 36 35 37 39 36 30 26 25 23 23 25 27 30 32 30 28 28 29 32 35 37 41 44 47 49 51 52 55 55 55 57 58 60 63
62 58 62 57 53 52 48 46 39 39 34 32 34 30 30 33 33 33 34 29 26 28 26 24 22 25 28 31 31 28 27 27 28 30 33 37 42 44 45 47 47 46 48 51 55 58 61 64 66
67 69 62 58 53 50 44 46 36 36 31 30 30 27 26 29 29 29 27 23 26 27 25 23 25 26 28 29 31 28 27 27 29 30 31 36 39 41 43 44 45 48 51 56 59 63 65 65 62
72 67 60 51 51 49 43 45 37 34 27 25 25 24 21 24 29 24 21 24 25 26 25 25 25 27 29 30 31 32 29 28 29 30 32 33 36 39 42 45 49 53 57 60 62 62 61 63 64
68 65 57 52 53 50 44 41 34 32 28 27 25 22 19 16 22 25 24 25 28 29 26 26 27 29 32 31 33 35 35 34 34 35 36 38 41 44 48 52 55 57 59 62 61 62 64 64 69
70 67 54 51 54 49 44 39 34 29 27 27 27 24 23 19 21 21 24 22 28 30 30 31 31 31 34 35 34 34 37 40 40 41 42 44 46 49 52 56 57 59 61 61 65 67 69 71 73
75 69 56 56 53 49 43 41 37 32 28 28 27 25 24 26 24 22 23 25 26 32 35 34 34 34 35 35 36 37 39 40 40 42 44 45 48 51 53 55 58 59 63 66 69 72 76 78 81
74 66 58 58 53 48 44 41 37 33 31 30 29 27 27 27 26 25 24 25 27 29 35 37 37 37 37 38 40 40 40 39 40 42 44 45 47 50 54 58 62 65 68 72 76 79 81 85 89
72 66 61 58 51 49 42 41 38 34 33 31 32 32 32 30 30 30 30 29 28 32 34 37 39 41 42 43 43 45 46 45 45 47 49 52 53 57 61 64 68 71 75 78 81 85 88 92 95
67 64 59 56 54 50 44 45 37 32 31 31 33 35 36 34 35 34 35 36 36 36 37 37 39 42 45 46 48 50 52 53 54 57 59 60 62 64 67 70 73 77 81 85 87 90 93 98 102
68 62 56 58 57 53 48 47 40 36 32 32 34 36 38 38 39 39 38 40 42 43 44 45 45 46 47 50 52 53 56 60 62 63 65 66 68 70 72 76 80 83 86 88 91 96 100 104 108
69 67 61 59 57 54 50 48 44 42 38 35 36 38 40 41 42 43 44 44 45 48 48 49 50 51 51 52 54 57 61 63 66 68 71 73 75 77 80 83 85 87 89 92 97 101 104 108 110
69 65 62 62 58 56 54 51 47 44 42 41 40 40 40 44 46 47 47 49 49 50 53 54 56 57 56 56 58 60 62 65 69 73 77 79 81 83 87 86 88 89 94 98 101 107 107 108 110
71 67 64 59 59 60 62 55 49 47 46 45 45 45 47 49 50 52 53 54 55 55 56 58 60 61 62 63 64 68 72 72 74 78 80 82 83 85 84 88 92 96 99 102 105 105 106 107 112

GFSSGP_250_spd_015.txt.gz
Wind_Speed
73 68 63 62 68 65 61 50 53 55 50 50 53 53 52 45 42 43 41 35 36 37 37 32 33 35 36 37 38 41 44 47 48 48 45 46 45 48 49 49 52 51 51 49 48 44 43 45 45
71 72 70 63 61 71 69 57 54 54 54 54 55 54 48 42 38 33 33 34 35 37 38 38 37 36 38 39 38 39 41 43 42 43 43 46 48 52 51 52 53 51 49 46 44 39 40 42 41
75 73 74 70 63 59 66 64 51 54 56 54 56 58 54 45 37 39 40 40 42 44 43 42 43 43 41 42 43 41 43 45 49 52 54 52 54 54 53 53 52 49 47 44 41 39 41 39 38
78 79 75 75 68 66 60 59 66 61 58 55 57 56 51 46 46 49 46 44 41 44 48 49 49 48 48 45 44 48 51 52 52 53 54 55 56 53 52 52 49 46 45 40 39 39 35 37 38
75 75 76 74 72 70 69 62 57 66 64 59 58 59 55 49 51 47 51 44 43 42 46 48 51 49 49 51 52 54 55 56 57 56 56 56 54 52 50 50 45 42 42 39 41 35 36 40 42
67 76 77 79 76 71 70 69 65 60 55 62 65 60 52 52 51 45 45 45 47 46 47 50 52 50 52 54 56 58 58 62 61 57 58 55 51 50 50 44 38 39 40 38 37 35 39 41 38
58 67 76 76 76 75 71 72 71 69 68 58 61 56 51 52 51 48 46 51 52 53 53 55 56 55 56 57 62 63 65 61 59 58 57 52 48 46 45 39 35 36 38 33 29 32 43 43 48
61 67 70 72 79 78 73 72 73 76 72 72 68 63 55 58 54 52 52 54 56 56 55 56 54 58 62 63 65 65 64 60 56 53 49 44 43 43 40 36 35 36 36 34 40 50 49 50 48
64 61 65 69 77 78 77 77 75 77 74 74 73 68 63 64 59 57 56 59 59 60 58 57 60 63 65 66 65 64 58 54 51 44 41 40 41 39 35 34 35 36 37 41 39 40 42 41 43
66 63 63 69 68 75 76 77 76 73 74 73 71 69 69 68 65 63 61 60 60 62 62 62 66 66 66 64 59 54 51 50 43 37 38 39 39 36 33 33 35 36 36 37 40 40 42 45 48
68 65 70 66 67 67 72 77 77 76 73 70 67 65 66 69 68 66 66 65 63 64 68 68 63 63 62 54 50 48 46 40 33 35 38 38 38 35 32 32 34 37 40 38 39 40 44 46 50
72 69 72 69 63 63 62 68 74 72 73 71 68 66 69 68 65 63 59 62 65 66 63 61 60 55 50 46 45 44 38 33 31 35 37 37 36 34 32 34 38 41 44 44 42 45 49 45 46
75 73 73 72 61 60 61 60 62 65 71 63 60 62 63 61 63 63 59 55 57 60 58 53 48 48 48 45 42 38 35 31 33 35 35 36 36 34 32 34 38 43 46 48 51 51 50 51 53
82 79 74 70 61 57 57 58 55 60 53 56 62 63 67 65 62 54 55 55 55 52 45 43 46 46 46 41 38 36 33 32 35 36 35 35 35 34 34 35 40 44 48 49 53 58 58 60 60
87 83 76 68 62 57 56 54 55 52 49 52 56 58 56 57 56 54 53 52 48 42 39 44 45 44 38 33 34 31 32 35 38 37 36 35 35 34 35 37 39 46 51 52 56 60 63 66 68
90 87 76 67 63 57 55 53 54 44 46 47 50 47 48 48 47 47 45 42 40 38 42 45 43 36 33 31 29 31 32 35 38 38 37 35 35 35 36 41 44 49 53 55 55 56 59 59 60
94 83 73 68 62 58 53 57 52 43 43 45 45 43 40 39 38 38 39 38 37 41 44 40 33 32 31 28 30 32 35 36 36 37 37 36 35 36 38 40 44 48 50 53 55 57 58 60 61
87 82 75 69 63 59 57 57 50 44 43 42 41 38 35 36 35 36 37 36 38 40 40 33 32 31 30 30 32 34 33 33 33 36 38 37 36 36 38 41 43 46 50 52 53 54 54 54 56
91 88 80 74 68 58 60 58 49 47 46 43 41 35 34 33 37 37 36 36 30 30 29 29 33 32 34 35 32 31 32 32 32 34 35 38 39 38 39 40 42 44 47 48 49 51 54 59 62
92 88 81 75 66 60 60 59 52 46 46 44 39 34 33 33 30 33 34 33 30 25 29 31 30 32 34 32 32 33 35 35 35 35 36 40 40 40 40 41 43 45 48 51 54 58 62 65 68
93 87 82 73 63 62 60 60 54 46 46 43 38 35 33 27 23 30 28 23 25 23 33 33 33 36 35 37 36 36 36 36 37 39 42 42 44 46 46 47 49 52 54 57 60 63 64 66 69
91 85 79 73 63 63 62 62 54 46 48 41 37 35 30 25 24 22 20 22 21 23 24 33 36 38 38 40 39 39 38 36 39 42 42 43 45 47 49 52 54 56 59 61 62 63 64 66 69
89 85 79 68 63 61 62 59 54 49 47 42 40 34 28 27 26 24 24 23 24 25 27 27 28 36 40 40 41 39 39 40 42 42 45 46 46 46 48 51 54 57 60 62 64 67 71 74 76
92 85 79 70 61 62 62 57 55 51 43 39 35 32 29 28 26 27 25 24 27 27 28 29 31 31 32 37 42 45 45 44 45 46 46 47 50 53 56 58 62 64 67 69 72 74 78 80 83
89 83 78 65 64 63 60 57 56 47 41 39 35 32 32 30 28 29 29 28 30 31 31 33 33 34 36 39 41 43 44 45 48 48 50 53 55 58 60 63 66 69 72 75 78 81 83 87 92
91 80 70 60 63 62 60 57 53 48 44 39 36 34 32 33 33 34 34 33 34 35 36 38 40 41 44 45 45 46 47 50 51 52 54 57 59 61 65 68 70 74 78 82 85 89 91 93 92
82 76 66 62 64 57 57 58 54 48 43 38 37 34 32 31 34 36 36 36 37 39 41 43 45 47 49 50 53 54 55 57 58 59 61 62 65 69 70 72 75 79 81 84 87 89 91 91 95
78 74 67 67 67 61 60 58 51 48 43 40 38 34 32 31 34 36 37 39 41 43 44 48 51 52 53 56 57 60 61 62 64 65 67 69 71 74 76 78 81 83 85 89 88 90 93 99 101
75 71 68 70 65 62 62 58 51 48 44 42 40 36 35 36 37 39 40 41 44 46 48 51 55 56 58 60 62 63 65 66 67 69 71 73 75 78 81 82 83 84 86 88 90 95 97 102 107
75 73 74 71 66 64 62 56 53 49 47 45 44 40 38 41 42 43 46 47 48 51 53 56 60 62 63 66 67 68 69 71 72 73 74 75 78 81 83 82 82 85 89 95 97 100 105 104 99

GFSSGP_250_spd_018.txt.gz
Wind_Speed
72 66 71 73 69 62 65 69 60 56 52 53 53 52 45 44 47 43 42 42 42 38 32 36 35 33 34 34 33 34 35 36 36 38 38 42 42 41 43 45 49 52 54 54 56 56 55 54 52
67 69 71 73 74 70 64 66 64 59 55 57 55 57 50 44 45 44 46 44 39 34 31 28 32 35 37 39 37 36 39 40 42 41 41 43 44 49 52 54 56 56 57 56 57 57 55 52 47
67 72 71 77 76 73 72 63 61 67 65 60 59 61 56 45 48 47 44 44 36 33 35 37 38 41 43 42 44 45 46 45 43 46 48 50 52 51 53 55 56 57 55 54 55 56 54 49 42
66 72 75 79 79 75 73 68 63 64 70 66 63 62 56 50 50 45 51 47 41 41 45 42 43 47 48 48 49 50 52 52 50 54 55 55 55 60 57 57 57 56 55 54 55 53 50 45 40
58 72 73 76 81 75 75 73 69 60 62 73 70 59 56 55 51 46 43 47 47 47 48 46 48 46 44 46 50 51 54 52 53 54 55 57 62 61 57 56 56 55 54 53 53 50 47 42 40
60 59 72 75 80 77 73 77 74 70 61 59 70 68 55 55 56 56 53 48 48 48 44 43 46 47 48 48 49 52 53 56 57 58 59 62 64 62 56 54 53 52 51 51 49 46 42 41 39
64 61 63 72 74 77 76 74 76 72 70 64 60 63 59 61 58 55 48 46 48 49 46 48 47 50 50 52 54 52 54 58 63 66 66 65 63 54 52 48 47 49 50 47 45 42 39 36 36
69 64 62 66 69 75 81 76 75 75 75 68 74 61 49 60 48 51 50 53 49 49 50 51 51 53 54 57 59 58 61 64 67 66 65 64 53 49 47 43 44 47 46 42 40 37 34 31 33
73 67 60 64 65 63 73 76 74 75 77 73 73 73 62 64 53 54 54 55 58 58 56 55 57 59 59 61 62 66 67 67 68 66 62 55 49 43 40 41 43 44 40 37 37 35 36 37 37
78 70 67 69 69 64 63 67 75 76 79 75 74 70 69 68 66 64 65 62 62 63 63 64 63 65 65 67 69 69 68 67 65 59 53 47 43 40 39 40 41 40 37 37 37 37 42 43 42
82 73 75 71 68 65 61 59 73 72 76 80 74 67 68 72 71 69 68 69 67 64 65 65 63 65 64 66 67 68 64 60 54 52 48 42 40 39 39 40 40 39 37 37 38 38 40 41 42
84 80 77 75 72 62 59 61 59 68 77 76 72 72 69 70 68 68 68 65 64 63 62 62 62 65 63 64 64 61 56 54 53 48 41 39 39 40 40 40 38 38 36 36 38 39 42 43 42
83 82 83 79 74 63 61 57 60 59 68 74 72 73 73 70 68 65 65 65 65 63 63 63 65 66 61 58 54 51 51 51 47 41 38 38 40 42 41 41 38 38 37 37 40 41 44 49 49
79 86 85 84 76 66 62 59 59 60 59 60 69 72 72 73 71 69 67 62 61 61 60 66 61 60 55 49 48 51 50 44 38 38 36 37 40 43 41 41 41 38 38 38 40 45 48 49 55
82 85 88 84 76 69 63 59 58 65 57 51 52 58 62 64 67 64 62 60 63 66 63 59 56 50 46 46 49 49 42 34 36 36 38 40 39 40 41 42 42 40 40 40 45 47 50 54 58
88 85 85 83 79 71 65 59 64 61 49 49 51 51 49 51 54 56 55 57 61 63 55 51 45 43 44 48 46 40 38 35 36 40 42 40 39 39 40 42 42 42 42 42 44 49 56 58 61
89 83 80 85 80 74 66 61 63 59 47 48 46 48 47 48 46 45 46 48 51 49 44 39 39 41 46 47 37 37 37 38 42 41 40 37 37 38 39 39 41 43 43 44 47 50 53 55 59
83 88 82 83 83 79 69 62 64 56 50 47 45 49 45 43 41 40 40 38 37 37 36 35 37 42 46 39 37 36 38 41 39 37 37 36 37 37 39 40 42 43 43 44 46 49 52 55 54
86 95 90 86 87 81 72 67 65 56 51 46 45 46 41 38 37 35 35 34 33 34 35 33 35 39 34 33 35 37 39 37 37 39 38 36 37 39 41 42 42 43 45 46 47 48 50 52 52
86 95 93 89 89 86 74 67 64 58 49 48 48 42 38 38 34 32 34 35 36 35 35 38 36 33 34 33 33 36 39 39 40 40 39 39 38 40 42 42 44 47 48 50 52 54 56 58 60
81 95 94 88 90 83 75 68 63 57 52 51 47 44 39 38 34 34 32 29 31 32 36 34 29 29 36 37 37 36 38 41 40 40 41 41 42 42 42 45 46 47 48 50 52 56 58 62 66
83 91 98 90 92 82 74 67 65 58 52 50 49 46 42 38 35 35 30 26 26 27 28 26 27 26 27 30 34 38 41 42 42 42 44 45 46 47 47 47 48 49 50 53 56 58 61 63 67
80 89 97 88 84 83 73 68 65 56 54 52 50 46 43 41 38 36 31 30 30 27 27 26 26 26 26 28 30 30 32 35 38 40 42 45 47 49 49 51 53 55 56 58 61 63 65 67 69
91 93 97 92 93 83 71 68 69 59 57 58 50 44 43 41 40 34 31 30 29 29 28 27 27 29 29 29 31 33 35 37 40 43 45 47 50 52 54 54 56 58 59 61 64 67 68 70 73
83 98 99 93 89 76 72 69 66 59 57 54 49 45 43 43 39 35 32 31 31 30 29 30 31 32 34 36 37 38 41 44 47 49 50 53 55 58 59 60 62 64 66 68 70 72 75 76 80
83 89 84 83 76 72 67 65 63 57 57 54 50 44 46 45 40 36 33 34 33 34 34 35 35 35 38 40 42 44 47 50 53 55 58 60 61 63 65 66 68 69 70 72 73 77 80 82 84
90 92 82 80 82 78 68 70 66 59 57 52 49 46 44 41 38 36 35 36 37 35 35 37 37 38 42 45 47 49 52 56 59 62 64 65 68 69 70 72 74 75 75 76 78 82 85 86 86
90 83 89 85 80 71 72 68 62 58 54 53 52 49 44 40 39 36 35 36 35 34 35 37 39 43 47 49 52 55 59 62 64 68 71 73 74 75 76 78 79 80 80 81 84 84 86 87 90
84 88 82 82 75 73 70 63 58 57 55 55 54 50 43 41 38 38 37 36 35 37 39 42 45 48 51 53 57 61 66 68 70 73 75 78 80 80 81 83 83 83 84 86 87 87 89 91 93
81 88 83 79 76 73 68 62 59 56 54 55 53 48 43 40 39 39 40 40 40 41 43 46 51 55 57 60 64 67 70 74 76 79 81 83 83 85 85 86 85 86 88 89 90 91 93 97 100

GFSSGP_250_spd_021.txt.gz
Wind_Speed
69 67 72 68 74 72 70 70 62 58 60 61 59 54 52 48 45 45 47 47 46 42 40 38 36 34 32 34 35 34 35 35 37 36 39 39 40 42 42 45 44 46 50 53 55 57 60 59 61
63 67 66 63 75 78 72 68 66 59 66 67 62 59 52 49 50 47 45 47 47 44 42 42 38 33 27 29 33 34 36 38 41 41 43 44 45 47 50 52 53 54 56 56 57 59 59 60 59
62 63 66 69 67 79 76 69 70 70 64 68 67 65 57 52 53 47 44 47 46 43 44 45 40 33 33 36 39 42 44 45 45 47 49 53 52 55 55 57 59 57 59 62 62 61 60 59 59
58 61 62 68 70 74 79 73 74 74 71 64 71 68 61 54 55 53 51 49 48 46 45 46 43 40 38 40 41 40 40 46 46 49 52 54 54 57 56 57 59 61 63 63 63 59 58 57 59
61 58 62 63 70 74 79 70 73 76 75 74 64 62 66 62 57 54 52 54 53 50 47 47 51 51 47 40 41 42 41 44 48 50 50 53 57 59 60 63 65 65 66 63 59 56 54 55 57
65 64 60 64 66 71 74 73 73 77 78 76 71 66 62 65 65 58 56 55 54 52 48 43 47 47 45 43 43 43 46 48 50 55 54 55 59 59 63 64 64 67 61 55 52 51 51 53 55
71 69 63 64 66 64 72 75 75 78 78 75 76 71 64 56 63 69 59 53 57 56 49 44 45 48 46 46 46 47 51 53 56 58 59 60 63 66 66 66 66 61 54 49 48 48 50 51 51
75 72 67 62 67 63 67 73 77 76 79 78 78 74 67 61 60 57 60 65 56 63 52 47 49 52 49 47 50 53 55 60 64 63 64 65 67 67 69 65 57 51 48 47 47 49 49 49 46
73 71 70 71 70 73 64 70 76 74 76 80 78 76 75 69 56 54 56 52 50 51 51 52 54 53 55 55 58 62 65 68 69 68 68 67 68 69 61 55 50 44 46 46 47 47 48 46 43
69 72 74 78 75 72 69 63 65 71 75 79 79 77 77 71 67 62 57 57 54 53 54 55 55 58 59 61 62 63 62 63 65 67 67 68 65 60 53 49 42 44 46 46 46 45 45 44 44
68 67 76 79 79 75 70 62 62 68 73 74 78 77 73 72 72 71 64 63 63 61 62 62 62 65 65 63 63 63 64 65 70 69 66 63 60 55 49 40 42 44 45 46 46 44 43 42 43
70 69 72 81 80 78 69 62 62 64 68 68 74 76 72 73 74 71 67 67 67 66 68 67 65 64 62 63 65 64 64 68 68 64 59 57 54 48 38 40 43 44 46 45 45 43 42 42 43
71 73 71 76 81 80 74 66 65 62 65 63 63 71 75 72 72 72 70 67 65 66 67 67 63 65 63 65 66 62 67 66 60 56 56 54 47 37 37 42 44 43 43 44 44 44 43 43 44
73 74 72 72 78 81 76 69 67 63 66 62 58 62 68 71 71 72 73 70 65 65 64 63 63 64 64 65 64 68 63 57 53 53 51 43 38 37 41 43 45 44 43 43 43 44 44 43 45
62 73 74 73 74 79 81 73 66 68 64 61 57 50 55 68 70 69 71 70 68 69 67 65 66 65 64 62 65 63 54 50 52 51 43 37 37 43 43 45 44 42 42 43 43 44 44 45 47
59 65 72 77 77 78 83 72 72 74 64 60 55 47 48 48 62 67 68 68 69 66 65 66 63 62 61 63 57 51 48 49 51 45 40 39 43 43 41 40 41 40 41 42 42 43 43 45 49
49 54 67 75 81 80 83 76 77 77 66 60 55 47 45 48 48 51 53 58 58 58 62 62 60 57 54 52 50 43 47 50 45 41 41 42 41 39 37 38 38 39 41 41 41 42 44 44 47
60 62 67 71 83 82 81 78 82 79 67 58 57 52 44 45 43 47 43 42 45 48 47 46 46 45 44 39 36 41 46 41 40 40 41 38 40 42 41 39 38 40 40 40 42 43 44 45 46
64 61 62 65 78 86 79 81 83 81 69 60 59 53 46 44 41 40 40 44 42 42 41 39 39 35 34 33 37 40 36 39 39 41 41 39 41 42 41 41 42 42 44 43 43 45 46 45 47
69 65 59 66 78 91 84 82 87 82 69 61 58 53 44 43 39 39 40 37 36 33 34 33 32 33 33 36 36 38 40 40 40 41 42 43 43 42 42 44 45 46 48 49 50 51 52 53 51
72 67 65 65 79 90 88 84 87 77 69 64 57 52 41 44 39 39 36 34 30 31 33 33 34 33 33 34 33 33 34 38 42 43 43 44 44 44 44 46 47 49 50 51 53 54 55 59 60
74 75 72 66 77 88 92 82 83 76 72 65 55 49 42 46 39 39 36 33 33 32 33 32 29 28 28 30 32 32 34 34 34 34 34 37 39 41 44 46 49 51 52 54 55 57 58 60 64
68 73 68 69 78 87 94 82 82 78 73 59 54 47 46 46 41 41 37 35 36 34 33 29 27 26 27 27 28 30 33 33 33 34 36 38 40 41 44 47 49 52 54 57 59 61 62 63 65
61 62 63 70 84 93 89 79 84 78 69 61 56 47 48 49 44 43 39 38 39 38 36 32 30 28 29 30 31 33 36 38 39 40 42 44 47 50 52 55 57 59 61 63 65 66 68 70 71
48 59 62 75 87 78 85 79 84 76 68 61 54 50 52 52 48 44 40 41 43 39 35 33 32 32 32 34 35 36 38 40 43 43 45 48 52 55 58 61 64 66 68 70 71 73 74 76 78
50 66 70 73 72 80 83 76 79 73 67 59 55 53 53 53 48 44 42 46 43 40 37 34 33 35 37 39 39 39 41 44 46 48 51 53 57 61 64 68 70 72 73 75 77 78 80 82 83
46 54 67 73 80 82 79 78 84 72 66 58 57 55 54 53 48 44 46 47 43 42 39 37 37 38 38 39 39 43 46 48 51 55 57 60 64 66 69 73 77 79 80 80 82 83 84 86 87
52 61 70 83 81 83 82 83 80 70 66 60 59 58 55 52 48 47 47 48 45 42 40 40 40 39 40 43 45 47 51 54 58 61 63 66 69 74 77 80 83 86 86 86 87 88 88 89 92
54 63 72 77 77 80 80 78 73 67 65 62 59 58 56 53 49 48 49 48 46 42 41 41 41 41 44 47 49 53 57 60 65 67 69 72 76 80 83 87 90 91 90 91 90 90 91 94 97
67 68 61 71 75 72 71 76 71 68 65 61 58 58 54 51 50 50 49 47 44 45 45 45 46 47 49 52 55 59 63 67 71 74 75 79 83 85 90 93 94 94 93 92 92 93 96 97 96

GFSSGP_250_spd_024.txt.gz
Wind_Speed
57 60 67 65 68 68 71 72 69 67 62 64 62 60 56 52 50 49 49 49 50 48 47 46 48 43 40 40 39 37 35 34 34 35 36 38 40 42 43 44 47 50 51 53 54 58 59 58 59
54 58 61 66 69 73 69 70 72 72 71 70 66 61 61 58 55 52 52 50 50 50 49 49 45 48 42 41 38 34 30 30 34 35 40 41 43 45 49 51 55 57 58 59 61 60 62 62 63
52 55 57 60 66 70 70 71 70 75 76 73 71 66 62 63 60 55 54 55 53 52 50 49 46 46 42 44 42 37 35 39 40 43 44 45 48 49 53 55 57 59 60 61 61 65 66 66 66
60 57 57 56 62 68 72 71 74 74 80 79 73 71 63 63 65 61 59 59 57 55 52 51 48 44 40 46 48 44 40 38 40 43 42 43 46 50 53 55 57 60 63 63 64 65 67 66 67
63 61 58 58 59 63 69 74 71 75 82 82 76 75 71 64 64 68 63 62 59 58 56 52 50 46 43 43 48 45 43 42 42 41 44 47 49 51 55 58 59 62 64 67 68 69 68 68 62
66 66 63 63 66 60 61 72 75 76 80 80 81 77 76 70 66 65 69 66 63 62 60 57 53 52 50 47 52 55 49 46 46 47 48 51 55 59 62 65 67 66 66 67 71 70 64 59 57
63 66 68 69 69 63 62 64 77 78 75 80 86 79 76 75 73 68 63 69 65 63 63 60 59 55 50 48 48 52 50 49 48 49 53 57 62 65 66 68 69 70 71 70 66 60 55 53 54
60 59 67 71 74 72 67 65 67 80 79 78 81 81 80 78 77 72 67 65 65 67 70 66 60 57 57 56 49 48 50 52 53 54 59 62 62 64 66 67 67 68 68 63 59 54 50 51 52
57 55 63 73 77 81 71 66 64 69 72 81 84 81 78 76 79 74 72 66 67 67 63 59 65 68 52 53 51 52 54 55 60 63 65 64 64 63 67 67 69 67 61 58 55 48 48 51 52
51 52 59 69 75 80 73 68 66 67 67 79 81 80 78 74 76 80 78 73 69 63 65 60 56 48 50 50 53 54 56 61 64 65 66 67 62 65 67 68 65 60 59 53 47 46 48 51 52
54 51 58 64 69 75 78 71 71 67 69 71 77 76 78 77 79 80 79 73 70 66 61 61 59 57 55 53 54 57 63 65 67 67 66 68 65 68 66 65 61 58 50 45 45 47 48 49 49
50 56 59 65 66 70 77 75 74 71 73 73 69 72 72 76 75 78 76 74 73 74 69 63 60 59 59 59 60 64 66 69 67 67 69 66 69 69 64 61 56 46 43 43 45 48 49 49 47
50 58 60 65 68 68 73 75 76 75 76 72 70 65 68 71 72 74 75 78 77 72 73 71 68 65 67 67 68 67 67 66 66 66 67 68 68 63 59 54 48 41 41 43 46 49 49 47 47
55 58 60 63 70 71 73 72 74 78 81 75 70 66 63 64 64 70 74 77 75 74 72 71 69 68 67 66 66 64 66 65 65 66 66 65 62 60 54 46 42 42 44 45 47 46 46 45 46
56 58 60 62 69 74 74 69 71 82 83 78 71 67 60 57 61 64 70 73 73 74 71 69 67 67 66 66 65 65 66 68 68 67 65 60 62 56 48 44 44 45 44 45 43 42 42 43 45
57 58 57 59 63 70 77 68 71 79 84 79 73 67 60 57 60 57 57 65 71 71 69 66 66 68 66 67 67 67 67 68 65 62 57 56 54 48 45 44 41 40 41 42 42 41 41 42 43
57 51 52 55 60 68 76 71 74 75 84 81 77 69 62 56 56 54 50 45 58 66 68 65 65 67 68 66 65 67 65 62 56 51 49 49 45 44 44 42 42 44 43 42 42 43 43 45 46
55 53 52 52 57 62 67 69 75 77 81 82 79 69 64 58 56 53 47 44 45 49 57 61 63 65 63 62 61 56 54 50 47 43 46 44 43 44 44 44 44 46 45 44 45 45 45 48 51
57 51 48 51 56 58 56 63 75 77 77 78 77 72 66 59 55 52 44 42 39 39 40 45 49 50 50 49 48 48 44 43 43 44 45 44 45 45 45 45 47 50 48 49 50 51 50 50 53
61 54 51 58 64 64 63 60 72 77 76 76 78 75 67 61 56 51 42 39 38 39 41 42 40 41 40 40 41 40 42 41 42 43 43 45 45 46 46 47 49 49 48 47 49 50 51 51 52
61 58 63 65 72 69 69 65 73 75 81 76 77 75 68 60 56 51 41 38 37 37 37 38 40 38 38 38 37 38 39 43 40 39 36 37 38 39 40 41 42 43 43 44 46 49 52 54 55
67 71 74 74 74 71 75 65 73 75 81 75 76 75 68 60 57 49 42 39 37 35 35 34 35 35 33 36 37 37 39 38 37 38 38 39 39 38 40 42 43 45 46 48 50 53 56 59 62
73 78 78 78 77 76 75 71 66 74 80 74 77 74 68 61 55 48 41 40 38 35 34 36 35 34 34 31 32 34 35 38 38 38 39 41 41 42 44 45 47 49 52 54 56 59 61 63 66
83 83 83 81 80 71 64 68 61 75 78 78 78 75 69 62 55 50 43 43 40 37 37 38 39 37 35 34 36 37 37 39 41 42 43 44 44 45 47 50 52 55 58 60 62 65 68 70 73
90 90 90 84 76 38 66 68 52 72 83 79 76 77 72 62 56 51 44 44 40 41 40 42 42 41 39 38 39 39 40 41 43 45 45 46 48 49 53 56 58 62 64 68 71 73 77 81 83
81 79 65 60 42 45 68 60 54 75 83 78 76 77 70 60 56 49 44 45 44 44 42 44 46 45 42 42 42 43 43 45 46 47 48 51 53 56 59 63 66 68 71 74 78 81 86 89 91
52 47 63 55 50 65 70 54 68 84 77 76 72 71 66 60 56 49 46 49 46 46 46 48 48 47 45 44 45 45 47 48 49 51 53 55 59 62 66 70 72 75 78 81 84 88 93 95 95
32 36 35 35 46 49 54 63 76 76 77 73 73 72 67 60 54 49 49 51 48 48 48 49 50 49 48 48 49 50 50 51 52 54 58 60 63 68 72 77 79 81 85 88 91 97 99 98 95
25 25 28 38 45 51 53 61 72 76 78 75 78 72 64 59 53 51 50 51 50 50 50 51 52 51 51 51 52 52 53 55 57 59 63 66 69 75 80 82 85 89 92 95 99 101 100 95 95
19 30 36 40 42 48 57 69 76 77 76 77 75 68 62 57 54 51 52 52 51 51 52 52 53 54 53 53 55 56 57 59 62 66 69 72 78 83 85 88 92 95 98 102 104 100 95 96 98

GFSSGP_250_spd_027.txt.gz
Wind_Speed
69 68 69 68 69 70 72 71 68 69 71 72 69 63 60 60 59 54 50 50 51 50 49 48 45 45 45 44 43 43 41 41 39 39 36 33 35 36 37 39 41 44 47 50 53 57 60 61 64
67 66 68 69 70 71 70 69 70 72 75 77 72 70 64 65 61 61 56 54 53 54 53 53 52 50 49 48 45 47 46 42 43 39 33 33 36 40 44 46 46 49 50 53 58 61 62 65 68
60 60 57 59 64 67 68 71 70 77 79 78 76 73 71 65 66 61 62 58 57 57 57 56 55 53 50 47 45 46 46 45 46 42 38 42 41 43 47 45 49 49 51 53 56 59 62 65 68
57 57 56 51 56 59 61 67 71 73 79 79 77 74 74 69 68 66 65 65 61 59 58 58 57 55 52 50 47 46 44 45 48 51 48 43 42 43 45 47 50 52 57 60 66 67 69 71 71
58 57 57 57 61 59 59 60 66 74 75 77 77 74 75 73 72 71 70 66 65 63 63 61 60 59 57 54 51 49 46 46 49 49 46 46 47 48 50 50 55 58 64 67 69 71 73 69 71
57 61 59 63 66 62 59 58 58 69 81 77 74 77 77 77 77 77 75 71 67 67 68 64 63 62 61 59 56 53 51 48 51 51 55 55 53 50 51 55 59 64 68 68 68 69 67 70 69
54 56 57 65 70 66 68 62 62 63 71 77 77 77 78 78 77 80 77 74 71 68 68 70 68 66 63 61 62 59 57 56 54 54 59 56 54 54 56 59 64 70 66 65 66 66 71 69 65
52 50 53 60 69 74 71 68 67 65 63 70 81 78 78 79 78 81 81 78 75 75 68 68 70 70 65 64 64 62 62 60 56 53 46 52 55 57 60 63 67 69 66 66 67 71 68 66 65
50 48 53 60 65 73 72 69 69 66 66 65 70 82 82 77 77 80 84 84 79 77 75 70 66 65 68 70 69 65 64 62 55 57 56 56 57 61 66 69 70 69 69 70 71 71 68 64 58
47 47 51 59 64 69 66 65 69 70 70 69 65 69 82 79 75 76 83 85 83 79 77 74 71 67 65 68 68 66 60 56 56 58 56 57 60 64 70 72 69 66 71 70 72 70 63 55 52
48 46 52 57 61 65 65 62 67 73 75 77 71 66 69 78 79 77 78 80 83 80 80 78 77 74 69 67 67 66 62 59 59 56 58 60 65 69 72 70 68 68 70 71 71 64 54 47 47
48 49 51 54 58 61 63 63 63 69 77 80 75 69 66 67 76 85 81 78 78 81 80 80 78 77 71 69 65 63 63 63 61 61 61 65 70 69 69 69 68 70 72 71 63 52 47 47 49
48 55 54 54 58 60 64 63 62 64 74 80 80 73 69 68 72 76 81 78 78 78 79 81 79 76 73 72 69 64 62 64 64 65 68 67 68 69 69 70 70 73 72 63 55 49 47 48 49
52 54 56 54 57 60 61 63 60 64 69 77 82 78 74 68 69 66 67 70 72 78 78 75 78 75 74 74 72 73 70 70 69 68 68 66 68 68 71 71 70 68 63 52 48 45 43 45 44
52 53 57 58 59 59 61 59 61 67 69 71 77 78 75 72 69 69 64 63 67 71 74 78 77 75 73 72 73 74 74 74 72 69 69 66 69 69 70 69 64 61 51 46 44 45 45 44 44
57 55 56 59 62 62 65 54 65 69 71 70 72 76 75 73 70 70 68 63 61 60 66 72 74 73 72 72 74 69 70 67 66 67 68 68 68 71 68 61 55 49 47 46 44 44 46 49 50
56 61 62 61 65 65 62 56 66 67 69 70 73 74 76 71 73 70 69 64 59 57 59 65 67 69 71 72 70 67 66 64 66 68 68 68 67 63 57 55 49 47 45 45 47 47 49 51 51
60 62 65 64 66 64 60 53 60 64 65 70 75 71 72 71 76 74 66 62 59 57 53 53 59 63 67 69 67 63 64 62 64 66 65 60 58 55 53 50 48 47 49 51 49 47 49 50 51
61 59 58 62 64 66 59 53 57 58 62 67 75 71 68 70 75 73 67 62 59 54 51 49 46 50 56 59 61 61 64 60 62 60 54 54 52 50 49 46 44 44 43 43 43 44 44 45 47
65 61 61 64 67 66 64 53 57 52 56 60 70 73 67 67 73 73 70 65 57 53 50 49 43 40 44 47 49 51 54 50 49 49 49 50 47 48 44 41 41 43 43 44 44 45 46 48 50
68 66 66 68 72 66 62 52 57 53 53 55 60 71 68 65 72 72 69 64 57 53 50 48 48 40 38 38 39 40 43 45 46 46 45 45 48 44 42 43 43 43 44 46 47 49 52 54 55
72 72 71 71 73 68 63 45 54 56 55 52 54 65 68 65 70 73 69 64 59 52 47 45 45 42 39 39 41 42 43 44 44 42 43 43 42 42 43 43 45 45 47 50 52 54 59 61 64
74 78 76 77 76 72 60 45 46 55 54 55 57 62 69 66 70 71 72 67 57 51 48 45 44 38 37 38 39 39 40 41 39 40 40 40 42 43 44 47 48 49 50 52 55 59 62 66 69
78 80 82 83 81 65 65 52 43 52 53 57 62 69 72 69 72 72 72 65 56 52 49 47 42 38 38 39 38 38 39 39 39 40 41 43 44 46 47 51 52 54 56 58 61 65 69 72 75
82 86 88 88 81 57 71 71 36 53 64 62 63 66 73 72 69 72 71 66 57 53 48 47 41 39 41 42 43 43 41 42 42 42 44 46 48 50 52 54 57 59 62 64 67 73 76 80 83
87 90 90 89 81 77 87 66 40 58 69 71 64 64 70 70 70 72 71 65 56 52 50 48 42 41 43 45 45 46 47 47 47 48 49 50 52 54 56 58 60 63 67 70 74 78 84 88 90
85 87 90 81 78 82 79 62 58 60 65 70 65 63 66 72 72 71 71 63 54 53 51 47 44 43 46 47 48 49 50 50 50 51 52 53 56 59 60 63 66 69 74 77 81 87 92 94 98
57 60 60 59 61 66 64 57 46 65 68 70 67 62 68 74 75 72 70 60 54 54 52 48 46 46 48 48 50 51 51 52 53 55 56 58 62 64 65 69 72 76 81 83 89 95 97 101 106
32 33 35 36 37 41 49 45 65 67 66 67 66 67 72 77 76 73 70 60 55 54 52 49 48 49 50 50 52 53 53 54 57 59 61 63 66 69 71 74 78 82 86 90 96 99 103 108 112
12 12 15 21 24 30 47 66 67 68 73 68 66 68 72 74 72 71 67 59 55 55 53 51 50 51 51 51 54 54 56 57 60 62 65 68 71 74 77 80 83 87 92 97 101 105 111 114 117

GFSSGP_250_spd_030.txt.gz
Wind_Speed
72 68 66 66 68 67 66 69 66 64 64 65 66 62 60 58 58 58 54 57 59 56 54 51 48 46 45 44 43 43 42 42 40 41 40 37 37 37 35 35 36 39 40 43 47 50 52 52 52
70 67 65 64 64 68 67 66 67 68 69 68 70 71 66 63 63 64 60 58 59 60 57 55 54 52 49 48 47 48 47 45 45 43 43 40 40 39 39 38 40 44 46 50 49 51 51 54 59
67 67 66 66 69 70 68 69 70 71 74 74 75 73 72 70 66 67 65 61 60 62 61 59 56 54 54 53 53 53 52 50 46 46 43 41 42 42 43 47 44 46 46 50 50 52 58 59 64
66 63 63 63 67 71 70 69 70 70 73 78 79 77 76 74 71 71 72 67 65 63 64 63 62 60 59 58 57 55 54 52 48 47 46 47 46 46 49 47 47 51 51 54 57 57 60 63 69
60 60 58 59 65 68 67 64 66 70 73 76 79 79 79 79 77 75 75 73 70 68 66 66 67 64 62 61 59 57 56 55 53 51 48 48 48 48 50 53 55 58 57 55 57 57 60 67 67
53 57 55 59 66 66 65 62 61 61 66 69 76 76 76 80 80 77 77 77 73 71 70 69 67 68 66 64 63 60 59 60 59 56 52 49 47 51 55 57 60 61 59 58 59 62 68 71 66
52 55 55 58 66 66 68 64 65 63 62 64 67 72 75 71 77 81 81 79 76 76 73 72 69 69 68 68 67 65 64 64 62 61 60 54 53 56 56 56 58 56 58 61 63 69 73 67 67
53 51 51 56 63 67 67 66 65 64 63 60 63 67 76 77 72 76 81 81 80 79 76 75 73 74 72 68 69 70 69 68 66 62 60 62 59 64 58 54 54 60 62 64 66 71 72 67 68
54 52 55 58 61 66 64 63 64 64 64 61 61 65 67 75 79 73 75 80 83 81 79 79 79 76 74 71 69 67 69 72 70 65 65 62 59 59 55 57 57 63 64 67 69 73 70 68 72
52 50 56 59 60 61 59 57 61 64 67 67 66 67 65 63 73 79 77 78 79 81 82 82 79 77 76 74 75 74 68 65 65 67 66 66 66 64 64 59 59 65 65 69 72 69 70 71 71
52 48 53 58 59 58 57 54 55 58 64 70 70 68 67 65 64 71 79 81 80 77 80 81 81 80 80 78 76 76 76 71 67 65 64 64 67 65 60 63 61 66 70 68 65 68 70 70 70
52 51 52 56 59 57 56 53 50 55 63 67 69 71 70 70 67 68 72 80 83 81 79 78 78 80 82 80 80 76 75 74 73 70 68 64 62 63 61 62 66 68 67 70 69 69 72 69 66
46 53 54 54 57 60 58 54 49 50 61 66 69 69 71 72 72 71 71 72 76 78 83 81 75 76 77 79 80 79 78 77 76 72 70 65 63 63 66 68 71 72 71 68 68 70 70 65 53
48 46 52 54 55 59 59 56 47 52 57 63 65 68 69 70 73 74 73 71 70 73 74 75 76 75 73 75 76 80 81 79 75 72 70 68 70 71 71 72 74 72 70 66 67 68 62 55 47
53 50 51 54 59 59 62 53 51 58 55 57 62 64 67 69 72 76 75 74 74 73 72 73 75 74 78 78 76 76 78 79 75 73 71 69 70 70 71 69 67 67 66 64 63 62 57 49 44
59 57 55 60 60 62 64 48 59 59 58 54 58 61 64 66 71 74 77 77 78 73 70 67 70 70 66 70 75 77 76 73 71 71 69 66 67 67 65 65 65 65 65 63 60 57 54 49 49
64 63 59 61 61 62 61 54 60 59 56 54 55 58 62 65 67 69 75 77 79 76 69 69 66 65 64 62 65 71 71 72 69 67 66 64 66 64 64 65 64 64 63 58 56 51 46 47 45
69 66 62 60 64 63 60 58 60 61 59 56 56 58 62 64 66 67 67 75 78 77 73 68 67 64 60 59 60 64 65 65 63 63 63 62 63 63 65 65 64 61 56 52 51 45 45 46 47
75 72 67 66 66 65 62 57 62 64 61 59 58 58 60 64 68 67 67 69 73 76 75 68 64 63 59 56 53 53 53 57 60 59 60 63 65 65 64 64 56 54 51 51 45 45 46 47 49
78 76 72 68 73 68 66 55 59 61 60 58 56 55 59 64 65 68 68 68 69 72 73 70 62 59 57 52 49 48 50 53 54 57 59 59 61 58 58 51 52 50 49 47 46 46 47 49 51
83 81 80 74 76 70 65 55 59 58 55 56 54 54 54 59 62 68 70 70 69 71 71 69 63 58 53 49 47 45 49 51 51 52 51 50 52 48 48 51 49 46 46 46 46 49 51 53 55
88 88 89 84 79 74 73 54 58 57 53 51 53 51 51 55 59 62 71 70 67 70 68 67 62 56 50 47 45 44 43 42 44 45 45 46 46 46 48 46 44 45 46 47 51 53 55 57 60
81 91 94 93 84 77 70 58 50 57 52 49 49 51 52 51 55 59 68 72 67 66 69 67 60 55 50 48 47 48 47 46 45 46 46 44 44 45 43 43 46 47 49 53 56 58 60 63 66
81 82 86 87 84 69 70 64 44 52 52 49 50 54 55 56 54 57 63 71 67 66 67 65 61 56 50 47 46 45 44 44 44 41 42 43 43 43 43 45 49 51 54 58 61 63 66 69 71
72 74 77 75 72 58 67 68 44 52 54 57 54 56 59 58 54 55 60 66 66 66 67 65 62 55 49 48 46 44 44 44 42 41 41 42 45 46 48 51 53 56 60 64 66 68 72 73 76
61 69 71 71 67 65 70 56 49 60 61 62 57 59 59 56 56 54 58 66 66 64 66 66 61 54 50 48 46 45 45 45 47 47 47 48 49 51 54 56 59 63 66 69 72 75 77 79 82
67 69 76 73 72 75 68 57 59 58 68 66 68 64 57 59 59 58 58 65 67 64 66 65 61 54 51 49 46 46 47 47 48 47 48 49 51 55 58 60 64 68 71 74 77 80 83 86 89
69 72 75 73 73 69 59 63 64 70 80 78 74 67 60 58 57 61 61 63 69 64 65 63 60 54 51 49 47 47 48 49 49 49 51 53 55 58 61 65 68 72 75 78 81 84 87 91 94
45 43 48 52 56 52 46 46 62 79 89 82 79 71 62 56 59 62 64 64 69 63 64 62 59 55 52 50 48 48 50 50 50 51 54 56 59 62 66 69 72 75 78 81 84 88 92 95 100
42 43 42 41 39 38 33 38 64 85 94 87 86 75 64 57 60 62 67 66 65 61 64 63 61 54 51 50 48 49 50 51 52 54 57 60 63 66 70 72 75 78 82 85 88 93 96 101 105

GFSSGP_250_spd_033.txt.gz
Wind_Speed
67 67 67 64 61 63 64 60 60 64 63 64 64 61 61 61 58 57 55 54 55 53 52 50 50 50 51 49 44 43 43 43 42 41 40 40 37 39 39 38 37 36 36 36 37 41 43 45 48
68 64 64 67 67 69 67 66 62 65 67 65 64 66 63 62 60 60 60 58 58 57 56 56 54 53 54 54 53 50 47 46 46 47 44 43 41 41 37 39 40 38 38 42 44 45 49 51 54
66 66 67 68 68 69 67 64 63 64 68 69 67 68 68 66 64 65 65 63 63 62 60 61 59 57 57 57 56 56 54 52 51 51 51 47 44 42 43 42 43 44 44 46 48 50 55 56 57
69 72 72 68 68 70 71 68 65 64 66 68 70 70 70 70 69 69 68 69 68 67 65 64 64 62 61 60 60 58 57 55 54 55 55 53 49 46 46 48 48 48 49 49 51 55 60 59 57
68 68 65 64 69 71 71 69 69 68 68 70 71 71 73 74 74 72 74 73 72 72 70 69 68 67 65 63 62 62 60 60 59 59 58 55 53 49 48 48 50 52 52 53 56 58 62 61 56
64 66 61 62 70 70 70 69 69 69 69 70 72 73 74 75 78 78 79 79 78 76 74 74 72 70 67 66 66 65 65 64 63 63 61 58 55 54 52 51 50 50 53 58 60 61 57 52 63
62 62 59 59 65 66 68 66 69 71 70 71 72 73 75 77 78 81 82 83 83 80 79 76 77 75 71 71 70 67 66 67 66 65 63 62 59 58 57 57 55 59 57 54 53 54 57 59 62
58 57 55 60 66 66 64 62 64 65 66 64 66 70 72 74 76 81 80 84 86 85 81 80 78 76 74 73 73 71 68 68 67 67 67 66 65 64 62 58 59 59 56 62 60 60 64 61 63
56 52 54 61 64 65 61 58 59 60 62 63 62 67 68 68 68 69 74 78 75 78 79 80 80 79 75 74 75 73 71 71 69 68 69 67 65 66 65 66 65 65 65 64 62 63 62 62 65
52 50 56 58 60 61 60 56 57 58 61 63 65 67 69 69 66 66 66 69 78 76 74 76 79 83 82 79 76 76 75 73 73 71 70 69 67 63 58 58 61 62 64 65 64 62 62 65 68
50 49 52 56 57 59 59 58 56 57 58 63 64 68 69 71 70 69 68 69 69 78 81 72 74 78 83 81 79 78 77 76 76 75 72 70 72 71 69 68 67 66 64 64 63 63 66 69 71
45 48 51 56 58 58 61 60 56 55 58 62 61 63 67 70 72 72 70 69 70 72 76 81 77 75 76 77 78 79 80 80 79 76 75 73 72 70 71 71 70 70 66 67 65 68 74 70 65
45 48 49 53 54 58 62 60 57 54 58 58 59 59 63 67 71 74 74 71 71 72 72 71 79 78 75 75 76 77 78 79 80 79 76 76 75 75 71 71 71 72 71 69 70 72 72 68 63
48 50 50 50 53 54 58 61 53 55 60 58 57 56 57 60 64 69 73 76 73 74 74 70 70 74 78 78 76 77 79 80 79 76 73 72 73 74 73 72 73 70 70 70 69 69 66 64 62
55 52 54 58 58 54 57 52 51 60 56 55 56 57 54 56 58 62 69 73 75 77 76 75 70 67 67 73 76 77 77 80 78 74 72 70 69 71 72 71 70 69 68 67 64 65 64 64 64
63 59 61 62 60 57 54 45 54 57 56 55 57 54 52 52 55 60 64 67 72 74 78 77 72 69 67 65 66 66 71 73 74 76 77 76 72 69 67 66 66 65 65 65 63 66 66 66 62
68 63 63 63 64 63 59 48 55 57 57 57 54 55 56 56 55 58 62 64 68 71 74 76 74 72 69 66 63 63 63 63 65 69 70 69 67 64 64 66 67 64 64 63 65 67 68 66 59
67 66 64 66 70 68 65 57 57 57 56 58 57 54 55 56 59 58 58 60 67 71 73 73 73 73 71 68 64 62 60 57 54 54 57 59 59 60 62 62 65 64 62 63 66 68 66 61 56
73 71 69 70 73 76 73 62 58 58 56 57 58 59 57 57 61 60 57 57 63 71 75 72 71 72 71 69 67 61 58 57 56 55 52 50 51 54 58 60 62 61 63 65 66 63 57 56 55
76 74 74 74 78 77 75 64 61 63 61 59 59 58 59 62 62 62 60 55 62 69 74 72 71 70 69 69 67 62 56 56 57 54 49 48 50 53 56 58 60 61 62 62 58 55 55 54 53
77 78 81 83 84 81 79 68 71 68 61 59 60 60 59 60 63 66 63 57 58 67 72 73 70 69 67 66 65 63 57 54 53 50 50 50 52 54 55 57 58 57 55 53 53 54 53 50 52
80 84 88 88 88 85 87 73 70 70 66 64 62 62 62 61 63 64 64 59 56 62 70 73 70 66 65 65 64 61 58 52 51 49 49 48 50 52 52 53 51 50 51 51 52 51 50 52 55
84 86 88 91 93 90 84 81 65 70 69 69 68 67 66 65 63 64 66 59 57 59 65 71 70 64 63 64 62 60 56 51 50 48 49 48 48 48 46 47 49 49 49 50 51 51 53 56 60
82 84 85 87 87 75 79 79 58 67 73 76 70 69 67 67 65 63 63 56 55 56 60 67 69 65 62 62 62 58 53 49 50 50 51 51 50 48 46 44 45 47 49 50 53 56 59 62 66
73 78 81 83 84 72 78 74 61 68 70 76 74 70 68 69 67 64 57 56 56 56 57 60 67 64 61 61 61 58 53 50 50 50 48 50 48 46 43 45 47 49 52 54 58 61 64 68 71
77 83 87 79 76 68 67 50 47 63 66 76 77 75 69 70 68 61 56 56 57 56 56 56 61 62 59 61 60 56 53 50 50 48 48 49 49 49 49 51 52 52 56 59 61 65 69 72 76
81 80 75 69 70 65 62 53 52 58 66 73 81 81 74 69 67 59 53 55 55 55 54 55 58 60 59 59 59 57 52 51 50 49 49 51 51 52 52 53 54 57 59 62 65 68 72 76 80
69 70 70 67 64 62 56 57 60 61 69 77 81 78 76 70 61 53 49 51 53 56 53 53 56 59 58 59 59 57 53 51 51 51 52 52 53 53 55 57 59 60 63 66 69 73 77 82 85
59 58 54 49 45 44 40 42 64 71 77 83 81 82 77 73 63 56 48 51 54 57 54 50 54 58 58 59 58 56 53 51 52 52 53 54 55 56 57 60 62 64 67 70 73 78 82 87 91
42 45 47 46 43 40 32 41 47 69 84 86 81 81 81 75 62 56 51 52 54 55 53 50 53 58 59 59 58 55 53 52 53 54 55 55 57 58 60 63 66 68 71 74 79 83 87 92 95

GFSSGP_250_spd_036.txt.gz
Wind_Speed
64 63 62 63 65 66 67 64 61 55 53 50 50 52 55 54 53 52 54 55 54 53 51 50 48 46 45 45 45 45 45 45 43 43 43 42 42 40 40 38 37 38 39 39 39 37 37 39 41
67 66 66 64 64 65 65 64 63 65 61 60 58 55 57 60 59 60 58 59 60 59 59 57 55 52 50 49 49 49 48 48 48 48 46 46 47 47 45 42 42 41 43 44 44 43 43 43 48
65 66 64 64 66 68 69 67 66 66 65 64 65 65 61 62 66 67 67 64 64 64 63 62 60 59 57 55 53 53 53 52 52 52 51 50 50 51 51 47 44 44 46 46 48 48 48 50 51
70 68 67 68 70 70 70 73 70 69 67 67 69 68 66 68 66 69 70 68 67 68 67 67 65 63 62 62 59 58 58 57 56 56 56 55 54 53 53 53 50 47 48 48 50 51 52 53 53
71 71 68 71 74 72 71 70 72 71 70 70 70 70 70 69 70 70 71 72 73 73 71 71 70 68 67 65 66 64 61 61 61 59 59 59 58 58 57 56 55 52 52 50 51 52 54 55 56
73 73 70 68 73 73 71 70 70 73 74 73 72 72 74 73 73 73 73 75 76 76 76 74 74 73 72 71 69 68 67 65 64 63 62 62 62 62 60 59 58 56 56 55 58 56 56 58 57
67 69 66 68 71 71 72 70 69 69 71 71 71 74 74 75 75 74 74 75 79 78 80 78 77 79 76 76 74 71 71 69 68 67 66 65 65 65 64 62 60 60 61 61 62 62 61 62 61
64 65 62 66 70 71 68 65 68 70 70 69 69 72 74 75 75 75 75 77 79 80 81 83 82 83 82 81 77 76 74 73 71 70 70 69 68 68 66 65 63 63 64 65 65 67 66 66 63
66 67 65 72 74 72 68 63 64 65 66 67 68 68 73 74 75 73 73 74 78 80 82 84 85 84 85 83 82 80 76 71 74 75 74 73 72 70 68 65 65 66 66 64 61 60 61 61 62
63 64 69 70 68 65 67 64 62 63 64 64 63 65 68 69 71 72 72 73 74 78 80 82 84 87 88 89 89 85 83 80 67 69 73 74 73 73 72 71 69 68 69 69 69 68 68 69 69
60 62 65 65 64 64 66 69 62 61 58 61 59 60 64 66 68 71 71 72 73 74 77 76 80 84 85 85 89 86 86 85 82 78 77 75 76 76 76 74 74 73 71 70 70 70 73 69 70
57 60 59 57 58 61 64 63 59 56 58 56 58 59 62 64 67 72 73 73 74 75 74 74 72 73 73 77 79 79 82 83 83 83 82 79 78 77 78 78 77 75 75 74 74 72 72 70 70
60 58 55 53 55 55 56 58 57 54 57 58 58 58 60 63 66 68 70 73 75 76 75 74 72 70 70 73 80 73 74 77 77 78 80 80 78 78 78 78 78 77 78 76 75 73 73 72 70
60 61 58 57 58 55 53 55 49 56 61 58 57 58 60 62 64 65 66 67 71 73 74 74 74 73 70 71 72 76 77 76 75 75 76 75 75 74 75 75 74 73 72 71 71 73 72 70 68
64 60 58 62 61 54 52 48 48 54 54 54 56 59 58 62 63 62 61 62 64 67 67 69 73 75 73 71 69 67 69 70 74 74 73 75 75 75 76 77 74 72 71 70 69 68 67 66 65
66 66 64 66 64 59 52 52 55 55 53 53 52 52 56 58 64 63 63 61 61 63 65 66 70 73 75 74 71 69 67 68 67 69 72 72 72 73 75 77 77 77 76 74 72 70 67 66 66
73 71 67 68 67 68 63 52 59 60 57 53 54 48 51 55 60 64 64 62 61 59 62 66 66 70 73 73 73 70 70 69 66 64 61 61 62 61 63 67 71 74 71 69 67 66 66 66 66
77 75 77 75 70 72 67 57 59 62 61 59 56 55 51 54 57 64 66 65 62 59 61 66 66 67 66 69 71 71 72 71 67 64 61 57 57 57 54 52 56 59 61 62 64 63 64 64 67
82 80 78 75 74 74 70 60 62 64 65 65 64 62 58 52 58 62 65 67 66 63 62 64 62 62 63 65 68 69 72 70 67 65 63 59 58 55 53 56 54 55 57 58 59 60 62 64 66
83 80 77 76 76 74 73 62 64 66 66 66 66 66 65 62 57 59 64 69 66 63 62 63 64 62 58 61 65 67 69 69 67 64 64 62 59 54 55 56 53 54 55 55 56 58 60 63 64
84 78 78 78 77 75 75 66 72 68 70 70 69 69 69 69 66 62 63 67 70 66 64 65 64 63 60 58 61 65 66 68 67 65 63 61 59 55 55 55 54 54 54 56 57 59 59 59 58
77 75 76 79 80 80 80 74 72 75 74 76 77 78 75 75 74 69 69 67 68 66 68 68 68 63 61 59 59 64 64 65 65 62 60 61 61 56 54 55 55 54 55 57 56 56 55 55 57
73 74 77 78 79 79 80 88 72 79 82 83 87 85 82 81 80 77 69 68 69 66 63 65 65 61 63 60 61 64 64 63 63 59 61 62 58 57 56 56 55 55 55 54 53 53 51 52 54
69 73 77 79 82 80 86 89 70 85 86 87 91 94 94 88 87 85 77 70 69 66 62 64 62 60 60 61 61 65 64 61 58 59 62 61 59 58 57 58 58 58 58 55 54 48 50 53 56
71 75 77 80 82 79 84 83 77 83 81 85 87 94 93 87 86 86 80 73 69 65 62 64 61 59 59 60 61 62 62 59 54 60 62 60 58 58 58 58 58 57 57 55 51 52 55 57 58
68 70 75 73 74 74 77 81 81 88 82 84 86 87 90 85 78 77 78 72 68 65 60 63 60 55 55 58 59 59 60 59 59 59 59 58 58 58 58 59 58 58 58 56 56 58 59 60 63
54 60 67 70 76 78 84 84 85 85 77 77 86 89 95 97 83 77 76 72 65 63 60 61 56 53 53 55 55 57 58 58 57 61 60 60 59 59 59 59 59 60 60 60 61 62 62 65 68
53 62 70 76 76 77 74 73 75 77 66 70 80 81 88 94 92 79 76 68 64 61 59 56 51 50 50 49 54 56 57 58 60 61 61 61 60 59 59 60 61 62 62 63 64 65 67 70 73
57 66 65 64 60 59 57 59 61 62 59 64 73 74 76 86 86 77 74 67 62 58 57 53 49 49 46 45 52 56 58 57 59 62 61 60 59 59 60 61 62 63 64 65 67 69 72 75 79
53 41 40 46 51 52 54 39 63 46 50 57 70 74 73 79 80 73 72 68 62 56 55 50 47 45 44 44 47 55 58 57 59 62 61 60 60 60 61 62 63 65 66 68 69 72 76 79 83

GFSSGP_250_spd_039.txt.gz
Wind_Speed
64 63 62 61 60 60 59 58 53 51 51 54 53 51 49 47 48 51 52 53 51 50 48 48 47 47 46 43 44 44 43 42 43 43 44 45 45 44 43 43 39 41 43 40 39 42 43 44 43
67 63 63 64 62 61 64 62 65 61 58 56 52 55 57 54 51 49 54 56 54 54 53 51 53 52 52 53 50 50 50 47 47 48 48 48 48 48 48 49 48 47 47 44 44 44 46 47 47
70 69 65 63 68 68 67 62 67 69 69 67 65 65 62 58 59 58 53 57 61 59 58 60 58 57 60 58 58 56 56 54 52 52 51 52 52 52 53 52 53 53 52 49 48 49 48 49 50
74 72 69 67 67 71 71 67 65 69 69 71 74 74 73 71 69 66 63 62 61 64 66 65 65 64 63 64 62 62 60 60 58 56 55 55 55 56 55 55 55 54 54 54 54 53 52 51 52
75 73 73 72 71 68 71 71 70 69 69 70 72 75 74 73 72 73 71 71 70 69 69 70 71 70 69 68 68 66 66 64 63 61 61 59 60 59 58 59 58 57 57 58 58 58 56 55 55
75 76 74 76 77 75 72 73 70 73 72 72 75 72 73 73 72 73 72 71 71 71 73 74 73 74 73 73 72 71 70 69 68 67 65 64 63 63 62 63 62 61 61 61 62 62 60 60 60
73 75 73 74 79 81 80 76 75 77 75 73 73 73 74 72 72 71 72 73 72 72 74 76 77 76 76 77 77 75 74 74 73 72 70 69 69 67 67 66 65 65 64 64 64 63 62 62 63
74 73 72 75 78 80 80 76 78 73 72 67 70 71 76 70 73 73 76 76 76 74 76 77 78 78 79 80 80 80 78 77 77 76 76 74 73 72 71 70 70 69 68 68 68 68 67 65 65
71 70 69 71 77 75 71 70 70 68 69 67 67 70 69 70 75 76 77 77 78 78 79 80 81 81 81 81 82 83 83 81 81 81 82 79 77 75 75 75 74 73 74 73 71 71 69 68 68
69 69 66 70 73 69 66 66 64 63 68 67 70 69 69 69 71 74 75 76 78 78 79 81 82 82 81 82 82 83 84 85 85 85 85 84 82 78 70 67 69 78 74 71 71 73 75 75 73
70 69 71 70 72 70 69 70 67 66 67 70 71 68 63 69 70 73 75 75 74 73 74 75 77 78 79 79 81 83 85 87 87 88 89 88 87 82 78 72 70 71 71 74 75 77 78 78 77
72 73 67 71 73 71 72 73 66 70 67 69 67 69 69 69 70 71 70 69 68 68 68 69 70 71 72 75 77 79 81 84 86 89 91 89 89 87 87 87 85 81 80 81 80 79 81 82 81
77 76 74 70 67 70 68 64 65 62 64 67 67 69 68 68 68 69 69 68 67 67 66 68 68 70 70 70 72 72 73 75 76 79 81 82 83 83 83 85 87 86 84 85 84 80 80 80 79
72 76 77 77 72 68 62 63 60 60 63 62 61 63 64 64 65 65 65 67 67 68 68 67 67 69 71 71 71 71 71 72 71 72 76 74 73 73 74 77 77 77 78 78 78 76 76 76 76
77 80 79 76 74 67 66 61 54 60 58 56 56 59 59 60 60 63 66 66 65 66 66 66 67 69 70 71 71 71 71 71 72 73 72 73 77 71 68 73 75 76 76 76 76 76 75 77 77
80 78 76 75 77 72 65 60 63 60 62 57 57 53 49 49 54 58 60 64 68 65 64 66 66 66 67 68 70 70 71 72 73 73 73 71 71 70 68 67 66 69 71 72 74 73 73 78 82
80 80 80 78 78 70 66 60 60 62 66 58 56 56 54 53 53 56 58 59 62 65 65 64 67 66 66 66 67 68 67 70 73 74 74 73 70 69 67 66 63 63 63 64 66 65 64 65 66
79 76 76 74 74 72 68 62 65 60 67 65 64 61 58 57 56 58 57 59 58 60 64 62 65 68 67 64 63 63 65 66 68 70 74 74 72 70 68 66 65 62 61 61 60 57 58 58 59
76 76 75 77 77 76 72 66 65 67 68 72 71 67 64 62 64 62 62 59 62 61 60 62 63 65 68 64 61 60 60 61 63 65 67 69 72 73 70 68 66 64 61 59 59 59 57 56 56
78 78 79 79 80 78 78 72 71 73 73 70 73 74 71 69 69 67 65 64 64 64 62 62 63 64 68 66 62 59 55 59 60 60 62 65 68 72 72 70 68 65 61 60 59 58 56 56 55
82 80 82 82 81 80 80 72 78 73 74 75 76 78 77 75 73 71 69 66 65 65 66 62 60 64 67 66 63 60 59 58 56 58 61 62 65 66 67 68 68 64 63 61 59 58 58 57 56
81 83 85 83 82 82 82 77 76 79 79 78 79 82 83 81 77 76 74 72 69 66 68 66 60 60 66 67 63 61 60 59 58 59 60 63 63 68 70 68 69 65 63 61 60 61 59 59 59
81 81 83 83 84 85 85 89 76 82 82 84 84 84 86 87 85 79 79 77 75 71 70 72 67 61 63 66 63 64 63 62 60 60 61 64 65 68 70 71 69 64 62 61 62 61 62 61 62
75 77 82 84 85 84 85 91 73 81 86 86 86 87 90 93 92 89 86 84 81 77 72 71 71 65 64 67 62 63 60 61 61 60 60 64 66 68 69 68 67 63 62 61 63 63 63 63 63
75 77 79 80 79 73 76 77 70 81 86 82 88 90 93 94 97 96 91 89 86 83 79 73 74 72 68 68 62 61 59 58 57 57 57 62 67 67 69 68 66 64 63 62 63 64 64 65 65
54 56 62 60 66 67 68 68 76 85 90 86 90 92 91 92 97 98 97 91 89 85 81 78 77 72 69 67 61 58 60 57 56 56 56 59 66 67 68 68 66 64 65 63 64 64 65 67 67
47 50 57 59 61 60 63 70 72 79 84 85 89 82 81 84 86 88 90 84 81 79 77 80 78 74 72 67 60 59 58 56 57 54 53 58 65 66 66 68 67 66 66 65 65 65 67 68 70
40 48 51 50 52 60 65 69 80 87 89 91 94 82 71 79 92 89 89 89 77 73 69 68 71 71 69 61 57 58 58 57 54 53 54 57 65 67 67 68 68 66 67 67 66 67 70 70 73
36 43 47 52 59 66 69 68 78 83 83 79 81 71 65 73 87 87 85 89 81 76 70 66 63 64 64 56 56 56 57 56 53 50 50 56 62 66 67 70 70 69 68 68 68 70 71 73 75
40 45 50 56 48 47 54 41 64 70 68 67 62 55 47 61 71 76 79 77 76 75 72 68 64 61 60 53 53 55 57 53 50 48 50 56 61 64 66 68 70 70 69 69 70 72 74 75 77

GFSSGP_250_spd_042.txt.gz
Wind_Speed
67 63 61 61 58 57 56 56 55 55 53 53 53 54 53 53 48 47 47 47 44 45 48 47 46 45 42 42 41 41 41 40 40 41 40 41 42 44 44 43 44 44 43 41 41 43 45 44 45
70 68 65 62 62 60 61 60 59 58 56 58 55 57 55 52 50 47 48 49 49 49 50 50 51 50 49 46 46 45 45 47 46 46 46 47 46 47 46 47 48 48 48 48 48 49 49 49 49
74 70 67 65 64 66 67 59 58 58 62 59 59 58 56 52 56 54 52 51 51 50 52 54 54 53 54 52 51 51 51 52 53 54 53 52 53 51 51 51 51 51 51 52 53 53 53 53 51
77 73 71 68 70 71 68 65 64 64 62 63 63 65 60 59 60 61 57 57 57 57 57 54 55 56 57 57 57 57 58 57 57 59 58 59 57 57 57 56 55 55 55 55 55 55 55 55 54
79 77 73 73 77 75 70 68 65 66 64 65 65 66 64 69 69 68 66 64 64 64 61 62 60 59 59 61 63 64 65 64 63 63 64 63 63 62 62 61 61 60 60 60 60 58 58 58 59
82 80 74 74 81 78 73 71 70 68 67 67 70 69 65 71 72 76 77 76 74 73 72 71 70 68 68 67 68 68 68 69 69 69 69 68 68 67 67 66 65 65 64 63 63 63 63 63 63
83 85 81 81 81 78 79 78 74 72 70 69 70 72 72 68 71 72 73 73 74 74 75 74 75 75 73 72 73 72 72 73 74 75 73 73 73 73 72 72 71 70 69 68 67 67 67 67 67
83 83 81 80 80 82 79 77 76 79 78 74 74 78 76 67 73 74 75 76 76 74 73 74 75 77 74 74 74 75 75 75 76 77 78 78 77 77 76 76 75 74 73 73 72 72 70 70 71
81 78 74 75 79 82 85 82 78 83 77 75 77 83 78 78 79 78 75 74 74 72 71 74 75 76 79 78 77 78 77 77 79 80 82 82 81 81 80 79 78 78 77 75 76 74 74 74 74
78 73 68 73 79 82 82 79 75 74 70 73 75 77 76 77 74 75 75 75 76 75 74 73 73 75 74 75 76 79 80 83 83 83 84 84 84 84 84 83 82 81 80 81 76 72 68 69 69
69 65 68 71 76 76 74 72 72 72 64 66 67 68 65 65 66 71 73 70 68 71 71 74 76 75 73 76 77 79 81 81 84 85 83 85 84 84 84 85 85 84 84 86 85 80 80 75 74
69 67 67 70 71 71 70 67 63 64 63 63 64 66 64 69 67 68 70 70 69 69 70 70 71 72 74 74 74 73 70 72 76 78 81 81 83 83 83 85 86 86 83 85 85 86 86 86 88
68 65 69 68 69 72 70 66 65 64 62 67 66 68 68 72 71 69 69 71 70 71 70 69 68 68 68 68 69 67 65 67 69 73 75 77 78 78 78 80 82 82 83 84 83 84 84 82 81
68 67 70 70 71 72 69 70 65 65 69 68 68 68 69 69 70 67 67 70 71 70 68 69 66 67 66 65 65 66 66 66 67 71 71 73 73 73 72 73 74 75 76 76 74 73 74 75 73
73 73 74 72 74 77 76 72 70 67 66 66 67 69 70 70 70 69 68 67 68 69 67 66 64 65 66 65 64 64 64 64 65 69 71 72 74 72 71 72 72 72 72 75 76 71 71 72 76
79 77 77 78 76 75 74 71 75 74 71 68 69 65 63 65 63 63 63 65 66 67 64 63 63 65 65 65 64 62 62 61 64 65 68 69 73 73 73 74 73 73 73 72 71 70 67 67 66
81 80 82 82 79 77 75 72 77 74 74 68 65 62 62 62 63 63 63 64 62 61 60 59 58 59 60 61 62 62 60 58 62 61 64 66 67 69 72 75 74 73 75 74 72 69 67 66 62
84 84 83 81 79 79 79 79 79 74 73 74 66 64 63 64 66 64 64 64 63 61 60 59 55 54 56 57 58 60 61 57 61 60 60 62 64 68 69 70 72 75 75 74 73 71 70 67 63
86 85 85 86 85 85 84 79 77 77 74 75 70 62 65 63 65 70 69 68 65 63 63 62 61 52 57 51 53 56 58 56 59 60 57 58 58 64 64 66 68 69 71 74 74 73 73 69 65
83 85 85 85 85 83 83 75 75 76 71 70 71 69 69 70 69 66 69 73 71 68 66 66 65 61 57 56 53 54 51 56 60 59 57 58 56 60 61 64 66 67 69 71 73 74 73 71 65
80 82 84 84 82 80 79 74 74 71 70 74 75 76 75 75 74 74 75 72 78 73 70 68 69 68 62 59 55 54 52 54 58 59 59 59 58 60 58 61 66 66 67 69 69 70 71 69 66
73 74 77 79 81 77 75 70 71 73 74 77 79 79 80 79 79 79 78 75 76 79 76 72 68 68 68 62 59 54 53 52 55 58 60 58 57 59 59 58 65 68 69 69 68 67 66 66 65
73 71 75 76 74 72 73 76 68 78 81 82 82 83 85 87 85 84 84 81 76 82 81 76 72 68 69 65 66 59 60 53 50 55 58 60 61 63 64 61 64 68 70 70 70 69 69 68 68
71 72 75 75 75 75 75 79 66 77 81 85 87 89 92 91 90 91 91 89 84 83 83 81 76 72 72 68 71 63 66 60 57 60 59 58 58 61 63 64 62 68 70 70 71 71 72 71 69
67 70 74 77 77 78 83 81 75 80 84 89 90 95 96 96 97 97 97 94 89 87 85 86 82 78 74 72 71 69 69 63 63 63 59 59 57 55 59 63 63 65 70 72 72 72 71 71 69
74 76 77 73 71 71 74 72 76 79 80 83 95 96 97 97 95 92 92 92 91 90 87 89 84 81 81 78 78 75 66 67 64 63 61 60 56 54 57 60 61 64 68 72 74 73 71 71 71
61 60 63 65 69 69 69 65 62 68 69 75 83 87 88 89 90 87 86 85 87 91 89 88 85 83 86 82 83 73 65 66 65 62 63 62 57 55 58 58 58 61 66 71 72 73 73 73 73
54 54 50 48 44 43 46 50 56 64 71 74 77 83 85 86 84 82 80 81 86 90 86 88 86 85 83 82 78 72 70 71 65 61 62 60 57 56 57 57 59 61 67 71 72 73 73 74 75
32 30 31 31 38 38 44 51 61 70 75 82 86 87 91 90 85 80 76 85 86 90 79 81 76 74 73 72 67 65 66 65 63 59 60 57 57 57 56 56 59 60 66 73 74 75 75 76 77
23 23 27 32 41 48 52 48 62 66 73 74 74 78 79 76 69 66 63 74 80 81 74 77 78 71 64 58 60 58 55 57 58 57 58 57 55 56 56 56 57 58 62 68 73 76 78 80 81

GFSSGP_250_spd_045.txt.gz
Wind_Speed
68 65 61 59 57 57 58 57 54 55 55 52 52 51 49 45 44 44 46 48 45 42 42 42 43 43 43 40 39 39 37 38 38 38 38 38 38 39 39 40 41 42 44 45 44 44 45 46 46
70 67 64 60 60 61 63 59 55 55 54 58 56 53 52 48 51 50 51 50 48 48 47 46 45 45 46 47 46 46 45 45 44 43 42 43 43 43 43 44 46 46 47 48 49 50 50 49 50
74 69 66 62 62 65 67 59 57 56 58 58 57 57 53 51 57 55 52 53 52 51 50 49 49 50 50 49 50 51 50 49 48 46 47 48 49 51 52 52 51 52 53 52 53 52 52 53 54
76 70 67 64 69 71 69 61 58 61 66 60 59 59 56 55 61 55 54 56 54 54 53 53 52 52 53 53 54 54 55 53 53 54 53 54 55 55 56 58 57 57 58 58 58 57 58 58 57
77 74 70 68 74 75 72 65 63 66 65 64 64 60 56 57 60 59 56 58 59 58 57 56 55 56 57 56 56 56 56 57 58 57 58 60 61 62 62 63 63 63 62 62 62 63 63 63 62
79 76 72 71 78 76 75 69 68 70 68 68 68 63 60 62 63 61 59 62 62 63 61 61 62 62 62 61 62 61 62 62 62 62 64 66 66 67 68 68 69 69 68 68 68 67 67 67 67
82 79 76 77 78 75 78 77 70 73 70 71 70 65 62 63 66 66 63 64 66 69 69 68 70 72 72 72 72 73 73 72 72 72 71 72 73 73 73 74 74 73 74 74 72 73 73 73 72
87 81 79 79 80 80 81 78 74 73 72 72 72 72 66 68 69 67 65 66 69 70 69 69 71 74 75 75 75 76 76 75 75 76 75 75 75 75 77 78 78 78 77 78 77 76 77 77 76
89 83 81 83 84 86 86 81 76 74 76 76 73 73 72 75 75 74 70 66 70 71 70 69 70 71 71 72 72 72 74 75 75 75 75 76 76 78 79 80 80 81 82 81 80 79 77 76 77
86 84 85 87 88 90 87 81 80 80 84 81 76 79 76 75 75 77 77 73 72 73 73 73 73 71 70 71 73 73 75 76 76 78 77 78 78 79 82 82 83 82 82 84 83 83 84 84 83
82 80 81 85 88 88 86 85 81 80 82 82 80 80 79 80 80 76 80 78 74 73 71 73 75 74 71 71 70 72 75 77 79 80 81 82 83 83 83 85 85 85 85 84 83 84 85 84 83
81 81 79 81 85 82 82 83 81 79 79 80 82 83 85 83 79 78 79 73 71 70 68 67 67 69 71 72 70 72 73 76 78 78 78 81 82 82 82 81 82 81 81 81 82 82 81 83 84
78 78 79 82 82 79 80 79 77 74 76 77 80 77 71 66 72 69 68 70 69 68 70 69 68 67 68 70 72 74 73 73 75 75 73 73 74 74 73 74 74 75 76 76 79 79 79 80 81
72 74 76 78 78 74 75 75 68 65 73 75 70 67 67 63 68 67 66 67 67 67 67 69 69 68 68 70 72 71 71 69 70 69 66 66 69 69 69 69 70 71 71 72 72 73 72 72 72
71 72 76 78 77 73 75 69 63 67 67 64 66 65 65 64 68 68 69 67 69 68 67 71 71 71 70 69 69 67 65 66 66 65 66 67 67 67 67 67 67 69 72 73 73 73 73 72 70
75 75 75 79 77 74 73 64 68 67 65 63 64 66 67 68 70 69 70 71 72 73 71 71 72 71 68 65 64 65 63 64 64 64 65 66 66 64 64 63 65 66 69 72 75 76 75 74 73
75 74 76 78 76 76 71 64 71 68 68 69 72 71 70 71 72 74 74 73 71 73 75 69 66 64 63 61 58 58 58 58 59 60 63 64 63 61 60 61 61 62 64 69 71 74 76 76 75
80 78 75 76 73 72 70 69 72 73 71 72 72 74 72 70 73 75 74 73 71 70 71 69 63 62 64 62 56 54 53 54 54 54 59 61 61 58 58 59 59 59 61 63 66 70 72 74 75
79 75 77 80 80 76 75 74 75 79 73 74 76 76 76 76 80 78 75 75 71 69 68 68 68 64 63 64 62 58 54 50 51 52 51 57 59 54 58 58 59 59 59 60 61 64 67 71 73
86 86 83 81 79 75 77 75 78 79 77 77 79 78 81 82 80 76 74 73 71 70 67 66 67 70 69 68 65 59 56 52 51 51 53 52 51 53 56 59 61 62 61 61 59 60 64 67 69
86 84 86 85 84 83 78 76 80 80 81 82 84 86 86 81 78 76 73 70 70 71 74 73 72 70 70 69 72 67 61 57 55 55 55 54 54 51 49 54 59 62 62 61 62 62 62 63 66
81 82 82 83 84 83 82 78 79 80 82 84 87 85 82 81 80 77 75 74 72 73 77 76 78 77 75 74 73 77 69 63 61 58 56 54 52 45 43 49 55 62 62 62 65 65 65 65 65
77 79 83 82 82 79 78 75 74 79 81 81 83 85 82 80 80 79 80 80 80 78 78 82 82 80 79 76 71 76 76 68 63 59 57 54 54 50 49 52 56 62 64 66 67 70 70 69 67
75 78 80 79 77 74 77 75 66 73 79 81 80 80 80 83 84 85 87 87 87 86 86 85 86 86 85 81 74 71 75 76 69 61 59 54 53 53 56 59 58 58 62 64 66 69 71 72 73
75 77 76 74 72 72 72 70 65 70 76 78 80 84 87 90 91 91 92 91 92 92 92 92 92 91 91 87 79 73 72 78 77 64 62 62 63 64 63 62 61 58 60 64 66 67 68 71 70
66 76 73 70 69 71 69 67 68 74 78 85 86 90 90 94 98 100 99 98 97 98 100 100 98 93 92 92 84 76 75 77 75 68 67 66 63 66 66 65 63 61 60 62 64 63 63 65 68
62 61 64 68 72 74 72 69 69 76 82 87 91 89 91 93 96 97 99 100 100 101 105 106 104 101 93 85 77 71 73 75 70 69 69 71 67 68 66 66 64 61 62 60 61 62 63 65 67
54 54 57 61 64 66 67 72 77 83 81 79 83 87 91 97 99 99 101 99 98 98 98 95 94 90 83 76 71 67 68 70 73 74 74 70 68 67 66 66 64 62 61 61 61 64 64 66 70
46 50 51 54 55 55 59 61 70 72 68 64 67 75 84 87 89 88 89 93 95 96 93 89 86 87 79 69 65 70 70 72 73 73 70 68 67 69 66 64 61 62 61 61 61 63 65 66 65
34 38 41 45 44 47 42 42 55 52 57 63 69 75 81 83 85 79 76 84 90 91 88 87 85 86 84 71 69 68 66 74 74 72 69 66 64 63 62 60 60 62 60 62 64 64 66 65 65

GFSSGP_250_spd_048.txt.gz
Wind_Speed
72 68 65 63 60 60 60 58 52 53 51 52 51 48 46 42 42 44 45 43 41 41 40 40 39 38 40 39 39 38 37 37 36 36 37 36 38 39 38 38 38 38 39 39 40 42 43 43 42
76 73 71 68 64 64 65 60 55 54 54 55 53 52 48 48 48 49 49 47 48 47 46 45 44 43 42 42 43 44 44 45 44 43 42 42 43 44 44 44 44 44 45 45 46 46 48 48 49
81 79 76 71 67 69 69 60 57 57 55 57 55 54 50 54 54 52 52 50 51 51 50 50 49 49 48 47 48 47 48 48 49 49 50 49 48 48 48 48 48 49 51 52 54 54 54 54 55
80 77 74 71 71 73 71 63 60 58 61 59 56 53 51 55 55 56 54 53 55 54 53 53 53 53 52 52 52 51 53 52 52 53 53 53 53 53 54 55 55 55 57 59 59 59 60 60 60
82 79 75 71 75 78 74 65 63 62 65 63 58 55 52 54 54 55 55 56 56 57 56 56 56 56 56 55 56 57 56 56 56 57 57 57 56 57 57 58 59 59 61 63 64 66 67 66 66
83 80 76 75 80 80 76 68 65 65 67 64 59 57 56 58 58 59 57 57 58 58 56 56 58 59 59 58 59 60 59 59 59 59 60 60 62 64 65 66 66 67 69 69 71 72 72 71 71
85 81 78 81 82 79 81 71 67 67 68 69 62 59 60 62 61 61 60 60 60 60 59 58 59 60 61 62 63 64 64 65 65 67 69 72 73 73 74 75 74 73 75 75 74 74 76 76 75
89 85 81 80 82 82 81 75 71 70 70 68 67 64 65 67 64 64 64 65 65 63 62 62 63 64 65 67 69 70 71 73 73 75 75 75 75 76 75 75 76 77 77 77 78 77 79 79 79
91 86 82 83 85 88 87 78 74 71 70 70 70 69 70 68 66 65 67 68 68 68 68 66 65 66 67 68 69 71 70 71 72 74 74 75 76 76 77 77 79 79 80 80 80 80 81 81 82
91 85 86 89 90 91 85 77 74 72 73 76 73 71 70 71 71 68 68 69 69 69 70 70 71 70 70 71 72 72 74 75 75 77 78 77 77 78 80 82 82 83 83 82 84 84 84 84 85
87 82 88 91 94 91 86 81 79 76 76 81 79 75 74 74 76 76 74 73 73 73 73 73 72 73 75 76 76 76 75 76 75 76 78 80 81 80 81 81 82 83 82 84 84 85 85 86 85
88 85 88 91 91 89 88 85 82 79 79 85 84 79 78 77 78 79 79 78 77 78 76 77 78 77 75 73 74 74 76 75 77 76 76 77 79 79 80 80 79 80 80 81 79 78 80 78 79
89 88 88 90 91 87 86 85 85 83 84 86 86 80 80 80 79 79 80 79 78 78 79 80 81 80 78 75 75 74 74 73 74 74 76 78 79 80 78 80 80 80 77 76 75 74 73 72 72
87 88 88 86 86 86 87 85 84 80 84 85 86 85 82 78 81 82 79 80 79 78 76 75 76 75 73 72 72 74 72 72 74 74 74 77 77 79 78 79 77 75 72 71 71 72 72 71 72
88 87 87 86 88 86 86 83 77 80 84 81 82 81 79 81 78 78 81 80 78 77 78 74 71 69 68 71 71 71 72 73 73 74 75 77 75 77 75 73 71 70 69 69 70 70 69 70 71
84 84 84 88 89 87 85 74 77 82 81 79 80 79 75 74 78 79 78 77 78 74 72 71 68 68 68 71 71 71 70 71 72 70 70 71 72 71 72 71 70 69 68 69 69 69 68 67 67
82 80 81 83 82 83 78 73 79 77 76 75 75 73 74 74 70 69 75 74 73 72 70 68 72 70 70 70 68 69 65 65 66 64 63 63 64 66 66 65 65 67 67 67 68 67 67 66 66
83 83 81 79 78 75 70 68 76 76 74 72 72 72 72 71 70 70 72 73 72 73 73 71 70 71 73 71 68 70 65 65 63 63 61 61 59 61 59 60 62 64 63 65 66 66 66 65 65
85 81 77 76 76 73 72 69 75 79 73 71 72 73 72 71 74 73 75 77 77 76 74 73 72 74 76 72 69 67 68 64 63 61 61 63 62 61 57 55 58 56 58 62 64 65 64 63 64
86 79 78 79 77 72 72 69 73 76 74 73 74 75 77 77 77 77 79 79 79 82 81 80 80 80 72 71 72 69 71 65 64 63 61 65 67 62 57 57 55 54 56 59 61 64 63 63 65
90 85 82 80 75 72 74 71 70 74 74 73 75 76 77 79 80 80 81 82 83 84 84 85 86 81 76 69 66 70 69 64 62 63 62 66 70 59 58 62 60 56 56 59 60 58 60 62 64
90 88 86 85 80 74 72 69 74 74 77 77 80 80 80 83 85 86 87 89 88 87 89 90 88 83 79 73 67 69 73 73 70 68 66 65 70 68 63 59 57 56 60 58 56 59 61 66 67
88 85 85 87 86 83 83 76 79 81 82 83 84 84 85 87 88 91 93 93 93 92 92 89 88 86 83 78 74 71 71 75 75 73 71 65 59 60 62 63 62 63 63 62 56 61 66 69 67
81 84 85 82 83 81 86 84 78 84 87 87 88 91 91 92 93 93 93 94 94 94 93 91 89 89 88 88 83 78 75 75 76 76 77 71 68 61 67 68 69 68 70 66 65 70 69 71 70
73 78 80 79 80 81 84 83 85 85 89 90 92 93 93 94 96 97 96 93 93 94 95 95 95 94 94 93 90 85 81 80 79 80 82 80 73 64 68 72 71 72 71 68 72 72 69 72 73
68 67 68 70 73 73 74 75 82 86 88 89 91 92 94 95 97 98 97 97 98 99 99 99 101 101 101 98 93 90 86 83 81 79 85 83 76 69 70 73 72 71 72 74 71 70 68 72 75
69 66 70 71 72 72 74 75 78 80 81 82 84 86 88 89 91 94 96 97 98 100 101 103 104 104 103 101 100 97 92 88 85 84 85 83 80 76 73 71 70 69 69 70 70 70 70 73 75
60 61 62 63 62 64 65 69 79 79 76 75 77 80 83 86 89 93 94 96 101 104 107 108 106 102 98 96 94 93 90 87 86 84 82 76 69 68 69 71 68 69 66 69 70 72 73 74 73
55 56 55 53 53 53 54 57 63 66 68 71 75 77 82 86 87 90 93 98 101 103 105 105 103 98 96 95 93 93 92 88 81 73 69 66 62 62 65 69 67 66 67 68 72 74 73 72 74
53 52 53 49 50 53 51 61 59 62 64 66 67 73 76 79 83 87 88 88 91 95 98 101 101 100 98 91 90 85 82 77 71 69 68 67 64 61 61 64 67 66 67 70 72 71 69 71 71

GFSSGP_250_spd_051.txt.gz
Wind_Speed
76 74 70 66 62 58 57 54 53 51 50 48 47 46 43 41 39 37 39 39 39 39 38 36 37 35 34 34 35 36 36 37 36 36 36 37 37 38 39 39 40 41 42 41 41 41 41 41 42
78 78 74 70 65 65 64 57 55 53 51 50 48 45 48 47 45 42 43 43 44 43 43 42 41 42 42 40 40 39 40 43 44 44 44 43 43 43 43 44 46 46 46 47 47 46 46 47 48
82 81 78 73 70 72 70 62 57 57 54 53 49 48 50 49 49 48 48 46 46 48 48 48 48 47 47 46 46 46 46 46 45 46 47 46 47 49 50 50 50 50 51 51 50 51 52 53 55
84 84 80 74 73 76 73 66 64 60 58 56 54 50 51 52 52 51 51 51 50 51 51 51 52 52 51 51 51 51 52 52 51 51 50 51 52 51 52 53 52 52 53 54 57 59 59 59 59
84 83 82 77 77 80 76 68 66 63 62 60 57 53 53 53 54 54 54 52 51 52 53 53 54 54 55 55 55 56 56 55 55 55 55 56 56 56 56 56 56 56 56 58 60 61 63 65 68
83 81 78 81 83 84 79 72 69 67 67 64 59 55 54 54 55 54 55 53 53 53 53 55 54 55 55 56 57 59 58 58 58 58 58 58 60 61 61 61 62 64 67 71 73 72 72 72 73
84 82 79 80 85 87 85 76 74 73 70 68 62 57 56 60 60 59 57 56 55 56 56 55 55 55 55 56 57 58 58 58 59 60 61 62 64 65 67 69 71 72 71 71 72 73 74 74 75
88 85 82 81 83 86 84 79 73 71 72 70 64 60 61 62 63 62 60 58 58 58 59 59 59 59 60 60 61 62 61 62 63 65 65 66 67 69 69 70 72 73 74 74 74 74 75 77 78
92 88 82 82 84 89 85 79 75 74 72 71 66 65 65 63 65 64 64 63 62 62 62 61 62 63 63 63 63 63 64 64 65 66 67 69 70 71 72 74 75 76 76 77 78 79 79 79 80
94 86 85 89 90 91 85 80 76 73 73 71 71 70 70 66 67 67 68 67 67 66 64 64 64 66 65 67 65 66 68 70 72 73 73 75 76 75 76 79 79 79 80 79 81 82 83 82 84
95 89 91 93 95 95 87 83 77 74 73 74 74 72 71 69 68 70 71 69 68 67 69 69 70 68 67 68 71 71 72 73 73 75 77 77 77 77 77 79 81 81 82 82 84 85 85 86 84
96 96 94 97 96 94 88 82 79 77 78 78 79 77 75 72 72 74 75 73 72 72 73 73 73 73 74 75 76 75 75 75 78 80 82 81 80 80 82 83 84 84 85 85 85 86 85 85 83
95 94 97 99 98 93 87 84 85 83 83 81 82 78 75 74 76 77 78 78 78 76 74 75 75 75 75 76 76 77 78 80 82 81 80 81 82 79 79 82 82 82 85 84 86 85 84 83 84
96 93 95 97 96 94 92 87 85 85 85 83 84 82 80 78 80 82 81 81 80 80 79 79 79 80 79 79 77 79 79 79 78 78 75 76 77 78 78 79 80 81 83 85 84 81 83 84 82
96 93 91 90 92 91 92 88 82 84 84 83 83 84 82 81 81 83 84 84 85 85 83 83 84 82 82 81 79 79 76 76 76 74 73 76 75 75 77 78 78 80 79 78 79 79 78 78 76
98 95 93 90 91 90 89 79 82 84 87 82 81 82 84 83 82 80 83 84 85 82 80 83 84 82 76 76 75 72 75 68 70 73 73 73 72 73 74 74 74 72 70 71 70 70 71 70 72
94 93 92 96 93 88 82 77 83 84 84 79 79 83 85 83 81 82 85 87 86 83 81 79 79 77 77 76 72 66 66 64 69 65 68 69 68 70 71 69 68 69 65 64 64 64 65 66 67
90 91 93 94 92 88 85 79 85 84 83 81 80 80 82 83 82 86 85 85 84 83 82 81 78 76 80 79 74 69 71 67 72 69 71 69 73 73 71 67 65 64 64 62 61 63 62 62 61
92 89 87 88 89 88 86 81 83 87 82 80 80 80 80 81 84 82 81 82 83 82 79 79 78 75 74 74 73 73 74 73 70 72 70 67 73 73 74 71 64 61 63 63 61 61 62 62 61
93 87 84 83 83 82 82 77 80 81 80 78 77 79 82 79 81 82 81 79 77 78 78 75 76 79 76 76 78 78 79 76 75 76 75 73 72 74 72 68 65 64 66 65 64 64 68 70 66
93 88 88 86 83 80 78 75 76 78 78 77 77 77 77 77 79 81 79 77 78 79 82 81 80 80 80 80 81 82 83 82 80 78 76 71 67 66 67 64 64 64 65 67 69 70 69 66 63
99 92 89 86 81 77 78 74 78 76 77 78 79 78 75 76 76 77 78 77 78 79 80 82 85 85 84 84 83 84 86 86 85 84 81 76 74 76 73 70 69 70 71 71 68 67 74 70 69
96 98 96 90 84 81 78 73 82 79 78 78 79 79 79 79 79 80 81 82 83 84 85 87 89 91 93 92 91 92 91 89 88 88 86 82 77 72 76 72 71 72 72 70 68 70 72 74 74
88 95 96 95 92 84 81 77 79 81 80 80 85 85 82 82 83 82 84 86 89 91 93 95 94 94 96 99 99 97 97 95 92 90 87 82 82 75 71 72 75 75 74 74 75 77 78 78 76
77 84 90 90 88 87 87 83 84 85 85 85 86 86 87 86 87 87 89 92 95 97 98 99 100 102 104 104 103 102 98 96 93 88 87 83 80 82 82 81 79 77 79 80 79 78 81 81 82
69 66 75 82 85 87 87 87 90 89 88 88 90 91 91 92 93 95 97 99 101 103 104 105 107 109 110 110 109 108 103 98 94 90 87 88 86 85 86 84 80 78 79 80 80 83 79 83 84
65 61 63 66 71 77 83 87 88 90 93 92 92 95 97 99 101 103 104 106 107 108 109 108 108 108 107 108 107 105 101 98 96 95 93 90 87 85 85 89 88 83 80 82 81 80 80 80 77
64 62 58 60 60 64 69 78 85 85 84 85 87 89 91 92 93 93 94 94 97 100 102 103 106 107 109 110 108 106 103 100 98 96 93 91 92 93 91 89 87 83 81 80 81 81 79 77 75
57 59 65 64 59 59 62 70 72 75 76 76 77 78 78 77 78 81 87 92 95 98 101 102 105 107 107 107 106 104 103 102 100 97 93 89 88 88 86 82 82 82 80 75 73 75 73 70 71
53 52 53 59 66 63 61 66 64 63 64 64 66 66 62 65 70 75 82 88 92 96 97 97 99 101 98 96 97 98 101 99 95 91 85 80 78 76 72 74 72 68 67 64 64 65 64 64 68

GFSSGP_250_spd_054.txt.gz
Wind_Speed
76 73 71 66 61 59 58 59 56 51 49 47 45 43 43 40 37 36 39 36 36 36 37 37 35 35 35 34 33 32 33 34 35 34 34 35 35 36 37 37 37 38 41 42 42 43 44 45 45
80 77 75 71 65 64 62 59 59 54 52 49 48 44 47 45 42 40 38 38 39 41 39 39 37 37 37 37 36 35 37 38 37 37 39 41 42 43 43 44 44 46 48 48 48 47 48 48 48
86 82 79 73 70 70 68 63 59 58 56 53 50 49 46 47 47 46 44 44 41 41 41 42 42 42 42 42 42 43 44 42 42 43 43 44 45 46 47 48 48 48 50 50 50 50 50 51 51
89 85 82 77 76 76 73 67 65 62 57 55 51 50 49 47 46 47 48 49 47 46 45 44 44 45 46 48 48 48 49 48 48 49 49 51 51 51 51 50 50 53 52 52 53 52 53 55 57
92 90 84 80 79 81 78 72 69 66 61 57 54 53 50 49 49 48 48 50 52 51 50 50 50 49 49 51 53 53 53 53 52 53 54 54 54 55 55 54 53 54 56 57 58 60 61 63 67
91 90 85 76 81 84 81 77 74 71 66 63 60 57 54 52 53 53 52 51 52 52 53 53 52 52 52 53 53 54 55 55 55 55 56 57 57 57 57 57 57 57 59 61 62 64 65 67 69
91 86 81 80 81 84 85 78 76 74 71 69 67 63 61 59 57 58 58 57 55 54 54 53 53 52 53 53 53 54 55 55 56 56 56 57 57 58 58 59 61 61 61 63 64 66 68 70 70
92 90 83 79 81 83 84 81 76 74 74 73 69 66 65 64 63 61 61 59 58 58 57 55 55 55 55 55 55 56 57 57 59 60 59 60 60 60 61 61 63 66 68 69 71 69 71 73 74
95 90 83 80 82 84 83 81 78 74 75 75 71 70 68 67 68 65 63 62 60 58 58 58 58 58 58 58 59 58 58 60 60 61 62 61 61 63 65 67 67 69 70 71 73 72 74 76 78
98 91 86 86 86 87 85 82 79 75 76 76 72 73 71 70 69 68 66 64 62 60 60 61 62 61 61 62 62 61 62 62 64 64 64 65 66 68 69 70 71 73 75 75 75 77 79 79 80
97 92 90 90 89 90 87 82 80 77 75 74 74 75 73 71 69 69 69 68 67 64 64 63 63 63 64 64 64 64 65 66 67 68 70 70 71 72 72 73 77 78 78 78 78 79 79 81 83
102 97 95 95 93 91 89 83 78 76 77 77 76 75 73 72 71 70 71 70 70 68 67 69 67 66 67 66 66 67 67 68 69 71 71 73 75 76 76 78 80 81 80 80 80 80 82 85 84
105 101 99 100 97 93 91 85 82 78 79 78 78 76 75 74 73 72 72 72 73 72 70 71 69 70 70 70 72 72 72 73 73 74 76 78 78 78 81 81 81 81 80 81 82 83 83 84 84
107 105 102 102 100 95 92 89 83 83 83 81 80 79 76 74 74 72 74 77 78 77 76 71 71 72 74 74 74 74 74 74 76 79 80 80 80 81 81 82 82 81 82 82 81 81 80 83 83
103 105 104 100 100 98 94 91 85 89 85 82 82 81 79 78 77 78 78 81 83 81 78 76 76 76 77 76 79 79 79 79 79 80 79 80 79 82 80 80 77 76 77 75 73 75 75 77 76
105 103 100 101 98 97 97 92 90 89 88 87 84 83 81 80 81 81 82 84 87 85 83 80 78 77 80 80 82 81 79 80 81 79 79 78 76 76 72 72 70 70 70 69 72 73 74 73 71
107 102 99 100 102 96 94 90 92 91 90 89 86 86 85 83 82 84 87 85 86 87 85 83 83 83 84 84 82 82 78 78 78 75 76 77 73 72 71 73 73 70 71 71 75 76 74 68 65
101 99 100 101 100 97 93 87 89 88 89 87 86 86 87 87 86 85 83 83 84 85 85 84 84 85 86 85 84 83 81 79 74 78 74 75 72 73 73 72 73 73 71 72 75 74 71 67 65
103 100 102 101 96 93 91 84 87 90 85 85 86 86 82 82 84 84 83 82 82 84 84 84 83 83 84 84 83 84 82 82 73 74 69 68 69 73 74 74 74 75 77 75 72 72 69 67 66
99 98 93 95 96 92 88 84 87 90 87 85 84 83 83 81 80 82 81 80 80 81 82 83 85 84 83 84 83 80 77 73 73 73 73 75 72 76 78 76 77 79 79 75 73 72 68 67 68
97 97 98 96 92 89 87 85 87 91 88 88 87 85 83 83 84 83 81 81 80 80 83 85 84 83 81 81 81 79 79 79 81 80 80 82 83 74 75 79 81 82 77 76 76 78 78 77 76
103 96 96 95 90 84 82 80 86 86 87 87 86 85 85 85 84 85 84 82 81 82 84 83 84 84 84 82 79 80 81 82 85 86 85 86 84 84 77 81 81 81 78 77 77 80 78 78 78
106 102 94 94 91 87 82 78 87 83 82 83 85 84 83 82 81 81 81 80 79 80 81 82 82 83 85 86 85 85 86 87 87 90 92 91 91 90 87 87 86 82 80 79 77 77 76 76 76
104 102 98 92 88 84 83 82 81 84 83 82 82 81 81 80 80 80 80 82 83 84 85 86 86 88 90 91 93 93 92 92 92 94 95 95 96 96 95 91 88 84 79 78 80 80 80 78 80
87 99 101 99 92 85 88 88 82 85 83 82 83 81 80 80 80 81 82 83 85 87 88 91 93 94 95 95 97 97 97 98 97 98 99 100 100 99 97 96 93 87 82 77 80 81 82 83 81
75 76 85 99 98 96 92 87 86 89 89 87 86 85 83 84 83 83 85 88 90 92 94 97 99 100 102 103 105 105 105 105 104 104 104 103 105 104 99 95 91 84 87 82 81 82 84 83 81
70 72 75 76 86 96 96 98 96 93 91 88 86 84 86 89 90 90 91 92 94 97 100 102 105 107 109 111 113 114 114 114 114 113 113 112 109 103 96 95 89 88 86 87 85 84 82 84 88
64 65 66 69 71 73 79 88 93 94 94 92 90 93 95 94 93 96 99 101 102 104 107 111 115 118 120 122 123 124 122 120 117 113 110 105 100 95 94 93 92 90 87 87 86 87 87 84 82
57 58 58 60 63 68 71 71 72 75 81 86 88 90 89 92 96 98 98 99 101 103 103 104 106 108 109 110 111 111 109 106 103 102 100 97 97 96 95 91 88 89 89 90 88 84 84 81 82
59 61 60 58 57 60 61 62 60 58 60 65 71 74 78 83 85 87 89 90 90 90 91 93 96 97 98 100 103 106 103 99 97 95 93 93 93 92 91 90 90 89 88 86 81 80 76 74 72

GFSSGP_250_spd_057.txt.gz
Wind_Speed
78 75 71 68 62 59 57 55 51 49 46 45 40 40 40 38 36 34 37 32 33 35 34 36 35 35 35 34 34 33 32 32 34 33 31 32 33 34 34 35 35 37 38 40 41 42 43 46 48
82 80 76 71 66 64 64 59 55 52 49 49 45 41 43 40 38 38 39 35 35 37 36 35 36 37 38 37 36 35 34 33 32 32 34 36 37 37 38 40 41 43 45 47 46 46 46 48 48
84 83 79 73 70 70 71 64 59 58 55 52 49 45 45 43 42 41 41 39 39 40 39 38 37 39 39 38 36 36 36 36 38 40 40 39 41 43 44 45 45 46 47 47 47 47 50 49 49
89 85 81 75 75 77 74 68 65 63 59 56 55 50 48 48 45 46 47 45 42 41 40 40 39 39 40 41 41 41 42 42 44 46 46 46 48 48 49 49 50 50 51 52 52 51 51 52 53
94 89 83 77 79 81 77 72 68 65 61 60 60 56 52 50 49 48 49 50 48 47 47 46 44 42 42 43 43 43 45 47 48 49 50 52 52 52 53 53 53 53 54 53 52 53 54 54 55
93 93 86 81 83 84 80 76 73 69 64 60 61 59 55 54 53 52 50 49 50 50 49 50 50 49 49 49 50 50 50 51 51 52 53 54 55 55 55 55 55 54 53 54 54 55 56 58 60
93 92 90 89 88 88 84 78 76 72 69 65 63 62 61 58 55 53 52 53 51 50 50 50 51 50 52 53 53 53 53 54 54 54 54 56 55 55 56 56 57 57 57 56 56 59 61 61 63
96 92 92 88 93 92 87 81 79 75 73 70 69 67 66 63 59 58 56 55 53 51 50 52 53 54 53 54 54 53 53 52 53 56 57 58 60 60 58 57 57 56 58 59 62 63 65 66 69
99 93 84 83 87 90 92 88 84 80 78 77 74 73 71 69 66 64 62 61 59 57 54 55 56 56 56 57 58 57 56 56 56 57 58 58 59 60 58 58 59 60 62 64 64 67 68 69 72
101 94 89 89 87 89 92 91 87 82 80 80 78 76 76 74 70 70 69 67 65 62 59 60 59 58 59 59 59 58 59 59 59 61 62 62 61 61 61 62 63 64 65 67 69 70 72 74 75
102 96 95 93 91 92 89 89 89 83 81 81 78 76 76 77 74 73 71 70 69 64 64 64 64 62 62 62 61 63 62 63 64 64 62 63 62 63 65 65 66 68 69 72 73 74 76 77 78
105 99 98 97 94 94 91 86 87 82 79 79 79 79 78 78 76 75 74 72 70 69 66 63 63 64 63 63 64 65 64 65 65 65 65 67 67 68 70 70 70 73 74 76 76 77 78 79 79
109 104 101 102 98 95 92 88 84 83 80 76 77 77 78 77 76 75 74 74 73 72 68 66 65 65 64 65 66 67 67 67 67 67 70 70 70 72 74 75 75 76 76 78 78 79 78 78 78
113 109 106 106 102 99 94 90 85 80 81 80 77 76 77 77 77 76 76 74 74 74 73 71 70 69 67 67 69 69 68 68 69 72 73 75 76 77 78 79 78 77 79 78 79 78 76 74 74
116 112 109 107 104 100 96 92 85 88 84 80 80 78 75 76 76 77 77 76 75 75 75 74 71 69 69 70 71 72 73 72 73 75 76 79 82 81 81 81 80 79 76 78 76 76 75 72 73
114 113 109 108 104 100 99 93 90 89 85 84 82 81 78 78 79 79 79 78 77 76 75 74 73 73 73 74 75 74 75 78 78 80 81 82 83 82 81 79 77 77 76 75 74 73 73 72 71
113 110 108 107 105 103 100 95 94 92 89 88 86 84 83 81 82 83 83 80 79 77 77 78 77 77 77 77 78 76 76 81 81 79 80 82 81 81 81 78 76 74 72 71 70 70 72 72 70
105 103 105 106 105 104 101 98 98 95 92 91 90 89 88 87 86 83 81 81 81 79 79 80 79 80 80 79 79 80 81 81 81 82 80 79 80 79 76 74 73 70 69 70 70 70 74 73 70
107 108 106 107 105 101 99 95 96 96 96 95 94 93 90 87 88 86 84 84 82 82 82 83 82 81 82 81 80 80 81 82 81 82 82 80 80 74 72 70 70 68 68 69 71 73 74 75 75
116 109 105 103 103 101 98 93 95 97 96 94 92 92 92 89 88 90 88 85 82 81 80 79 81 82 82 80 79 80 82 82 82 82 83 81 81 80 79 77 77 75 77 78 77 79 78 75 76
112 109 104 101 99 100 97 94 94 96 94 88 90 90 91 91 92 89 86 83 81 80 80 80 80 81 80 81 81 80 82 83 84 85 85 84 82 82 80 77 77 78 79 79 78 77 78 80 84
108 113 107 103 100 95 94 92 99 95 92 90 88 88 87 87 87 87 89 87 84 82 81 80 81 83 83 84 84 85 84 84 85 85 86 85 83 83 81 77 76 76 81 82 85 85 84 86 84
99 107 110 106 97 96 91 89 96 93 91 89 90 89 86 84 84 84 85 84 83 83 83 85 87 87 88 89 87 86 84 85 87 87 88 89 88 89 89 88 85 86 84 84 86 87 87 87 89
94 101 108 102 101 93 90 88 89 89 87 89 88 86 84 82 81 82 84 84 84 84 85 87 89 89 89 90 90 90 91 91 92 92 93 95 94 94 94 94 93 90 89 89 89 89 88 89 86
83 85 95 103 101 93 93 89 88 87 85 85 84 82 82 82 83 83 81 82 83 85 86 87 87 88 89 91 93 95 96 97 97 97 98 99 99 99 97 98 94 94 93 94 95 92 83 82 81
72 77 83 92 99 102 95 92 90 92 90 86 82 81 80 81 83 84 84 84 85 85 85 87 90 93 95 97 98 98 99 100 101 103 103 103 103 104 104 103 103 102 100 97 95 89 76 84 87
66 70 74 80 90 95 97 95 91 91 90 88 85 84 84 83 82 82 84 86 87 89 92 94 96 98 99 101 104 106 107 109 110 110 110 110 109 111 111 111 110 110 108 105 102 94 89 91 89
61 63 67 71 75 84 94 94 96 93 90 85 85 88 89 89 88 88 88 90 92 93 95 96 99 102 105 109 111 113 115 117 119 120 119 119 119 120 120 119 115 111 107 102 96 91 87 88 89
60 62 61 60 62 68 73 81 92 94 91 92 93 93 92 92 90 90 91 93 96 98 100 104 108 112 114 114 115 116 117 115 112 110 109 108 108 106 107 108 106 103 98 95 93 91 90 91 91
52 57 59 58 58 62 66 66 66 68 75 85 95 100 100 99 100 99 99 100 102 104 105 105 105 103 101 100 102 104 103 103 103 103 101 100 99 99 98 95 94 93 93 93 92 91 90 89 90

GFSSGP_250_spd_060.txt.gz
Wind_Speed
76 73 70 68 67 64 61 60 58 54 50 46 45 44 42 41 39 38 36 35 36 35 33 32 32 31 30 30 31 33 33 31 29 29 29 29 29 27 29 31 32 33 35 36 38 41 43 44 45
81 78 73 70 68 67 64 61 59 57 52 49 47 45 43 40 39 39 39 37 36 35 34 33 32 32 33 33 34 35 34 35 35 33 32 31 30 30 33 36 37 37 39 41 42 43 44 45 45
85 81 78 71 70 70 69 63 58 58 55 51 51 47 45 43 41 41 41 36 35 36 34 34 34 35 37 37 37 37 37 36 35 34 33 33 34 37 39 40 41 43 46 48 48 49 49 50 49
89 85 80 76 75 76 72 66 64 61 58 54 51 51 47 45 45 44 43 40 38 38 38 37 36 37 37 36 37 38 37 36 37 37 38 39 41 44 44 45 47 49 50 50 51 51 51 49 48
94 88 84 79 80 80 75 69 67 64 60 58 55 54 52 49 47 47 46 44 42 42 43 41 40 39 39 39 38 38 40 40 41 42 44 46 47 48 49 50 51 51 52 52 52 52 53 52 52
97 93 86 85 86 84 79 75 71 69 66 63 61 59 57 55 53 51 49 48 47 47 47 47 45 43 42 41 42 42 42 43 44 45 47 48 49 50 51 53 53 54 55 55 54 55 54 55 54
98 93 90 88 92 91 85 80 77 74 71 68 66 64 61 60 58 54 53 53 52 50 50 51 50 49 47 47 47 48 48 49 50 51 51 51 52 53 54 54 56 56 58 58 59 57 57 57 58
100 97 93 90 92 92 88 84 82 78 75 73 71 68 66 65 61 60 56 56 55 54 52 50 51 50 50 50 49 49 50 51 51 53 55 55 55 55 55 57 59 59 60 59 59 60 60 60 62
103 101 93 89 91 94 92 88 85 81 79 77 75 73 69 67 64 62 60 58 57 55 53 52 52 51 50 50 48 49 51 53 54 55 58 59 60 59 58 58 60 62 63 62 62 62 62 63 65
105 102 93 91 92 94 96 92 89 85 83 81 80 78 75 71 68 64 63 63 60 58 57 56 55 54 54 54 52 52 55 56 57 58 60 61 60 61 61 62 64 65 65 65 65 66 67 67 69
104 97 97 94 96 94 96 94 91 88 85 83 82 81 79 76 73 70 69 67 66 64 63 61 61 60 60 59 59 59 59 60 61 60 62 64 64 65 66 66 66 65 65 66 66 69 70 72 72
106 102 100 100 98 97 94 97 94 91 88 85 83 81 80 80 76 75 74 73 72 71 69 67 67 66 66 65 63 63 62 61 63 62 62 64 65 66 67 68 68 67 67 70 71 73 74 75 76
109 106 103 103 102 100 94 93 97 94 92 88 86 84 84 83 82 79 78 78 77 75 73 72 72 72 70 70 68 66 65 64 65 65 66 66 67 68 68 69 70 70 71 75 77 77 78 78 78
114 110 108 106 105 102 99 93 91 94 94 91 88 87 86 86 84 82 80 80 79 77 75 74 74 73 73 72 70 70 70 71 70 68 67 68 70 70 71 71 74 75 76 79 79 78 78 77 77
118 115 113 109 106 103 100 96 89 93 92 84 83 81 80 80 81 82 83 82 81 79 77 77 75 73 72 72 72 72 72 70 70 69 70 72 75 75 75 74 77 80 81 81 80 78 77 76 75
124 120 116 114 110 105 101 96 95 96 89 86 84 83 81 80 79 82 81 81 78 75 74 73 74 74 73 72 72 72 71 72 73 74 74 77 79 80 79 79 80 80 80 78 78 78 76 73 74
127 122 119 116 111 108 103 99 96 95 94 93 88 85 84 83 80 81 78 76 74 73 71 71 72 73 74 75 74 74 75 76 79 80 80 80 81 81 80 79 79 79 78 79 78 77 72 69 72
123 120 120 119 114 110 107 103 101 97 94 94 92 91 87 81 78 78 76 76 76 76 76 76 76 77 78 78 77 78 80 81 82 83 84 84 84 83 81 82 82 80 79 78 76 72 71 73 73
125 120 120 122 119 113 109 105 103 101 98 97 94 90 87 84 83 80 79 78 79 79 79 80 80 81 81 81 81 82 83 84 84 84 84 83 83 83 83 84 83 82 80 80 78 76 76 75 75
126 125 119 120 118 116 109 105 103 103 101 99 96 94 92 89 87 86 84 82 83 84 83 83 83 85 86 86 85 84 84 82 82 83 82 84 84 83 84 83 85 85 85 82 80 76 74 75 77
118 126 123 116 116 115 113 110 106 104 103 101 100 97 95 93 91 89 89 88 86 86 86 86 87 86 85 87 88 86 84 82 83 83 84 85 86 85 86 87 87 85 85 83 83 75 76 77 80
114 116 124 119 113 110 113 113 108 106 104 101 98 97 95 94 94 93 90 90 90 90 91 90 87 86 87 87 87 87 86 84 84 86 89 91 91 90 89 89 87 85 86 84 84 80 82 81 82
108 112 115 122 116 109 104 109 110 109 106 102 99 94 92 92 97 96 95 93 89 88 87 86 87 87 87 88 89 89 89 90 91 91 92 95 95 95 93 91 90 88 87 86 86 87 86 89 87
99 105 109 113 119 109 105 101 103 104 105 103 101 99 98 97 95 94 92 89 86 86 84 86 85 87 88 88 88 90 91 93 94 95 96 98 98 97 97 96 95 96 95 94 93 92 91 91 88
93 97 100 103 111 113 100 100 98 95 96 98 97 96 95 93 91 88 88 89 91 92 90 88 86 85 87 87 90 91 93 94 95 99 98 98 98 100 101 102 101 100 99 97 95 92 91 92 93
80 87 91 95 99 103 116 98 98 97 96 95 94 91 89 88 88 89 88 88 87 87 87 87 87 87 88 90 92 94 96 98 99 100 101 102 104 105 106 106 107 106 105 103 101 100 99 99 98
69 79 85 91 94 94 96 111 105 90 93 93 91 91 92 93 94 91 89 90 90 88 87 86 87 89 92 93 95 97 99 102 104 106 107 109 110 110 111 111 112 113 113 111 110 109 107 105 102
60 65 69 79 86 86 88 92 100 108 99 91 88 89 90 90 90 89 87 86 85 87 87 88 90 90 92 95 97 100 103 107 110 114 116 118 119 119 119 121 124 124 124 122 120 119 117 113 109
50 55 61 66 71 75 77 83 89 93 99 102 100 98 94 92 91 89 89 90 91 90 91 91 92 96 98 100 103 106 111 117 120 123 124 122 119 117 115 115 115 116 116 116 117 115 112 107 99
43 47 53 58 62 66 70 74 79 82 87 93 96 95 95 95 94 95 94 94 93 93 93 96 100 102 103 104 110 113 108 108 109 108 107 106 105 105 104 104 104 104 105 105 105 104 102 99 94

GFSSGP_250_spd_063.txt.gz
Wind_Speed
78 79 76 73 69 67 66 65 63 61 58 52 51 47 44 43 41 38 37 37 37 37 36 36 35 34 34 31 31 30 29 29 27 29 29 27 27 28 29 30 28 26 28 33 35 36 38 41 43
79 81 79 76 73 71 69 68 66 63 60 58 54 50 47 44 43 41 40 37 36 38 38 37 36 35 34 31 31 30 30 29 30 31 32 31 32 32 31 31 29 31 34 36 38 41 44 46 48
83 83 81 78 75 73 73 69 66 63 63 60 57 53 50 47 47 43 41 39 37 37 38 37 36 33 32 33 33 31 31 32 32 33 35 33 33 33 32 33 35 38 41 41 44 46 48 49 49
87 86 84 77 76 77 76 71 68 68 65 62 59 55 53 51 48 45 43 41 41 40 39 38 38 36 36 35 32 33 33 34 35 35 36 35 34 35 37 40 42 45 47 48 48 49 50 52 51
90 88 85 81 80 80 76 73 70 69 67 63 61 57 55 54 51 48 45 44 43 42 40 39 38 36 35 34 34 35 35 35 36 37 37 38 41 41 42 44 45 46 48 49 50 52 53 53 54
94 90 89 84 83 83 79 76 74 71 68 66 65 61 56 56 54 52 48 45 43 43 42 40 38 37 37 38 37 37 38 38 37 38 40 42 43 44 46 49 50 51 52 52 53 54 55 57 58
92 92 91 89 89 87 83 79 78 75 71 69 65 66 58 57 57 53 50 47 46 45 44 42 41 40 41 42 42 42 41 41 43 44 44 45 47 49 50 51 53 55 55 56 56 58 59 60 62
95 96 96 93 92 90 89 81 82 78 76 69 71 68 63 60 60 58 55 51 48 46 46 46 45 46 46 47 48 48 47 46 45 46 47 47 49 51 52 53 55 57 59 59 61 62 62 64 65
98 97 95 93 93 94 93 84 84 82 77 76 72 67 68 66 63 61 60 56 53 51 50 51 50 50 50 49 49 49 49 50 49 47 47 50 51 53 54 55 57 59 61 62 64 65 67 66 65
103 96 94 98 98 99 95 91 88 86 82 79 76 72 71 70 67 65 64 60 58 57 56 55 54 54 54 53 53 52 52 51 51 51 53 54 56 57 58 59 60 61 63 64 67 67 67 66 65
106 96 98 105 99 97 94 97 91 89 85 83 80 75 75 75 72 70 68 66 64 62 60 59 58 57 56 55 55 56 56 57 58 58 59 61 61 60 60 63 64 65 65 67 67 66 67 68 68
108 103 105 101 99 100 100 100 94 93 91 85 81 82 79 78 77 75 72 70 69 66 63 61 61 61 60 61 61 62 62 63 63 62 65 66 65 64 65 66 68 70 70 68 68 69 69 71 73
114 109 104 101 104 102 100 100 99 95 90 89 89 87 84 82 81 79 76 76 74 71 68 66 65 65 66 66 67 68 68 68 68 70 69 69 70 70 70 72 72 72 70 69 70 72 73 76 77
117 112 107 104 105 105 102 100 101 98 93 92 90 90 88 86 85 82 80 80 78 76 73 71 71 70 72 72 73 71 72 73 73 74 74 74 73 73 73 74 75 73 72 73 75 78 79 78 76
121 119 112 108 109 105 103 100 98 99 97 95 91 89 89 89 87 86 85 83 83 80 77 76 75 75 76 77 76 76 76 76 76 75 74 74 75 75 74 74 74 75 76 77 79 80 80 79 76
123 124 118 112 112 109 104 98 99 102 99 94 91 90 89 89 89 88 86 84 82 81 80 78 78 77 77 77 77 78 79 77 76 76 76 77 75 75 75 76 78 78 80 81 81 81 79 78 76
129 123 120 116 113 111 107 104 99 97 98 96 92 90 89 89 89 89 86 84 82 80 79 79 78 78 78 78 77 76 76 75 77 76 77 76 78 79 79 81 83 83 83 82 82 80 77 77 77
125 122 121 118 115 111 108 103 97 98 99 97 94 92 87 85 83 83 80 79 80 79 78 76 75 75 75 76 75 76 77 78 77 78 80 80 82 84 85 85 86 87 84 80 81 80 80 80 80
131 127 123 122 117 114 109 107 103 101 99 99 98 94 91 87 83 81 80 78 77 77 77 77 75 73 76 76 76 79 79 79 79 82 85 86 87 87 88 87 87 85 85 84 83 83 82 83 83
128 127 120 122 119 117 114 109 106 106 102 98 96 96 91 89 89 87 86 85 84 83 83 82 83 82 82 82 81 80 83 84 85 87 87 87 88 90 89 88 89 87 86 85 86 88 87 86 87
123 128 124 121 119 118 114 112 111 108 105 101 98 96 93 90 89 88 87 86 85 84 83 82 82 82 82 83 85 85 90 90 92 94 93 94 93 92 92 92 92 93 91 91 91 90 91 90 88
117 127 124 122 119 121 119 117 113 110 109 106 104 100 95 93 92 91 90 87 85 85 86 86 86 87 89 91 92 93 93 96 97 99 97 98 98 95 96 96 96 94 93 94 93 94 94 93 88
110 122 127 124 124 118 118 120 115 112 112 110 107 105 103 101 98 96 94 92 92 91 91 91 91 92 93 94 94 95 96 97 97 100 101 101 102 103 100 98 97 97 96 95 96 95 96 94 95
104 114 125 127 126 124 121 120 117 118 115 112 111 109 107 103 102 101 99 97 96 96 95 95 95 93 94 96 98 98 99 100 98 99 100 101 99 98 100 102 102 100 99 99 100 101 99 99 98
93 106 114 124 128 123 121 121 119 118 118 118 114 112 110 108 105 102 100 97 96 96 95 94 96 96 96 97 98 100 100 101 99 99 99 98 99 99 101 103 105 106 107 105 104 103 102 102 100
85 96 104 110 114 118 119 121 116 115 116 117 117 116 114 111 108 107 105 104 103 101 99 97 98 98 99 99 100 99 103 101 100 101 99 99 101 102 103 105 108 110 112 113 113 110 108 107 106
75 82 92 99 103 108 114 117 120 114 112 111 113 114 113 113 112 112 110 108 107 106 106 104 102 102 104 105 105 101 99 100 98 98 99 101 104 106 108 110 113 116 118 120 120 119 117 116 116
65 69 77 85 91 95 102 107 109 113 115 110 108 107 105 107 109 110 109 109 107 104 102 103 101 99 99 99 99 98 97 98 98 100 103 106 109 113 117 119 123 125 126 128 128 129 127 127 126
51 59 67 75 80 87 93 98 100 104 108 107 105 102 102 104 104 103 101 97 98 99 99 98 99 97 95 95 94 92 96 100 102 108 111 114 117 119 119 119 116 115 113 113 114 114 114 113 113
43 49 56 62 69 76 81 84 91 95 96 99 101 103 96 94 92 93 94 91 90 92 94 94 93 93 93 96 99 99 106 105 106 107 108 108 105 109 106 105 105 103 101 100 98 101 104 105 106

GFSSGP_250_spd_066.txt.gz
Wind_Speed
80 76 73 74 73 68 67 65 61 61 57 54 53 50 47 47 40 37 35 33 32 33 33 35 32 33 42 45 37 33 32 29 29 27 25 27 26 26 25 25 27 29 30 29 29 33 35 37 40
83 80 78 76 74 71 69 68 66 65 57 59 57 53 50 43 43 40 37 36 34 34 34 34 33 32 32 32 32 31 29 29 28 27 26 26 27 28 29 30 31 30 29 31 35 38 41 42 44
87 85 81 76 75 73 72 70 71 63 64 62 59 55 50 44 46 43 41 38 37 35 36 36 35 33 30 30 30 31 31 31 28 27 28 29 30 31 32 32 31 31 33 36 40 43 44 46 48
93 89 84 78 75 78 75 70 69 68 68 64 61 58 54 53 48 43 42 39 40 37 37 37 36 34 34 34 33 33 32 31 29 29 27 29 31 33 34 33 34 36 39 42 43 46 49 51 51
95 91 85 79 77 80 78 71 71 74 71 68 66 60 57 54 51 47 45 42 41 40 37 37 36 35 34 32 33 33 32 32 31 29 29 31 32 34 35 37 39 40 43 46 49 50 51 53 53
95 91 87 82 79 82 79 73 75 75 74 73 70 63 61 58 55 51 47 45 42 41 38 37 36 35 36 35 34 34 34 33 33 31 33 34 36 36 38 39 41 44 47 48 50 51 53 54 56
99 93 87 85 84 85 83 76 81 79 77 77 69 67 64 61 58 54 51 48 45 43 41 41 39 38 37 38 38 37 35 37 36 35 37 38 39 42 44 44 46 46 48 49 51 52 54 56 58
102 98 92 89 88 85 86 81 84 81 80 74 72 67 63 64 61 58 55 52 49 46 44 42 42 42 41 41 40 38 38 39 41 41 42 44 44 44 45 47 47 50 51 51 53 55 57 59 61
110 102 94 90 88 86 88 87 87 83 80 76 77 66 65 66 65 61 59 56 53 51 49 47 46 45 45 42 41 41 42 43 44 45 47 47 47 48 48 49 51 53 57 58 57 59 60 62 63
111 102 90 88 90 92 93 90 90 84 82 80 76 74 72 69 66 63 61 58 57 54 52 50 47 45 43 43 44 45 46 47 47 47 47 48 50 52 53 54 57 60 61 62 63 63 64 66 67
112 103 96 96 100 98 95 89 87 87 85 84 80 77 73 71 68 66 65 61 59 58 57 55 52 48 47 48 48 50 51 51 51 52 51 53 56 58 61 63 64 66 67 67 68 68 68 69 69
116 108 105 106 100 100 96 90 96 92 91 88 81 73 76 75 72 68 67 65 63 61 60 58 56 55 54 54 55 55 55 55 55 56 57 60 62 64 65 67 68 70 70 70 70 70 70 70 71
119 113 111 107 98 98 97 95 99 94 91 86 82 81 82 77 75 73 70 68 67 66 64 62 62 62 61 60 59 59 59 59 60 61 64 65 67 69 69 71 73 72 72 72 73 73 72 72 74
124 119 116 109 100 99 101 102 100 96 89 86 87 87 83 79 79 76 74 73 72 70 68 67 68 68 67 65 64 64 65 65 66 68 70 71 72 73 75 76 76 76 76 75 74 75 75 77 78
126 123 119 111 104 103 104 103 93 99 92 90 91 89 86 84 82 81 79 76 74 74 73 73 72 72 72 72 71 70 70 71 72 72 74 75 76 77 78 79 77 78 76 76 76 77 79 80 80
127 125 122 114 109 108 105 101 98 100 98 94 93 91 89 86 86 84 83 80 78 76 78 77 75 76 76 76 75 75 76 76 77 78 78 80 80 80 79 79 78 77 78 79 80 83 83 84 85
122 126 123 117 113 112 107 102 103 100 98 96 93 93 91 90 90 89 87 84 82 82 81 81 81 80 79 79 79 79 79 79 80 79 77 78 80 81 80 80 80 80 81 84 86 87 87 87 85
113 122 121 119 116 113 109 105 103 100 98 97 96 93 91 92 91 90 88 84 84 85 84 82 82 82 82 81 79 79 80 80 76 73 77 79 81 82 82 82 83 85 86 87 91 92 91 89 88
115 122 123 125 121 118 113 111 104 100 98 98 97 95 93 90 90 88 84 86 86 83 82 82 82 83 82 76 71 70 76 76 73 77 82 82 81 85 85 86 88 90 91 94 93 96 96 92 91
109 113 123 127 122 120 117 112 109 102 98 99 98 94 93 92 88 86 87 85 83 81 78 76 78 79 79 80 79 75 76 81 82 81 83 84 82 84 87 90 94 97 98 97 98 98 98 98 97
102 107 117 122 123 121 121 116 110 104 103 100 97 96 93 88 88 85 83 83 83 82 80 78 78 79 80 80 81 82 80 82 84 86 85 87 88 91 93 94 97 98 99 100 102 100 100 101 98
95 101 110 117 124 124 122 118 115 110 105 103 101 98 94 92 90 88 85 84 84 83 82 81 82 82 82 81 82 83 86 82 85 90 91 95 97 98 99 100 102 104 107 107 107 110 105 103 98
90 96 104 115 122 125 121 119 116 111 108 105 102 99 98 97 93 92 90 88 87 87 86 84 84 85 86 87 88 88 90 91 90 93 98 100 103 105 108 113 115 115 115 113 109 105 103 96 96
83 90 99 112 121 122 123 120 118 114 112 109 105 102 100 98 96 95 94 93 91 89 88 88 89 89 91 92 93 93 95 96 98 101 102 104 109 110 112 113 117 118 118 112 111 108 105 102 99
74 81 92 102 114 118 120 122 117 116 112 111 110 106 103 102 100 99 98 96 96 95 95 94 95 95 95 96 98 98 100 102 101 104 106 108 112 112 112 114 116 115 116 116 116 111 111 110 108
67 75 82 92 100 113 121 119 119 116 116 114 110 110 108 105 104 103 102 102 102 102 103 102 102 102 102 103 102 102 103 105 104 106 109 110 112 114 114 114 112 113 113 114 116 117 119 120 119
62 68 75 84 95 103 112 119 119 118 117 117 116 113 111 110 109 108 107 106 105 105 105 105 106 106 106 105 105 105 105 109 111 112 114 112 115 112 110 112 109 113 114 119 122 121 121 120 118
58 65 70 76 86 94 104 111 116 118 117 118 116 115 115 114 114 113 111 110 110 109 109 110 110 110 110 110 110 111 112 115 115 112 113 109 107 107 107 110 115 118 122 116 114 112 112 113 111
48 55 61 69 76 86 94 99 106 113 117 115 114 114 113 114 114 115 114 113 114 114 113 113 114 114 114 113 109 111 109 111 107 106 106 104 103 106 112 115 113 116 110 105 104 103 102 100 99
40 48 55 61 68 76 83 90 99 106 112 113 112 108 108 109 110 110 111 111 110 111 113 112 109 108 105 106 104 105 100 101 101 99 98 101 109 111 108 105 98 101 98 93 90 94 94 89 87

GFSSGP_250_spd_069.txt.gz
Wind_Speed
84 81 76 73 68 64 64 65 60 57 55 50 52 51 48 44 42 39 38 33 32 32 34 34 33 39 34 43 47 46 42 39 36 36 37 35 29 27 25 26 25 25 27 29 29 31 30 32 35
90 84 80 74 69 67 67 66 65 61 60 59 57 53 50 46 44 40 38 33 32 30 31 32 32 34 35 33 44 45 46 41 39 32 29 28 26 25 25 27 26 28 30 32 32 31 32 36 40
93 88 83 76 72 70 71 70 67 65 65 62 58 56 49 47 46 45 42 37 33 32 30 31 30 32 32 27 31 35 40 37 32 27 28 27 28 28 29 28 29 31 33 32 32 34 37 40 44
96 90 86 78 74 76 73 71 70 66 67 64 62 56 52 54 51 45 42 38 36 32 32 31 31 30 29 30 27 28 29 29 30 31 30 28 28 27 28 28 30 33 32 34 36 38 41 44 46
99 96 88 80 79 80 75 73 71 69 71 68 64 59 56 57 51 46 45 42 39 35 34 33 33 33 32 32 31 30 31 33 33 31 30 29 28 28 29 28 32 34 35 37 39 41 45 47 48
103 98 91 86 85 84 78 75 74 73 74 73 68 63 59 58 54 51 46 46 41 39 37 36 35 36 36 35 33 33 33 31 30 31 30 30 29 32 33 32 34 36 40 42 44 45 46 47 50
104 100 92 89 90 91 82 78 76 77 76 77 70 67 63 61 55 51 50 47 44 42 39 38 37 37 36 34 34 33 32 32 32 31 34 33 34 36 36 36 39 42 42 44 46 46 48 53 55
107 103 99 93 93 91 87 82 80 82 83 77 69 70 67 63 60 56 52 51 48 43 42 40 39 38 37 36 35 34 34 35 36 36 35 36 38 40 41 43 44 44 46 47 49 51 54 57 59
113 107 102 96 92 91 91 83 82 84 83 74 71 73 72 67 63 60 57 55 52 47 44 42 41 40 39 39 38 38 39 40 41 41 41 41 41 41 42 44 45 46 48 51 55 58 61 62 63
117 108 104 100 94 97 96 89 85 85 84 78 73 76 76 72 68 64 60 58 55 51 47 45 44 43 43 44 43 43 44 44 44 43 43 44 45 45 46 48 48 50 52 56 60 62 64 66 68
117 108 106 104 102 100 97 91 88 89 83 79 77 77 79 75 72 65 61 59 56 55 52 50 49 48 47 47 47 47 47 47 46 45 45 47 49 51 52 54 55 56 60 62 64 68 70 71 71
117 118 113 112 107 102 101 98 91 87 85 82 79 76 77 77 73 71 63 60 61 59 57 54 53 53 54 51 50 50 49 48 48 49 49 52 55 55 56 58 61 62 64 66 68 71 73 74 72
118 119 118 117 109 105 102 98 90 87 86 84 82 80 78 80 78 76 72 67 62 61 60 59 56 56 56 56 56 56 55 54 54 55 54 56 59 60 61 64 66 69 70 72 74 76 76 74 74
118 120 121 115 111 106 99 95 92 89 87 84 83 82 82 83 81 77 75 72 70 66 64 61 61 60 59 59 59 59 60 59 60 61 61 61 62 66 68 70 72 73 74 78 79 78 77 78 76
119 121 123 116 114 109 102 97 94 95 90 84 83 85 86 84 81 80 78 76 71 69 66 66 67 66 64 63 64 65 65 65 66 67 68 68 68 71 73 74 75 77 81 82 82 81 80 81 83
118 119 120 118 117 112 107 100 95 99 91 87 86 87 87 85 84 83 80 77 75 73 71 70 69 69 69 69 69 70 68 70 70 71 72 73 74 75 76 77 79 82 84 84 84 84 84 83 83
117 117 117 122 117 115 110 103 101 98 94 92 90 87 88 88 86 85 83 80 76 74 74 75 73 72 72 72 71 71 72 73 74 75 76 78 78 78 77 80 84 86 83 83 84 86 84 84 87
114 115 116 122 119 118 114 107 106 101 97 95 94 91 89 88 88 88 83 80 79 79 78 77 76 75 74 73 74 74 76 78 79 79 80 80 81 82 82 83 80 82 84 86 85 86 88 91 93
118 115 114 122 123 119 117 114 111 105 100 97 96 95 92 90 89 86 84 84 84 83 82 80 79 80 79 78 77 79 80 80 80 79 82 83 83 79 78 80 83 83 84 84 87 90 94 96 98
115 117 114 115 120 120 119 117 114 107 102 100 98 95 94 91 88 87 86 87 87 86 85 84 82 82 82 81 80 81 82 82 82 80 77 73 75 79 80 80 81 84 86 90 94 97 101 104 106
108 118 117 110 115 120 119 116 114 108 105 102 99 97 94 93 89 87 86 87 88 87 86 85 85 85 84 82 80 78 75 74 75 76 79 82 82 80 78 81 85 89 93 97 100 103 106 110 112
102 109 113 110 111 118 119 117 117 113 109 105 102 99 96 92 90 88 88 89 89 88 86 84 83 82 80 80 80 78 75 74 78 79 82 85 86 89 89 89 92 95 99 101 105 108 112 114 115
94 97 103 111 112 111 119 118 116 116 110 107 105 101 97 94 92 91 90 89 88 87 86 87 86 86 84 83 84 83 82 84 85 85 86 92 94 94 98 100 103 103 107 110 113 114 117 119 120
83 85 91 99 105 103 109 115 118 116 114 114 109 103 99 97 95 94 90 90 89 88 87 86 86 86 86 86 87 88 88 89 91 93 91 93 98 100 103 106 111 110 113 114 116 118 122 120 116
71 74 80 84 91 93 104 105 112 118 117 114 112 109 104 100 97 98 96 93 92 91 90 89 89 89 90 90 91 91 93 93 93 96 98 100 101 105 108 109 111 115 117 120 122 123 122 121 118
62 61 65 70 78 92 104 99 101 114 117 116 114 111 110 107 104 101 99 98 97 96 95 94 93 92 93 93 92 93 96 97 98 100 103 104 107 109 111 114 116 116 118 119 119 114 114 119 120
62 61 60 60 68 82 91 93 104 107 113 116 116 115 114 112 108 105 103 101 101 100 99 98 97 97 98 97 97 98 99 100 103 104 107 109 110 113 115 116 119 116 113 112 112 114 114 120 116
54 52 56 60 63 69 79 87 92 105 110 113 116 117 117 116 113 110 107 104 103 102 101 100 100 101 101 101 101 102 103 104 106 108 109 113 115 116 116 113 112 112 112 112 113 116 116 111 107
41 44 50 54 59 63 70 77 86 99 110 111 110 110 115 115 115 113 111 109 107 106 105 105 105 104 103 104 104 105 107 108 111 113 115 116 117 114 110 110 108 108 109 110 109 103 98 98 97
33 38 43 49 55 59 63 70 79 88 99 110 113 112 112 113 113 113 114 114 113 111 110 110 109 108 108 108 109 109 112 113 114 114 115 117 111 106 104 105 106 109 108 101 93 89 86 84 87

GFSSGP_250_spd_072.txt.gz
Wind_Speed
92 85 82 80 77 72 67 68 59 56 56 54 51 49 46 45 43 43 42 40 37 34 32 35 33 32 38 34 31 36 39 41 40 43 39 36 33 33 33 30 24 24 25 25 25 26 28 30 29
97 92 86 80 77 74 72 69 62 58 58 58 56 53 48 44 44 43 44 41 37 34 32 33 33 32 31 39 32 35 41 43 44 44 39 35 35 33 30 27 26 27 27 27 27 29 31 30 31
101 96 92 83 78 77 77 70 65 62 61 62 60 53 48 45 47 47 45 42 37 34 32 31 31 32 32 35 34 34 37 44 46 44 41 37 34 30 29 28 29 28 28 27 28 30 31 32 35
102 100 95 86 79 81 78 73 69 65 65 63 60 55 51 51 51 50 47 45 41 35 31 29 28 31 32 33 35 31 32 38 34 33 33 29 29 29 30 29 28 28 26 29 28 30 34 37 40
102 103 96 87 82 85 78 76 71 67 67 64 62 59 57 53 52 51 48 46 43 38 33 30 29 29 31 31 33 34 28 28 28 29 28 28 31 31 30 29 27 27 29 32 31 33 38 40 41
102 103 96 88 87 88 83 79 75 70 71 67 65 62 60 56 53 51 49 47 46 40 35 33 31 32 33 33 33 32 32 30 30 30 31 34 31 31 30 29 29 30 33 35 38 38 39 41 43
99 101 96 92 91 94 90 82 78 75 74 70 69 66 63 59 57 56 54 50 47 43 38 36 35 35 36 35 35 35 33 33 33 34 33 32 31 30 31 32 33 34 37 41 40 40 41 43 47
105 105 105 100 99 95 95 84 79 77 77 73 70 68 68 65 61 59 57 53 50 44 42 39 37 38 38 38 37 36 35 36 34 34 34 34 33 33 35 36 37 40 41 41 41 42 45 48 52
109 111 109 102 101 96 89 88 84 80 81 72 72 71 69 66 64 63 60 57 53 49 45 43 41 40 40 40 39 38 38 36 36 35 35 36 37 38 40 40 41 42 43 43 45 48 51 54 57
112 106 102 102 100 103 94 90 87 84 86 75 75 75 72 69 67 66 63 57 52 50 49 47 45 42 42 41 41 40 40 40 39 38 40 42 42 43 43 42 43 45 46 48 50 53 55 58 61
105 105 107 106 106 103 100 95 93 89 88 80 78 79 73 73 71 71 66 62 57 54 52 50 49 45 43 44 43 44 44 44 43 43 45 47 47 46 46 46 48 50 51 54 56 58 60 63 66
105 109 114 111 110 106 102 100 95 91 87 83 80 82 78 73 72 73 67 59 55 57 58 56 52 50 47 46 46 48 47 47 47 48 49 52 50 49 49 51 53 56 57 59 61 64 66 68 70
108 114 118 120 115 111 105 105 99 95 92 88 85 83 80 77 76 73 69 63 60 54 56 55 55 53 51 50 50 50 51 50 52 53 54 55 54 54 54 57 59 60 62 64 67 70 72 73 75
111 117 116 114 115 113 108 108 104 98 94 91 89 84 83 81 79 77 77 69 69 65 60 58 56 58 56 55 54 53 55 57 58 57 58 60 60 61 61 63 65 66 68 71 72 75 76 77 77
114 121 118 117 117 115 114 112 107 103 95 92 89 86 84 84 82 80 77 78 77 69 69 62 61 61 59 59 57 58 59 60 61 62 63 63 63 65 67 67 69 70 72 74 77 77 78 76 79
116 119 119 116 117 118 116 111 108 102 96 93 90 89 85 85 86 84 79 77 78 77 74 72 69 67 64 62 61 62 63 63 63 64 65 66 68 69 71 72 73 75 78 79 79 76 76 80 83
112 116 119 120 118 121 118 114 110 106 100 94 91 90 88 85 85 84 81 77 78 78 78 75 74 73 71 68 66 65 66 67 68 69 70 71 71 72 72 75 79 79 79 77 76 78 79 82 85
106 112 118 122 122 121 120 118 115 107 104 97 95 93 91 88 85 84 82 80 79 79 79 80 78 76 73 72 71 70 70 71 72 73 73 72 73 74 76 80 80 76 76 75 76 80 83 84 86
105 112 119 127 124 122 121 123 119 111 107 102 98 95 94 91 87 85 84 84 83 83 82 82 80 78 76 75 74 73 74 74 75 75 75 76 77 79 79 81 79 75 74 78 81 84 85 87 92
101 108 114 120 122 121 121 120 122 114 108 107 102 98 96 92 89 86 84 85 85 85 85 83 82 80 79 78 77 77 77 77 77 78 79 80 81 81 79 76 75 79 80 83 86 89 91 92 96
96 104 111 114 120 120 120 121 118 115 111 108 104 99 96 93 90 90 88 86 85 84 84 83 83 82 81 81 81 81 81 80 81 80 81 82 80 77 74 76 79 81 85 89 91 94 97 98 102
93 100 107 113 113 120 120 115 114 114 113 112 110 103 98 96 93 90 91 89 87 86 84 84 85 84 84 83 83 83 84 84 84 84 83 83 82 83 84 85 87 90 91 93 96 97 102 106 109
90 97 105 111 114 113 112 112 109 109 111 110 111 108 102 96 92 93 92 91 91 90 88 86 86 86 85 85 85 84 83 82 80 79 81 84 87 88 90 92 92 93 94 95 100 104 108 112 114
85 91 98 105 107 110 109 107 108 107 106 113 113 112 108 102 99 96 95 94 93 93 91 89 88 87 86 86 87 86 85 85 85 85 84 85 88 91 92 95 96 97 100 101 106 109 114 116 118
78 85 90 97 99 102 110 104 102 106 106 111 114 112 110 107 105 101 99 98 97 95 93 91 90 89 89 90 89 89 88 88 87 88 90 90 90 94 95 98 100 103 105 108 110 115 117 119 123
66 77 83 87 93 101 106 93 99 103 103 107 111 111 110 109 109 107 104 102 100 97 95 93 91 91 91 91 90 91 91 92 91 92 94 95 94 95 97 100 103 107 110 113 116 119 123 123 117
57 57 68 77 84 92 93 94 105 102 101 104 107 110 111 111 110 108 109 107 104 101 99 97 94 92 92 92 92 93 94 94 95 96 96 96 98 99 101 103 106 109 113 117 119 122 121 118 111
53 57 56 59 69 77 81 89 98 113 113 108 108 112 114 114 113 111 109 108 107 106 103 101 99 98 97 96 96 96 97 97 97 97 98 100 100 102 104 108 111 114 116 118 119 119 116 112 108
57 58 59 58 56 60 67 72 81 93 105 115 117 111 112 114 116 114 111 110 110 109 107 105 104 103 102 100 99 98 99 99 99 100 101 103 105 108 108 111 113 116 118 117 117 112 109 106 101
43 46 46 52 59 60 60 64 72 78 85 99 105 111 111 109 112 113 114 114 113 112 110 108 106 105 105 105 104 103 102 103 103 104 105 107 109 111 113 115 114 114 111 114 108 106 101 95 88

GFSSGP_250_spd_075.txt.gz
Wind_Speed
98 93 89 86 82 74 70 70 66 62 60 53 48 47 48 49 48 45 46 46 43 38 38 38 39 40 41 40 37 34 36 37 40 39 37 39 40 39 35 34 33 33 31 26 24 24 25 28 27
95 97 94 89 84 76 74 74 69 66 63 56 52 49 50 50 49 45 43 42 38 38 38 37 37 39 38 37 36 35 31 36 38 39 39 40 40 38 36 36 36 30 27 26 27 26 28 29 30
93 98 98 92 85 79 79 77 73 71 65 60 55 51 52 49 50 46 43 38 36 39 38 37 33 32 34 32 32 38 40 33 37 41 41 40 44 41 37 39 34 31 28 29 28 28 28 28 30
92 94 100 95 86 86 82 78 75 73 67 63 59 54 51 51 51 48 45 41 39 41 41 38 32 31 31 33 33 34 37 39 35 36 40 41 39 36 33 30 32 28 28 27 26 28 28 30 33
92 94 97 95 89 90 88 84 80 77 72 66 61 55 52 53 52 53 47 43 42 43 42 37 33 31 30 31 34 33 34 34 33 34 33 33 31 32 31 29 29 28 27 27 29 29 31 35 38
91 91 93 95 93 94 92 87 83 81 74 67 63 56 53 55 55 55 50 46 43 44 41 36 34 31 30 29 31 32 34 32 30 28 29 29 30 29 28 30 29 28 28 30 30 33 35 39 38
89 89 88 96 100 101 94 89 84 80 75 71 66 59 58 57 58 56 52 48 47 45 42 39 36 34 32 32 31 33 32 32 30 31 31 32 32 31 31 29 29 29 31 33 34 37 37 41 41
89 90 93 95 105 106 97 90 85 82 75 72 67 62 63 62 62 59 56 52 49 47 44 42 39 37 36 35 34 34 34 34 35 35 36 35 35 34 33 31 31 32 35 37 39 39 41 44 45
88 90 94 94 105 106 98 93 88 83 78 72 70 66 67 63 62 62 60 56 52 50 48 45 42 39 38 37 36 36 36 37 37 37 38 37 35 35 35 34 36 38 38 42 42 43 46 48 51
89 86 92 97 100 108 102 96 89 86 81 76 73 69 69 68 66 65 64 60 55 52 49 47 45 43 42 40 38 38 39 39 39 38 39 38 38 38 39 39 41 42 44 45 45 47 49 52 55
85 84 95 100 102 106 107 101 92 86 84 81 78 76 73 73 71 68 67 63 59 56 55 52 49 48 44 43 41 41 41 41 41 42 42 41 41 42 43 44 45 46 47 48 49 50 54 57 59
84 90 95 102 102 102 108 103 96 89 88 85 78 67 73 75 74 66 67 66 63 60 58 56 54 51 49 47 46 45 43 43 44 44 45 45 46 47 48 49 50 51 52 53 55 58 61 63 64
88 90 99 102 104 105 107 107 100 92 89 88 84 80 75 72 75 73 66 67 65 64 62 58 55 54 52 52 51 50 47 46 47 48 49 49 50 50 51 53 54 55 57 60 62 64 67 67 68
90 92 96 99 106 108 108 110 106 98 93 91 88 87 82 79 78 77 69 64 71 68 64 60 61 59 59 57 55 53 51 51 51 51 51 53 53 54 55 57 58 61 63 64 66 68 70 71 73
91 90 96 103 105 106 110 112 108 104 98 94 93 92 91 86 84 82 77 71 68 69 67 63 62 62 62 61 59 58 56 55 55 54 53 55 56 58 60 62 63 65 66 67 70 72 73 75 77
87 87 95 103 102 108 111 110 110 110 104 100 96 93 92 89 88 85 85 81 75 72 73 71 67 63 61 57 60 59 58 58 58 58 59 58 60 61 63 66 67 68 69 71 72 73 76 78 77
80 82 95 103 106 111 111 111 111 113 111 107 100 96 93 89 87 88 85 83 80 77 74 70 69 67 68 67 63 60 61 59 58 60 61 62 64 66 67 69 70 71 72 73 74 77 79 78 78
78 85 94 106 110 112 112 112 112 115 117 110 105 98 94 91 89 86 85 82 81 80 79 77 75 75 75 73 70 70 69 69 68 68 69 69 69 69 70 72 73 73 75 77 78 80 81 79 80
82 89 97 107 110 112 115 115 115 115 115 112 106 102 96 93 90 86 85 86 86 85 83 82 80 79 77 77 77 76 76 74 74 74 73 72 73 73 73 75 75 77 79 80 81 81 78 79 83
82 87 96 106 111 110 115 116 116 117 115 110 108 104 101 95 92 89 86 87 89 88 86 84 83 81 79 78 79 79 79 78 77 76 76 76 76 77 77 78 79 81 81 81 82 78 81 86 90
79 85 94 104 111 115 116 116 116 113 115 112 106 105 101 96 91 90 89 88 88 90 89 87 85 84 82 81 81 81 81 80 79 79 80 80 79 79 80 81 82 82 83 80 81 87 89 90 92
77 85 91 101 109 115 115 117 116 118 116 115 109 108 106 102 99 95 94 92 90 89 88 89 88 87 86 85 84 84 84 83 83 83 83 81 81 82 83 83 82 82 82 83 86 89 91 95 98
76 81 87 95 105 112 114 119 120 120 114 111 108 110 109 107 104 101 97 95 93 92 91 90 87 85 86 86 85 84 85 86 86 85 86 85 85 85 85 85 84 85 86 87 90 93 98 101 104
74 79 83 91 98 105 112 117 119 119 116 115 110 108 110 109 108 106 101 98 97 97 95 94 91 88 87 85 84 84 84 84 84 85 86 87 87 88 89 90 91 92 94 95 97 98 100 102 104
69 73 78 85 92 99 108 113 120 121 118 118 114 110 106 109 108 109 107 104 102 99 97 95 93 92 91 90 88 88 87 86 86 86 86 87 89 91 92 92 93 95 96 96 98 97 99 103 107
60 70 75 80 86 97 104 102 106 115 119 114 112 111 106 103 107 110 108 107 106 103 101 98 95 93 92 92 91 90 89 89 90 90 90 91 90 90 91 92 94 95 97 99 99 101 106 108 111
53 59 68 75 82 89 95 100 105 109 112 114 112 107 106 104 107 109 112 112 109 107 104 102 100 98 97 95 94 92 91 91 91 90 91 92 92 93 94 94 97 97 98 100 102 106 109 112 117
48 56 59 64 72 78 85 91 95 104 106 104 106 108 109 109 108 107 107 109 112 111 109 107 104 102 100 99 97 96 95 94 93 93 93 93 93 93 95 95 96 98 100 103 107 110 114 119 120
46 52 52 57 61 69 76 83 93 106 106 105 106 103 103 104 103 103 104 105 107 111 112 110 108 107 105 103 102 101 100 98 97 97 97 97 97 98 99 100 102 103 105 108 110 115 118 119 112
43 45 46 51 54 59 65 72 85 91 97 100 108 111 108 101 99 100 98 99 104 109 112 112 110 108 107 106 106 105 104 103 102 102 103 103 103 103 103 105 106 108 110 112 115 116 114 107 104

GFSSGP_250_spd_078.txt.gz
Wind_Speed
99 97 95 92 87 79 72 72 73 72 67 59 52 49 45 43 45 46 46 45 47 45 43 42 40 38 41 40 41 39 40 43 44 40 42 41 40 36 36 35 39 34 34 33 31 26 24 24 26
98 101 98 95 88 80 75 76 76 73 69 61 55 52 48 46 46 46 47 46 43 42 41 41 38 38 38 37 38 37 39 39 36 36 35 37 39 37 37 38 38 35 36 34 31 28 27 27 27
98 100 101 97 92 84 81 81 77 75 70 64 58 54 52 50 47 47 47 45 42 41 38 38 36 34 35 35 35 35 35 37 32 31 34 38 38 37 37 37 40 38 36 37 31 29 28 27 25
97 97 101 99 92 89 87 84 81 78 73 65 59 57 54 52 49 48 48 45 42 40 36 34 34 35 35 33 32 35 33 34 38 35 31 32 37 38 38 37 38 32 31 28 28 27 26 27 27
98 98 99 98 95 92 92 88 84 80 74 69 61 58 57 54 51 50 47 46 44 40 37 34 36 37 36 33 30 31 32 32 34 37 34 35 33 33 35 30 28 29 27 26 27 28 27 29 31
96 100 95 92 94 97 96 92 87 82 76 72 65 61 58 56 53 51 47 48 45 41 39 37 37 39 36 32 30 30 32 32 31 32 32 32 30 29 27 28 28 26 27 28 27 28 30 33 35
92 95 91 89 95 101 99 95 89 86 80 76 69 64 61 58 55 53 50 49 47 44 42 40 39 39 38 33 30 27 28 30 32 31 31 28 27 28 28 30 29 29 29 29 29 30 33 37 38
87 92 92 90 94 97 101 99 91 88 83 76 72 65 64 61 58 56 53 50 50 48 46 44 42 41 40 35 31 29 28 28 30 30 31 30 30 31 32 33 34 33 32 31 32 35 38 40 40
86 88 90 89 93 95 97 100 96 90 85 79 75 70 67 64 62 58 55 54 54 53 50 47 45 43 40 39 33 31 31 31 33 33 34 34 34 35 36 37 37 35 35 35 37 41 42 44 45
87 84 87 91 94 99 97 98 98 92 87 82 77 73 71 67 65 62 59 56 56 55 52 49 46 44 42 41 37 34 34 35 35 35 35 36 36 37 36 38 38 39 40 40 42 45 47 49 50
86 83 83 90 95 98 96 95 98 96 90 85 80 76 74 67 66 65 63 59 56 57 55 53 50 47 45 44 41 38 38 37 37 37 37 37 38 40 40 41 42 43 44 45 46 48 49 50 54
84 83 83 89 94 97 96 94 95 98 92 86 84 80 77 60 65 68 67 60 62 60 60 58 55 52 49 47 44 42 41 41 40 40 39 39 40 42 43 44 45 46 47 48 50 52 52 54 59
84 83 82 85 94 95 95 95 91 100 96 89 83 83 78 68 62 68 70 65 65 64 64 61 58 55 52 50 49 47 46 45 44 44 43 42 43 44 46 47 48 50 51 53 54 57 59 61 63
86 85 84 85 90 91 94 96 91 97 99 93 87 86 82 78 59 65 72 73 69 69 66 64 61 58 57 55 53 51 50 50 49 49 48 46 46 48 49 50 51 53 54 56 58 60 63 64 67
87 87 84 85 86 90 92 98 91 95 100 99 93 88 88 82 78 66 66 76 72 69 68 67 66 64 62 60 58 56 56 55 54 53 52 52 52 53 53 54 53 55 57 59 61 63 65 67 70
87 87 85 84 84 85 90 96 97 97 99 103 97 92 90 89 86 79 69 71 76 75 73 69 68 68 68 65 62 58 59 59 59 58 59 57 57 55 56 57 57 58 60 63 64 65 68 70 71
86 86 85 84 85 86 87 93 99 99 97 103 103 98 94 92 91 90 77 73 77 76 74 73 70 70 71 69 66 64 63 62 61 61 58 58 59 58 59 58 60 63 66 68 69 71 71 73 74
83 85 88 87 87 86 89 94 98 102 98 101 108 104 98 95 92 90 91 83 76 77 74 71 67 66 64 66 68 68 65 64 59 58 59 61 60 62 65 67 69 69 72 73 73 74 74 77 79
82 85 90 91 90 88 90 94 98 99 99 103 105 108 103 99 97 92 89 87 79 76 77 73 76 74 70 69 69 68 68 67 65 65 67 67 70 72 73 73 74 74 74 75 77 77 79 80 82
78 84 89 91 89 90 92 92 98 97 99 102 102 110 108 103 97 94 90 88 86 85 82 82 80 82 79 78 75 73 72 73 75 73 72 73 74 75 77 77 78 77 77 78 79 80 82 83 84
73 80 85 89 89 88 90 90 93 98 100 105 100 102 111 104 99 96 93 91 89 86 85 85 86 85 84 83 81 80 79 80 79 78 77 77 77 78 79 79 79 80 80 81 82 84 84 85 86
69 74 80 82 82 83 86 89 95 100 102 102 102 100 105 109 106 102 98 95 94 91 88 86 84 85 86 87 85 84 83 82 82 82 81 80 80 80 81 82 83 84 83 83 83 85 87 90 91
64 69 74 76 76 79 83 87 94 97 102 102 104 104 103 109 110 108 105 100 96 94 91 88 87 85 86 85 85 85 85 84 85 84 84 84 84 83 83 83 83 83 83 84 86 87 88 90 94
58 61 68 70 75 77 81 84 95 98 103 107 106 104 106 103 109 114 108 105 101 98 96 94 91 90 88 87 87 87 86 87 86 85 84 83 83 83 84 85 84 85 87 87 89 90 93 95 97
54 58 61 65 68 74 79 82 97 102 106 109 108 106 106 105 103 106 113 110 107 105 101 97 96 94 93 91 90 90 89 89 90 90 89 88 86 87 86 86 87 88 91 93 94 95 95 95 94
53 55 58 60 65 72 76 78 91 101 105 110 110 109 108 108 104 101 107 110 114 109 106 103 100 98 96 95 93 91 91 90 89 90 89 90 90 88 89 90 91 91 92 93 92 92 92 94 97
46 47 52 58 63 68 73 77 89 98 105 107 112 114 114 112 109 107 101 102 108 109 110 109 107 106 102 100 98 96 95 94 92 91 90 91 91 91 91 90 89 91 93 93 94 95 97 100 103
44 50 51 54 58 62 67 75 82 93 101 106 112 115 114 112 112 111 109 105 101 101 105 111 111 108 106 104 102 100 98 97 96 94 93 93 93 93 92 93 94 94 95 97 99 101 103 105 108
47 51 52 57 60 64 68 72 83 90 95 99 106 112 116 117 118 118 111 105 103 101 101 101 103 110 109 109 107 105 102 101 99 98 99 99 99 98 98 98 99 100 102 102 103 107 109 111 112
40 44 48 53 54 60 65 69 77 85 90 92 98 102 108 115 116 118 116 108 104 104 103 102 100 100 104 110 111 110 108 106 105 104 104 104 103 103 103 103 105 104 105 105 108 107 110 111 109

GFSSGP_250_spd_081.txt.gz
Wind_Speed
100 100 99 98 94 84 80 77 77 73 68 63 57 53 49 48 47 48 47 46 45 42 43 42 42 40 39 39 39 39 38 38 40 38 37 38 36 36 37 38 36 33 35 35 34 35 34 32 28
97 102 102 99 95 88 83 81 80 77 72 66 60 56 52 50 48 46 44 44 44 41 41 43 42 43 41 40 39 39 40 36 40 40 40 40 38 39 37 37 36 34 33 34 34 36 32 31 27
97 100 103 101 96 90 88 86 82 79 74 70 63 60 56 54 51 47 44 43 42 41 39 41 42 42 41 40 39 38 37 37 35 34 34 35 32 35 35 34 34 32 34 34 33 28 30 26 26
97 98 100 100 96 94 90 88 85 81 76 71 65 63 59 57 53 49 46 43 41 41 39 40 41 41 40 38 36 36 36 36 33 33 31 30 31 29 32 34 35 31 31 30 30 30 26 26 27
95 98 99 98 97 96 95 90 87 83 78 71 68 66 62 60 56 52 49 44 42 41 41 41 41 41 39 37 33 34 34 34 33 32 32 36 34 30 30 27 28 30 27 28 30 27 25 27 27
94 96 97 94 96 98 97 95 89 86 80 76 70 69 66 62 59 54 51 46 43 42 41 42 39 38 37 34 36 34 34 32 30 30 30 31 33 34 32 32 27 26 27 27 28 27 28 29 29
91 94 94 98 97 102 101 98 93 90 84 79 74 71 69 64 59 56 54 49 45 43 42 43 41 38 36 36 35 35 33 31 30 30 29 28 27 26 24 26 28 27 29 29 30 31 30 31 32
89 92 96 98 100 99 102 101 97 94 88 83 77 73 70 66 60 58 55 53 47 45 44 44 43 41 38 37 38 36 35 30 28 29 30 30 28 29 29 29 29 32 32 32 33 33 33 34 36
87 90 91 94 99 99 98 101 99 96 91 86 82 76 72 68 63 60 57 55 52 47 47 45 46 45 42 41 39 38 36 30 30 29 29 29 29 30 31 32 35 35 36 35 36 37 37 39 41
85 82 89 94 96 99 99 97 99 98 94 90 85 80 75 70 67 61 61 59 56 51 49 48 48 47 45 42 42 39 38 34 33 30 30 30 31 33 35 37 38 38 37 38 38 40 42 44 46
81 81 85 92 94 99 100 97 97 99 97 91 87 83 77 74 70 64 60 63 58 54 51 51 51 49 47 46 44 41 39 37 34 34 33 32 33 34 35 35 37 38 40 41 42 43 46 48 49
81 83 85 90 93 96 99 97 93 95 96 95 90 86 82 78 74 68 61 57 59 57 55 53 54 53 52 50 47 44 42 40 38 37 36 35 36 36 37 37 39 41 42 43 45 47 48 50 51
81 84 85 88 92 94 97 98 95 94 93 93 92 89 86 81 74 69 59 60 60 58 60 57 56 56 54 53 51 48 45 43 42 40 40 40 40 40 40 40 42 43 44 46 47 50 50 52 54
82 83 84 86 89 91 93 95 95 93 89 90 93 92 87 85 83 72 63 58 60 62 63 61 59 58 58 57 55 53 50 48 46 45 46 45 44 45 45 44 44 46 48 49 51 52 53 54 56
83 83 83 84 86 87 87 94 91 94 91 91 91 94 91 88 85 82 76 63 57 61 63 63 62 61 61 61 59 56 53 52 52 51 50 48 48 49 50 49 49 52 52 53 54 55 56 55 60
84 83 82 83 84 86 86 86 92 95 93 90 88 91 96 91 89 86 81 75 59 61 68 68 69 66 65 64 63 60 58 57 56 54 53 53 54 54 52 53 54 56 55 55 56 57 59 64 65
80 80 80 81 82 82 82 85 94 93 94 92 90 89 95 97 92 89 86 80 62 60 68 70 72 70 68 67 65 65 64 63 61 59 57 55 54 56 58 57 57 57 58 57 61 65 67 68 70
77 80 81 81 83 82 83 84 86 88 92 92 89 89 94 99 95 92 87 86 77 64 65 71 72 73 72 68 69 69 68 68 66 64 63 62 61 58 58 59 58 57 62 64 69 70 70 73 74
77 80 82 84 84 83 81 83 81 83 89 90 89 89 92 101 100 96 91 88 89 70 59 61 70 71 72 74 71 70 70 69 68 68 67 67 65 64 64 64 63 65 68 70 71 73 75 76 76
74 80 84 85 84 83 81 80 83 82 86 88 90 91 91 100 104 102 96 92 87 90 81 75 71 71 70 72 73 73 72 69 71 70 68 67 67 67 66 67 70 72 73 75 76 76 76 78 82
72 76 84 86 83 83 81 77 78 81 82 85 88 89 93 95 102 105 102 97 92 89 90 89 83 77 75 73 74 72 72 72 70 68 67 68 69 69 71 73 75 77 78 78 79 80 81 83 85
70 73 76 81 82 81 82 77 78 80 83 81 85 88 93 97 97 104 106 103 98 94 91 90 88 88 85 76 76 79 77 76 79 79 77 76 76 75 76 78 79 80 78 77 82 84 84 81 82
64 67 69 73 78 81 82 80 81 81 81 81 87 87 90 95 97 98 105 107 105 100 97 96 93 92 90 88 84 80 76 77 79 80 81 80 79 78 76 76 78 82 83 83 82 81 82 84 85
59 61 63 67 71 77 83 82 84 82 84 84 87 87 89 93 95 100 101 107 109 107 102 100 99 97 95 92 89 87 86 84 83 82 82 82 82 82 83 84 84 84 83 82 85 86 86 86 88
54 57 58 61 64 69 77 77 79 83 84 88 90 89 92 93 95 97 98 103 109 111 108 104 101 100 97 95 93 91 88 87 86 85 84 83 82 83 82 83 84 85 87 88 87 87 88 89 88
55 56 56 56 58 65 70 69 73 77 80 88 90 91 94 93 97 96 99 102 107 109 113 109 104 102 100 98 96 94 92 90 88 88 88 88 88 87 87 88 88 89 89 90 89 90 92 91 92
52 52 54 55 58 61 63 65 71 73 79 85 90 91 96 98 100 98 98 99 102 107 107 114 113 108 105 102 99 97 96 94 92 91 91 91 90 90 90 89 89 89 90 91 91 93 94 96 98
47 51 51 52 53 56 59 63 69 72 77 82 85 89 93 96 99 100 101 99 100 100 103 108 112 115 110 107 104 101 98 97 96 95 95 93 91 91 92 92 93 93 94 94 95 97 99 101 103
50 51 53 56 55 54 57 61 67 71 75 80 81 84 88 94 97 101 102 104 100 100 98 98 104 113 113 110 109 106 104 103 101 101 101 99 97 96 97 96 96 97 98 98 101 102 104 106 106
49 51 51 51 51 54 57 61 67 68 71 76 79 81 86 90 97 100 103 106 105 100 98 95 93 97 105 110 110 111 112 110 109 109 108 106 104 105 103 103 104 103 104 105 106 106 105 105 106

GFSSGP_250_spd_084.txt.gz
Wind_Speed
100 98 94 93 91 85 83 77 77 77 68 64 60 57 52 52 51 50 50 49 48 48 47 45 43 43 41 40 41 38 37 37 36 36 37 36 37 36 35 35 35 34 37 35 32 32 33 34 34
97 102 98 96 91 86 85 80 82 78 70 66 63 61 57 52 51 51 51 49 48 48 47 46 44 43 43 43 41 40 37 38 38 38 39 38 38 37 38 37 35 37 34 33 31 31 32 31 31
97 104 104 100 94 89 86 83 84 81 75 70 65 64 62 57 53 52 52 50 49 48 47 45 43 43 43 42 43 40 39 37 38 39 38 39 39 39 38 35 33 34 34 31 29 28 29 27 33
98 101 106 104 96 94 89 87 86 84 80 75 68 67 64 63 59 54 52 50 48 46 45 44 43 40 40 42 43 42 41 40 39 38 36 34 34 33 28 29 31 32 31 30 27 28 27 32 31
101 100 101 107 102 97 95 93 90 88 83 79 73 69 68 67 64 58 54 51 48 44 42 42 42 41 39 40 43 41 41 40 41 38 36 33 32 31 30 31 30 28 27 29 28 26 28 26 28
101 100 99 98 103 104 102 99 97 92 87 83 77 74 72 70 68 62 57 54 50 46 43 41 41 41 39 40 39 40 39 39 36 34 35 33 33 30 32 35 31 31 34 27 28 27 27 29 29
101 101 96 100 102 104 105 103 100 98 93 87 82 77 75 72 69 65 61 57 54 51 46 42 42 41 39 39 39 39 40 38 34 34 32 32 31 29 29 32 31 28 27 29 27 29 30 32 33
101 99 100 100 100 102 105 104 101 100 95 92 87 79 77 74 71 68 64 61 57 54 51 46 42 42 40 39 39 39 39 37 37 36 33 32 30 29 29 27 28 29 29 31 32 33 34 36 36
99 99 99 98 99 103 101 105 104 101 98 93 90 83 79 75 72 71 67 64 60 57 53 50 44 43 41 41 40 40 39 38 38 36 34 31 31 31 31 31 33 34 35 37 39 40 40 40 39
97 96 95 100 101 100 103 101 104 102 100 97 91 85 81 77 74 72 71 68 63 58 55 51 47 44 42 42 43 41 40 38 40 38 35 33 32 32 33 34 35 36 37 40 40 41 41 41 41
95 93 97 98 101 101 101 100 101 103 101 98 93 89 83 79 76 73 73 72 67 61 55 52 51 47 44 43 45 45 44 42 40 40 37 36 35 34 34 35 35 37 38 38 39 40 42 43 45
95 93 95 97 100 101 99 97 98 99 100 100 95 92 87 83 79 76 75 73 69 65 59 54 53 52 48 46 47 48 47 46 45 42 41 38 37 37 37 37 37 38 38 39 41 42 43 45 47
93 91 94 96 97 98 98 97 99 99 97 100 99 93 90 86 82 78 74 74 70 69 64 58 56 54 52 50 50 51 50 49 48 45 43 42 40 39 40 40 40 41 41 42 44 44 45 48 49
91 90 93 94 95 96 97 98 98 98 97 96 98 96 93 90 88 84 76 75 73 70 68 64 60 57 55 54 51 52 53 52 50 48 46 45 43 43 42 43 44 45 45 46 47 48 50 52 53
90 91 92 92 94 95 95 95 96 97 98 96 95 95 95 93 92 89 83 77 75 71 66 61 60 57 56 58 55 54 56 55 54 52 50 49 48 47 46 46 46 49 49 51 51 53 54 56 56
90 89 91 90 92 91 92 88 95 95 97 97 95 94 94 96 95 93 90 84 77 75 64 61 61 58 58 59 59 58 58 59 58 57 55 53 52 51 50 49 49 52 54 54 54 56 58 57 55
84 85 87 86 89 89 88 89 89 93 93 95 95 95 93 94 96 95 91 88 84 75 69 60 60 62 60 61 63 63 62 62 61 60 59 58 57 55 54 54 53 55 55 56 58 58 60 58 62
75 81 85 85 87 86 86 86 88 90 90 91 94 95 93 91 95 96 95 91 88 83 74 66 61 62 64 65 65 65 66 65 64 63 63 62 61 60 61 61 60 61 62 61 62 62 63 65 67
68 75 82 84 85 85 85 88 87 88 89 88 91 95 94 91 93 96 96 95 91 87 82 75 70 65 64 68 68 67 68 69 69 68 66 66 66 66 67 66 65 65 67 66 66 66 65 69 73
68 73 79 85 87 86 84 85 86 82 84 85 86 90 93 94 91 94 97 96 95 91 87 86 78 73 66 64 62 68 71 69 70 70 68 69 69 69 71 71 70 69 71 68 66 68 71 73 76
65 69 77 83 84 82 80 81 79 79 82 82 84 88 94 94 93 93 95 97 96 96 94 92 88 81 73 62 58 60 68 74 71 70 72 73 71 71 70 70 69 64 64 68 72 73 72 70 75
63 68 72 75 80 82 81 80 78 79 78 79 84 85 92 94 95 93 94 95 97 98 99 95 90 87 80 75 75 70 71 74 74 74 74 74 71 71 71 71 70 69 73 74 72 72 77 77 79
61 65 68 71 75 78 79 79 80 81 80 78 84 85 89 95 95 95 93 96 98 98 99 100 98 95 91 89 83 75 71 71 72 73 73 74 73 73 74 74 74 74 73 75 77 78 79 82 83
58 60 65 69 71 75 78 77 80 82 84 80 84 85 86 91 93 96 96 94 94 96 98 102 104 102 99 95 94 94 88 83 81 79 75 73 72 73 73 75 77 78 79 80 81 82 82 83 84
53 57 61 63 66 68 76 80 81 86 82 81 82 84 86 85 91 90 92 94 94 95 99 102 105 107 106 104 101 98 97 95 94 92 89 88 88 86 84 84 84 85 86 86 86 85 85 85 86
56 58 60 61 62 66 73 76 86 86 82 82 83 80 83 86 89 89 91 93 95 96 98 99 101 105 110 110 107 104 102 100 98 98 96 95 93 92 91 89 87 87 88 88 87 87 87 87 88
53 53 55 59 62 66 69 73 85 83 81 82 83 83 81 83 87 88 91 93 94 95 97 100 103 104 105 109 112 110 107 104 101 100 98 98 97 96 94 93 91 89 89 89 89 88 89 91 92
49 54 55 58 61 63 66 71 79 78 78 81 84 85 85 86 86 87 92 95 95 96 99 100 103 105 106 106 109 110 112 110 107 104 102 101 100 99 97 96 95 94 94 94 93 94 95 96 98
52 54 55 59 60 62 64 65 72 74 74 77 79 82 86 89 90 91 92 94 96 99 100 100 101 101 103 106 108 109 111 111 111 109 106 102 101 101 99 99 98 97 98 97 98 99 100 101 101
49 54 56 58 59 61 63 62 67 70 70 71 74 77 79 83 88 92 93 95 97 100 101 100 100 102 103 104 105 107 108 110 111 112 112 107 105 103 103 102 102 101 101 101 100 102 104 103 104

GFSSGP_250_spd_087.txt.gz
Wind_Speed
96 97 98 94 93 88 85 84 78 77 75 68 64 63 59 56 57 53 53 53 52 50 50 49 46 46 47 43 42 44 43 39 38 37 36 34 33 32 33 35 35 35 34 34 34 38 34 32 30
96 97 99 99 92 91 88 87 82 81 73 70 67 66 65 62 58 55 54 52 51 50 50 49 47 46 44 44 43 42 42 43 41 38 37 38 36 35 36 36 36 36 38 38 37 36 31 28 26
99 98 99 99 98 89 91 88 91 81 80 76 71 68 63 62 59 57 55 52 50 51 51 48 47 45 44 45 43 44 43 41 41 40 37 38 38 38 39 39 36 38 37 32 35 33 30 27 27
100 100 99 96 96 92 96 91 89 87 84 77 74 69 67 64 61 59 55 53 52 51 50 49 47 46 44 45 45 44 43 42 41 40 38 37 38 39 39 39 38 35 32 32 33 27 25 28 27
100 101 99 97 98 100 94 85 88 89 84 82 80 75 72 70 66 62 57 53 53 52 51 51 48 46 44 43 43 42 44 44 40 41 41 39 38 38 33 33 31 30 31 29 30 27 27 27 27
100 100 100 96 96 103 94 91 92 92 89 86 86 78 78 74 68 64 62 57 54 53 52 50 49 47 45 43 42 41 40 43 42 42 43 42 41 38 35 34 34 35 35 32 29 32 29 27 28
101 100 98 95 100 101 99 96 96 92 91 91 85 82 80 74 69 67 64 63 57 53 51 49 48 45 43 41 40 40 39 39 38 41 41 43 39 37 35 34 32 32 33 35 34 28 29 31 30
104 102 103 103 105 100 106 102 97 96 90 92 92 81 81 77 73 68 67 65 63 59 54 50 48 45 41 40 39 39 38 38 37 38 40 39 38 36 36 34 33 32 30 29 29 31 32 34 36
103 104 102 105 104 99 106 105 101 99 95 93 92 84 87 82 78 73 69 67 65 64 60 55 52 48 43 42 40 39 38 38 37 38 39 37 38 38 37 35 33 32 32 32 34 36 38 40 40
105 104 103 104 106 103 105 111 106 104 101 98 93 88 88 85 80 75 74 70 70 67 65 60 56 51 48 45 42 41 39 40 38 38 39 38 40 38 37 36 35 36 38 38 40 41 40 41 42
104 103 106 106 105 105 105 108 112 109 106 102 100 95 91 88 84 81 77 71 74 70 66 64 60 54 48 46 45 42 42 41 41 39 39 39 40 39 39 38 37 39 41 41 40 39 40 40 41
104 106 107 107 105 106 104 104 112 113 107 104 103 99 95 90 87 84 81 76 72 70 69 66 62 58 53 48 47 45 44 42 43 44 43 39 41 39 39 40 40 42 41 40 40 40 41 41 43
103 101 105 103 105 106 106 105 107 107 111 111 108 104 99 95 93 89 85 80 75 73 72 69 66 62 57 52 51 50 48 46 45 46 47 45 43 44 42 42 43 44 43 42 42 43 44 46 48
95 101 106 105 106 105 107 107 103 103 105 107 108 106 103 98 94 92 85 83 80 77 72 69 67 66 62 57 53 53 52 51 49 49 50 49 49 48 47 47 47 47 45 45 46 46 48 51 52
96 104 101 102 105 105 106 103 100 102 101 101 102 103 104 101 97 93 90 84 81 78 73 71 69 66 66 64 58 54 53 53 52 51 52 52 51 51 51 50 49 48 48 47 48 49 51 53 55
96 100 100 99 102 101 102 98 102 101 100 99 101 99 98 101 100 95 93 90 86 79 77 76 71 68 68 67 64 58 56 57 55 54 54 54 54 54 54 53 52 51 52 52 52 53 54 55 58
90 95 95 97 98 98 97 99 100 100 97 97 96 99 98 97 99 98 95 91 90 87 83 75 72 71 70 69 67 63 63 58 58 58 58 57 57 58 58 57 57 57 56 56 57 58 59 60 60
83 91 93 93 94 93 95 95 99 94 95 98 96 96 99 95 97 97 98 96 93 91 88 84 80 75 70 70 65 63 61 60 59 59 61 61 61 61 61 61 61 61 61 62 63 64 65 66 67
82 87 88 90 89 90 93 95 94 93 98 96 97 97 96 96 97 96 96 97 97 95 91 89 84 81 74 72 71 68 66 63 61 58 58 62 65 65 64 64 64 64 65 66 67 68 70 71 71
74 79 82 87 88 91 94 94 94 92 93 93 94 94 95 97 98 96 97 96 97 98 95 93 90 85 83 78 74 66 68 68 66 67 66 65 63 66 69 69 69 69 69 69 70 69 67 69 70
71 72 78 83 89 89 90 90 91 89 91 92 92 95 94 97 98 98 98 97 95 96 98 97 95 91 87 83 75 70 65 65 70 69 70 70 69 68 67 69 70 70 69 70 70 70 70 70 70
66 68 71 77 82 88 89 88 91 89 86 89 90 92 91 94 98 98 97 97 96 94 94 97 97 94 87 85 80 80 75 71 68 68 68 71 70 71 73 72 71 71 70 71 71 71 71 73 76
63 65 69 74 77 81 86 88 86 86 84 85 87 91 89 88 95 95 94 99 99 97 97 95 95 95 94 91 89 90 88 82 79 76 77 75 73 73 74 75 76 74 72 71 70 71 73 74 75
59 62 65 69 72 71 79 82 85 82 83 85 87 88 87 84 89 93 93 97 99 98 97 96 95 95 97 97 96 92 93 92 91 86 82 77 77 75 77 75 74 73 73 75 74 73 75 78 81
60 61 65 67 67 67 73 74 78 82 86 87 85 85 86 84 85 89 92 94 97 97 99 98 97 95 96 99 101 100 99 97 93 90 87 80 79 79 80 78 75 81 82 81 83 84 86 87 89
59 62 65 67 66 71 71 71 76 86 90 89 85 80 81 81 82 86 89 91 95 96 98 97 97 96 95 98 101 103 103 103 101 99 97 97 95 92 89 90 90 90 89 91 91 93 94 94 95
58 60 64 63 64 65 68 73 78 86 88 86 84 82 81 81 80 82 86 87 91 93 96 97 97 98 98 98 100 102 104 106 105 104 103 103 102 102 100 100 99 99 99 98 98 98 98 99 98
53 58 60 61 62 65 67 70 76 82 85 84 84 85 82 81 82 82 83 85 88 91 94 96 97 98 98 98 98 102 104 105 107 110 111 109 107 106 104 104 105 104 103 101 102 102 103 103 102
47 55 59 62 63 64 67 71 72 78 81 81 84 84 82 81 82 83 82 85 88 92 91 93 96 98 99 100 101 102 103 104 105 108 110 113 113 111 109 107 107 108 108 108 108 105 105 104 104
41 49 56 59 62 65 68 68 72 76 79 78 80 80 81 81 81 84 84 84 89 92 91 92 93 95 97 99 101 103 104 104 105 105 106 107 110 112 115 116 114 112 112 110 108 107 106 105 107

GFSSGP_250_spd_090.txt.gz
Wind_Speed
96 101 103 97 96 89 88 84 85 80 77 64 66 65 62 61 55 55 55 54 52 50 48 47 46 46 46 45 43 41 40 38 37 37 34 35 34 33 31 32 32 32 33 33 35 36 36 37 36
98 100 102 104 95 89 88 90 85 78 71 72 73 72 65 64 62 59 59 57 53 51 50 48 47 47 46 44 43 41 41 40 39 40 40 38 36 36 35 35 34 35 36 35 36 36 36 34 36
100 101 106 102 100 91 90 91 87 84 78 76 78 74 73 66 62 62 61 57 54 52 52 51 49 48 47 46 44 42 40 40 41 42 39 39 39 40 40 37 38 37 37 37 38 38 34 35 31
102 103 102 101 96 93 93 99 97 85 86 83 77 79 74 72 68 65 61 59 56 53 53 50 50 49 47 46 47 45 43 41 40 39 39 39 38 38 38 37 37 38 40 35 35 32 33 29 24
105 102 101 99 101 104 105 101 88 89 90 86 81 74 76 73 68 64 62 56 55 54 52 50 48 46 47 47 46 45 44 42 41 41 40 39 39 37 38 38 38 37 34 33 31 32 32 29 29
105 103 99 94 98 107 109 97 89 95 91 88 86 75 75 77 73 68 64 60 55 53 51 50 47 45 45 46 45 43 43 41 40 40 40 40 41 39 38 39 39 37 36 36 33 36 34 31 34
104 102 97 98 101 110 99 100 96 95 94 91 89 80 79 76 75 69 64 61 60 55 52 52 50 48 46 46 45 46 43 41 38 37 38 37 39 39 39 39 39 37 37 36 35 35 37 37 33
105 104 101 102 105 110 98 100 99 95 91 93 90 83 82 80 77 72 69 63 63 59 58 53 51 49 48 47 45 43 41 40 37 37 37 36 36 36 38 39 37 38 37 36 36 36 34 35 34
104 104 102 103 105 100 98 98 106 101 94 93 90 86 85 82 80 77 74 68 68 65 61 58 52 50 48 46 44 41 38 36 36 35 36 35 34 35 36 37 36 38 38 38 37 37 35 37 39
102 103 101 103 108 104 99 100 106 107 101 98 92 88 88 84 81 79 78 74 71 68 63 60 58 54 49 47 46 43 40 38 37 36 36 36 35 36 36 35 39 37 38 40 38 39 40 42 43
100 100 105 109 107 106 100 103 103 105 106 99 92 89 90 88 84 82 80 77 75 71 66 63 60 59 54 52 50 48 45 42 39 38 37 37 37 37 37 38 39 38 41 40 40 40 43 44 44
97 102 109 107 105 104 101 102 102 105 102 101 96 91 91 88 88 85 82 79 73 75 71 66 62 59 57 56 55 53 49 46 43 40 40 40 40 40 40 40 41 41 40 41 43 43 45 44 44
96 102 108 107 105 102 102 101 105 101 100 104 99 95 92 90 88 87 87 83 76 76 73 69 67 63 60 60 58 57 53 49 46 44 43 42 43 43 43 44 44 44 44 44 45 46 47 47 46
98 102 106 106 103 103 106 103 104 98 100 108 106 100 97 95 92 88 89 87 78 78 75 72 68 64 65 63 60 59 58 54 50 48 47 47 46 46 46 48 48 48 48 48 48 49 50 50 50
91 99 104 106 106 105 107 103 101 102 102 106 110 105 102 99 94 91 89 88 84 78 73 75 75 70 64 63 61 61 59 58 55 50 48 50 49 48 50 51 52 52 51 52 51 52 52 52 53
90 100 104 107 105 106 107 102 102 104 102 102 107 110 105 102 99 95 92 89 86 83 82 78 74 72 62 66 65 65 65 64 59 57 51 48 51 53 53 54 54 55 56 55 55 54 54 54 55
87 92 94 104 108 105 104 101 103 103 103 104 104 109 110 106 103 102 97 96 94 91 88 84 83 77 70 70 68 66 65 66 65 63 61 55 52 56 58 56 57 58 58 59 59 59 59 59 60
82 85 91 100 101 98 98 100 100 101 98 102 100 102 107 110 107 106 105 101 99 96 93 93 89 87 83 76 72 70 66 65 65 65 63 63 62 59 57 59 61 62 63 63 63 63 63 63 63
78 80 84 90 94 94 95 95 97 95 96 97 99 101 102 107 113 110 109 108 104 102 100 98 92 90 85 81 76 71 67 67 60 64 63 65 64 58 57 57 60 65 66 65 66 66 67 67 67
72 72 74 79 86 92 92 92 92 92 93 94 97 101 102 102 104 105 109 108 105 103 101 99 98 94 89 85 81 70 64 64 63 59 56 61 64 64 58 60 62 60 59 59 60 63 66 69 69
72 73 77 76 80 84 86 90 89 91 91 94 96 97 99 102 102 99 101 101 100 100 96 95 95 93 93 89 84 73 68 64 63 59 61 63 65 68 69 68 67 66 67 68 69 68 67 67 69
69 73 73 75 77 82 84 84 90 94 92 93 95 95 97 99 103 100 99 99 97 99 99 97 94 91 90 92 90 82 76 76 71 69 62 56 60 69 75 76 75 73 74 75 73 74 72 72 70
64 66 71 74 77 75 74 74 83 89 91 90 91 91 93 95 100 99 99 100 99 96 98 99 95 92 93 81 90 92 88 84 82 81 78 76 70 72 74 75 74 73 74 74 75 76 74 75 74
56 64 69 72 75 72 75 76 84 84 90 89 89 90 91 92 94 97 92 96 101 99 97 97 98 95 93 97 96 92 94 92 90 87 86 84 86 85 83 79 78 78 77 79 81 78 77 77 77
59 64 68 71 69 69 74 73 78 82 87 87 87 88 89 90 89 94 92 90 96 98 97 98 98 99 99 96 94 95 96 97 98 96 95 93 89 89 89 88 88 88 87 86 85 84 82 80 78
57 62 64 67 68 71 72 70 76 82 86 89 91 89 88 89 89 88 91 89 90 94 95 96 98 100 100 98 96 96 96 96 99 101 101 101 101 98 97 92 91 91 90 88 84 81 82 85 89
52 57 64 64 66 68 68 71 76 80 83 87 89 89 87 87 88 88 90 87 85 91 93 94 96 99 99 97 97 98 97 97 98 102 103 104 104 103 101 100 98 96 95 93 92 93 96 100 100
46 52 57 62 64 68 70 73 75 80 84 84 85 87 87 87 88 88 88 84 83 86 88 90 91 95 98 98 97 98 99 99 100 101 103 105 106 106 106 106 107 105 103 103 102 102 103 104 104
47 50 51 58 64 66 70 73 74 75 78 81 83 84 85 88 88 89 88 81 80 82 86 87 88 91 96 98 97 98 100 100 100 101 102 102 105 106 107 109 110 109 109 109 107 109 108 108 109
44 47 50 52 57 63 69 69 71 73 76 78 79 81 83 85 87 88 85 81 79 80 83 85 86 91 95 96 97 98 100 100 100 101 101 103 105 105 105 106 109 110 111 112 113 116 116 115 117

GFSSGP_250_spd_093.txt.gz
Wind_Speed
100 97 96 95 96 92 87 84 84 84 80 68 63 62 61 54 55 56 58 54 51 48 46 45 43 40 40 40 40 38 37 35 34 35 34 33 31 31 30 31 31 31 32 32 32 33 35 34 36
105 98 98 99 90 91 91 90 87 83 79 72 66 65 62 58 49 60 59 57 52 50 49 48 47 45 43 41 42 40 40 39 38 38 36 37 37 36 36 36 34 34 36 34 35 37 36 37 38
104 103 101 99 95 89 91 95 91 85 80 79 73 68 63 61 53 50 56 59 55 53 52 50 48 47 45 44 44 42 42 41 39 39 40 38 38 39 37 37 36 37 36 36 36 36 38 37 34
99 104 102 97 101 93 98 103 99 88 84 80 79 71 73 66 65 66 55 54 56 56 55 52 50 49 48 45 43 43 42 41 39 38 37 37 38 37 37 37 38 38 36 36 36 35 34 33 32
98 103 102 96 105 104 103 102 97 90 87 86 81 76 73 70 67 68 65 62 59 57 56 55 52 50 48 45 43 44 43 42 41 40 40 40 38 37 37 37 36 37 36 37 37 35 36 33 35
97 102 99 95 103 113 112 100 91 92 94 89 83 81 76 75 68 71 65 65 57 60 58 55 53 50 49 46 42 43 43 42 42 41 39 40 39 38 37 38 38 39 38 37 38 35 36 36 38
93 100 96 97 104 115 111 108 100 98 95 88 85 83 74 78 73 77 68 67 66 61 59 55 55 52 49 44 42 42 40 39 40 40 38 38 37 37 36 36 37 37 37 37 38 36 37 38 37
96 101 101 103 107 116 104 106 104 96 97 92 90 86 83 79 77 73 71 73 70 63 60 56 52 49 48 45 43 43 41 40 40 40 39 37 36 35 35 35 34 34 35 36 36 37 38 39 39
97 100 105 104 112 106 106 108 103 101 97 95 91 90 88 84 83 78 71 71 73 68 63 60 55 52 50 47 46 46 43 42 42 38 36 34 33 34 33 33 33 33 34 35 36 39 39 39 41
99 100 105 107 108 108 103 104 106 106 104 100 94 92 92 87 87 80 75 69 68 69 68 61 59 55 52 50 48 46 45 43 41 39 36 34 33 34 34 33 32 33 34 35 38 36 38 41 41
101 101 102 107 109 109 105 102 106 109 106 104 95 95 93 92 91 86 81 78 69 67 68 65 61 59 58 54 51 47 46 45 43 41 39 38 37 36 36 34 34 35 34 37 40 38 40 41 42
102 103 101 107 110 107 105 103 105 106 110 106 103 96 94 93 93 88 84 82 75 71 70 70 66 63 60 57 56 54 52 49 46 46 45 43 42 40 39 39 38 39 39 38 41 41 43 43 43
101 103 103 105 109 109 104 105 103 101 105 107 105 102 100 94 93 89 85 83 80 74 71 70 70 66 64 61 59 57 56 54 53 51 50 47 45 44 41 41 43 42 41 42 44 44 45 46 46
94 100 101 103 107 108 104 105 100 100 101 103 102 102 103 100 94 90 88 87 82 79 73 71 72 72 70 66 62 59 57 55 54 53 52 51 48 45 46 46 47 46 45 46 47 48 50 50 49
92 100 103 101 102 105 107 104 100 102 102 103 102 101 102 103 97 90 87 85 85 81 79 75 73 72 70 69 67 64 62 59 58 57 55 53 51 49 48 49 50 51 50 50 51 51 52 53 53
86 97 100 102 102 105 103 103 103 105 104 102 103 100 100 103 103 97 91 87 84 83 83 82 77 74 74 69 69 68 65 60 59 57 55 56 54 52 55 54 51 52 52 54 55 56 56 56 57
80 86 93 98 99 100 102 106 104 104 103 102 100 101 100 101 102 103 97 92 88 87 83 81 81 79 79 77 75 74 70 68 65 62 59 58 58 60 58 60 59 53 53 55 58 59 60 60 60
76 84 87 94 99 100 102 104 104 99 98 102 100 100 99 99 100 102 101 97 92 88 84 85 82 81 79 78 72 72 71 69 60 58 58 58 58 60 62 64 63 61 63 59 58 60 64 63 63
77 80 85 91 97 98 99 101 99 99 96 99 100 99 100 99 102 102 102 101 97 94 90 90 87 79 80 85 84 80 78 72 68 64 63 65 65 65 63 65 66 65 65 65 65 61 59 57 55
64 67 72 75 90 92 95 95 94 94 90 95 99 98 99 101 100 101 102 104 104 100 97 93 92 90 89 87 85 83 82 80 75 70 70 68 50 46 49 53 56 59 60 65 64 61 62 63 62
67 66 69 74 78 89 88 89 88 87 87 90 95 96 99 99 101 100 101 103 106 106 104 100 97 96 95 94 92 90 85 82 75 72 71 70 63 52 40 42 43 53 60 65 63 61 62 64 68
67 65 62 66 73 76 74 80 82 81 83 79 87 93 93 97 96 100 101 102 105 107 107 107 102 99 97 98 97 90 88 89 80 81 83 79 73 67 67 64 64 66 67 67 68 70 73 74 76
61 63 63 63 65 66 68 69 75 77 72 79 84 90 92 94 96 97 101 103 101 104 106 107 107 105 102 103 103 99 98 96 92 84 83 84 81 74 67 71 75 77 75 69 69 72 74 73 74
57 65 69 63 61 59 63 63 70 74 80 81 82 87 91 94 94 96 97 98 101 101 101 104 108 108 103 100 86 88 101 99 95 90 89 85 86 86 84 86 87 83 82 85 81 77 80 80 80
53 61 67 67 58 56 68 64 70 79 81 82 81 84 90 93 94 95 94 96 97 98 102 104 103 103 103 101 100 97 90 93 95 94 90 85 88 93 96 92 89 87 87 90 91 90 90 90 89
50 58 62 66 63 66 70 62 71 79 74 75 78 82 90 94 96 95 93 93 95 98 99 101 103 103 102 100 99 99 99 93 93 97 98 94 94 92 93 95 98 99 99 97 96 95 93 93 92
49 53 58 63 67 69 69 68 73 76 74 72 75 80 87 91 93 95 93 92 90 92 96 97 98 97 98 99 101 101 102 99 97 96 96 96 98 102 100 101 102 103 104 104 102 101 101 102 101
41 52 55 62 65 67 71 72 74 75 75 71 70 77 82 86 92 94 93 93 89 89 91 93 94 94 93 95 98 100 100 99 99 100 97 98 99 102 103 104 108 108 108 108 108 108 107 106 106
36 45 53 60 62 65 69 73 74 75 74 75 73 78 78 81 86 89 90 90 90 88 87 89 91 90 89 91 94 95 96 97 98 98 101 101 101 101 102 104 106 104 106 108 108 111 111 111 111
25 37 47 54 57 62 68 71 74 75 77 77 76 75 76 81 82 85 86 86 87 89 89 87 86 86 87 87 88 91 94 95 98 99 99 102 103 103 102 103 104 104 106 107 107 106 106 108 109

GFSSGP_250_spd_096.txt.gz
Wind_Speed
93 97 97 95 96 93 90 89 87 87 82 74 72 67 64 56 55 56 53 52 48 46 46 44 44 42 41 38 37 36 34 33 32 32 30 30 30 30 30 29 29 30 31 31 32 34 35 35 36
90 97 100 99 91 91 93 91 90 86 84 78 73 69 63 60 57 57 59 56 54 49 48 46 45 44 42 41 39 39 38 37 36 36 36 35 35 34 34 35 34 34 33 33 33 35 35 35 36
83 93 102 99 93 84 96 96 93 93 88 81 75 72 67 65 62 58 56 58 57 56 52 49 47 44 44 43 42 41 39 38 38 38 39 38 37 37 37 38 37 38 36 35 36 37 36 36 36
87 92 101 100 92 86 98 104 98 96 94 80 79 76 72 66 66 61 56 55 58 59 56 53 51 49 47 46 45 43 41 39 39 39 38 37 35 35 35 35 35 35 35 37 36 37 36 37 37
94 94 96 97 94 92 98 106 102 97 95 90 82 80 73 68 68 61 60 53 54 55 58 56 53 51 50 48 47 45 43 41 40 40 39 37 37 37 37 37 36 37 36 36 36 37 36 38 36
98 96 90 95 96 100 105 106 99 101 97 93 87 80 75 71 62 59 61 60 55 54 59 58 57 54 53 51 48 46 45 42 41 40 40 40 38 36 37 36 36 36 35 35 36 37 35 36 35
101 97 93 102 103 107 106 103 99 103 98 93 89 80 76 67 62 63 63 61 63 54 50 54 56 58 55 53 50 48 46 43 42 40 38 38 35 35 36 34 34 34 33 33 34 33 33 34 34
101 99 103 106 111 110 109 106 100 99 99 93 93 82 77 74 71 66 54 68 73 67 64 61 58 58 55 54 52 49 46 41 41 39 37 36 35 36 36 34 32 32 32 31 31 32 33 33 34
101 102 103 108 113 114 107 108 101 104 101 95 92 86 85 77 74 74 74 76 71 70 68 64 61 58 56 55 54 52 47 44 41 41 40 39 36 35 33 31 30 29 30 30 29 29 32 32 36
101 101 102 107 111 112 109 112 105 103 103 99 96 90 86 84 83 77 48 72 74 72 67 65 61 63 59 56 52 50 47 46 44 44 42 41 38 36 34 32 32 32 31 32 31 32 32 34 37
103 102 103 106 107 112 113 111 109 105 109 103 101 93 93 88 85 84 84 65 74 72 67 65 62 61 64 60 55 53 50 49 49 47 43 42 40 38 37 35 36 37 35 35 35 36 36 37 39
101 99 100 104 107 109 111 111 104 102 108 108 103 97 93 95 89 88 85 85 82 67 71 69 66 59 61 63 59 56 55 54 51 48 44 42 43 42 42 41 41 40 39 38 39 40 40 40 42
98 91 99 102 104 105 109 109 104 103 108 108 102 98 96 90 88 91 89 87 90 85 80 75 70 64 63 59 61 59 59 59 55 52 49 48 47 46 46 45 45 43 41 42 43 43 44 44 44
93 96 96 99 100 104 105 107 107 104 107 109 109 104 100 99 96 90 92 93 92 86 85 80 78 69 63 60 60 61 63 60 59 56 54 52 51 51 50 49 49 48 45 46 47 47 48 49 49
88 100 99 100 100 100 101 106 109 106 106 108 109 109 108 106 101 99 91 97 93 89 82 81 79 76 74 68 64 64 65 64 61 60 57 55 53 53 53 53 52 51 51 51 50 50 50 51 53
79 93 97 98 100 99 101 102 108 106 105 104 107 106 107 109 103 101 100 97 96 92 87 84 82 76 77 77 71 68 66 66 66 64 62 59 56 55 54 52 53 54 53 54 56 54 52 52 53
75 86 95 96 97 102 102 102 105 107 107 105 103 104 106 109 106 107 103 100 99 96 91 87 84 83 79 76 76 73 71 69 68 67 65 63 61 57 55 56 56 57 57 59 60 59 59 58 58
72 82 94 96 102 107 102 100 102 105 108 105 105 104 103 104 108 104 100 103 100 95 92 92 91 85 86 82 77 76 72 71 67 68 64 61 64 64 64 56 55 58 60 60 59 59 61 61 61
67 70 83 90 96 102 100 100 99 100 104 108 106 104 101 98 98 101 105 100 99 102 99 98 96 94 89 84 81 82 80 78 76 73 72 70 67 65 59 60 61 61 60 59 55 55 59 60 60
57 62 73 84 87 93 96 98 99 98 99 103 108 106 102 99 98 98 98 99 101 96 91 100 101 94 93 88 88 86 82 80 78 76 71 70 67 67 69 64 62 64 63 66 64 62 64 68 69
63 61 65 76 86 84 89 94 91 94 95 97 100 104 103 101 99 98 97 96 98 96 89 95 101 103 95 92 83 85 77 77 78 77 79 76 73 69 63 65 69 74 73 73 74 76 77 78 77
60 63 64 67 71 78 85 90 90 90 92 93 93 102 105 105 103 101 98 96 97 98 101 99 97 95 98 100 95 90 86 77 80 80 78 78 79 74 74 77 76 76 74 73 75 75 78 74 69
54 60 64 68 70 71 76 82 87 86 86 89 89 94 99 102 102 101 101 100 99 100 100 100 100 99 95 93 98 94 88 86 85 93 88 88 87 86 84 85 83 84 80 78 78 83 82 79 77
54 58 61 62 67 65 68 72 79 84 85 86 86 88 91 95 97 97 99 101 100 99 99 101 96 96 97 99 98 95 95 91 90 89 88 93 96 95 96 97 95 93 89 87 85 87 88 84 82
47 55 60 62 64 58 64 66 70 76 81 82 84 87 86 88 91 93 97 98 101 102 102 102 103 102 95 91 88 90 84 92 105 100 100 97 95 94 98 101 102 98 95 96 97 90 87 88 90
40 49 54 59 60 56 64 60 66 71 74 78 83 84 84 87 89 89 90 94 99 102 104 104 104 104 102 101 98 97 100 97 87 80 84 95 102 103 95 93 95 101 97 97 95 96 97 97 97
34 46 55 60 61 58 60 58 70 76 70 72 76 79 82 83 82 85 88 93 98 99 101 104 105 105 104 102 101 101 101 103 104 104 107 107 106 103 105 102 100 96 95 98 99 99 97 98 100
27 41 52 57 61 62 58 59 63 70 71 69 72 74 76 80 83 85 88 91 96 98 100 101 101 101 100 100 100 101 102 102 104 104 103 105 103 103 104 102 99 99 97 97 101 102 105 105 106
19 30 44 56 60 64 64 60 65 67 70 72 75 77 80 81 84 84 84 86 91 95 97 98 99 98 98 98 98 99 100 101 100 100 102 103 103 105 105 106 105 102 101 101 102 102 103 104 106
18 22 30 44 56 62 64 66 69 70 71 73 74 74 77 79 80 81 84 85 88 90 93 95 97 97 97 97 96 95 95 95 96 99 99 99 101 103 103 103 103 102 102 102 103 103 103 102 104

GFSSGP_250_spd_099.txt.gz
Wind_Speed
76 75 80 88 90 86 83 88 91 89 86 81 76 72 71 65 59 56 53 51 49 46 43 43 42 42 41 42 40 39 40 39 32 32 30 26 28 28 27 27 29 29 30 32 31 31 31 32 34
80 79 80 84 87 83 81 90 93 90 88 84 77 73 71 69 61 60 56 54 52 49 46 43 43 44 43 43 42 39 41 41 37 36 34 33 33 33 33 33 34 35 35 35 37 35 35 35 35
80 84 81 81 85 83 84 88 93 93 90 87 80 75 72 70 65 62 59 55 54 52 48 47 45 44 44 44 43 42 40 38 37 35 36 35 35 35 35 34 34 34 34 35 36 35 35 36 34
81 85 84 77 83 90 88 94 96 98 95 90 84 79 74 72 69 66 59 56 57 55 53 50 49 47 47 47 44 43 42 40 37 38 36 35 34 33 32 32 33 34 33 35 36 36 36 36 35
81 85 86 75 83 95 95 98 98 100 97 91 87 80 74 75 72 70 66 59 54 56 56 54 53 50 50 49 48 46 45 43 41 40 38 37 35 34 34 34 34 34 35 35 34 34 33 34 33
80 91 89 79 87 101 101 102 100 103 101 92 90 77 78 76 71 73 68 64 58 52 55 58 57 55 53 52 52 50 47 45 43 41 40 40 38 37 36 35 34 33 32 33 32 31 31 31 30
87 101 90 86 95 104 107 106 103 104 101 98 91 86 84 71 73 71 67 64 59 56 55 54 55 59 58 55 54 52 50 48 46 44 41 41 40 36 33 31 31 32 32 32 31 30 30 29 27
82 93 95 89 97 109 113 107 101 100 100 94 95 94 81 76 72 69 70 66 61 61 59 52 51 56 57 56 57 55 53 52 49 47 43 40 40 36 32 32 31 30 30 30 29 28 27 26 27
81 91 89 95 100 113 113 111 105 104 101 99 103 93 87 77 72 70 67 64 62 63 63 61 63 57 60 61 57 56 55 55 52 49 45 42 42 39 36 34 31 29 28 29 30 29 30 27 29
78 92 94 98 103 114 113 113 103 104 104 100 99 98 90 84 79 54 68 56 57 64 60 61 58 61 53 53 52 56 54 55 53 49 47 46 43 43 40 38 33 31 31 31 32 33 32 33 32
80 90 91 98 106 112 114 114 109 105 107 100 91 101 93 88 83 76 68 61 57 64 59 57 64 71 68 64 63 63 59 54 51 50 46 46 46 45 43 41 36 34 33 35 37 36 36 37 39
83 96 94 101 109 108 115 114 109 107 105 102 98 96 94 89 84 78 69 47 45 58 58 65 72 70 71 67 62 61 57 59 59 54 50 48 49 47 45 42 39 38 38 40 41 40 41 41 41
81 95 96 100 106 108 112 114 110 108 108 108 107 94 94 85 86 80 75 61 51 50 45 59 70 71 63 66 57 58 57 58 59 58 53 54 53 50 48 46 45 44 45 47 47 46 45 44 45
76 91 93 99 104 106 108 114 112 109 107 109 103 98 97 87 84 86 83 88 63 58 65 56 56 58 59 61 58 60 60 62 60 53 54 55 56 54 51 50 50 50 49 49 50 51 48 47 49
74 83 87 93 101 102 105 110 112 109 108 106 92 101 94 85 66 81 85 87 82 71 59 80 61 56 56 62 64 63 64 62 61 59 56 54 55 56 55 54 51 52 51 52 53 53 50 50 51
69 80 82 93 95 100 102 106 110 109 108 108 104 103 95 88 91 87 87 86 91 83 88 87 87 83 82 77 77 75 74 71 64 62 59 57 57 58 58 56 55 55 56 53 52 53 54 55 55
58 75 81 86 92 97 100 101 105 108 109 108 105 101 106 96 83 84 80 83 86 92 84 83 82 89 92 87 82 85 82 78 74 71 66 64 62 61 61 61 60 58 57 56 59 58 54 55 57
52 72 80 83 84 92 96 97 102 106 108 108 106 103 103 101 100 89 89 87 82 93 94 93 87 83 80 70 78 82 82 84 79 77 74 70 67 63 63 64 62 60 60 62 61 60 58 57 52
48 55 70 76 77 86 91 97 100 102 106 106 108 107 103 105 104 99 98 101 89 85 94 96 98 101 96 87 90 91 91 85 80 80 79 73 73 69 64 62 61 65 68 63 62 61 65 71 72
40 48 62 71 70 76 88 90 95 102 102 107 107 107 106 103 107 102 103 96 99 99 93 96 98 94 94 96 89 81 83 84 84 80 78 77 74 71 68 67 69 70 65 65 66 74 80 81 77
44 49 58 65 70 74 82 88 98 101 100 104 107 108 107 106 104 107 110 109 101 103 107 106 108 107 103 103 101 99 96 92 87 87 87 88 84 79 77 74 74 72 76 78 78 78 77 77 80
50 55 57 62 66 70 77 88 90 95 97 98 101 105 107 106 105 103 103 109 116 113 107 108 108 100 99 100 104 100 94 96 90 95 84 78 80 78 78 73 73 75 79 81 80 83 81 80 84
49 56 61 63 64 67 71 77 83 85 89 89 97 100 102 105 105 104 104 105 107 114 116 114 111 105 93 83 86 87 83 94 88 81 86 80 67 65 71 78 81 84 84 80 84 83 85 84 87
41 49 57 60 66 68 68 72 78 79 87 89 94 97 98 100 102 103 104 105 105 105 105 105 107 110 115 112 91 92 86 79 81 89 91 88 87 82 78 77 84 89 89 90 92 91 88 83 80
34 46 52 58 64 65 72 74 72 76 82 83 87 91 95 99 100 101 102 103 106 107 105 105 104 104 104 97 98 97 90 83 82 85 87 92 94 94 93 98 99 99 98 90 90 94 96 97 99
31 38 47 52 58 62 73 70 68 73 75 79 80 84 91 95 99 100 100 102 105 107 107 105 104 103 102 101 92 91 97 95 94 88 92 91 89 90 97 101 103 107 110 106 102 99 100 102 101
27 32 42 51 58 62 67 64 73 75 76 78 78 81 86 89 94 97 99 98 98 103 105 105 107 107 105 104 103 103 101 97 95 93 89 86 86 93 95 95 99 105 105 105 105 99 96 95 98
23 32 35 44 52 54 56 62 68 73 78 78 78 79 83 88 90 91 93 98 98 96 100 103 107 108 108 108 108 107 107 106 105 102 101 98 99 99 101 100 100 102 104 104 105 105 105 105 106
20 24 30 38 44 54 57 60 68 74 75 75 77 80 82 84 85 87 89 91 93 93 96 97 99 102 106 108 110 111 111 109 109 107 106 105 103 103 104 105 106 109 108 108 109 109 108 106 104
21 21 24 32 37 50 56 59 64 70 74 76 76 77 79 80 82 84 85 86 88 91 94 96 98 99 101 102 105 107 108 107 107 108 106 105 105 105 105 107 107 107 106 105 106 106 105 106 105

GFSSGP_250_spd_102.txt.gz
Wind_Speed
94 92 91 76 72 71 67 71 82 83 88 82 78 72 68 71 66 61 58 54 52 49 47 44 41 39 37 37 38 38 38 37 37 36 33 30 27 24 25 26 28 28 29 30 31 32 33 33 32
89 95 96 77 70 68 65 70 85 85 87 86 83 77 74 73 66 65 62 57 54 51 50 48 45 42 40 38 39 40 40 39 38 36 33 31 31 32 32 32 32 34 34 34 33 33 32 33 34
87 94 93 87 71 67 63 71 88 90 95 90 86 82 77 72 70 66 64 60 55 52 52 50 48 44 42 41 41 42 43 40 37 36 34 31 30 31 32 32 33 33 32 32 33 33 33 33 33
89 94 92 84 75 73 67 76 92 95 94 91 89 84 78 74 72 69 67 62 57 55 54 51 48 45 44 42 43 43 42 41 37 35 32 31 31 32 31 30 31 31 31 30 32 34 34 32 31
93 98 95 89 82 78 74 82 92 95 92 98 93 84 80 77 72 71 70 66 61 57 56 53 51 47 45 44 44 45 45 42 40 39 37 35 34 33 31 32 32 33 34 34 34 32 30 29 28
90 93 95 92 89 81 77 84 92 96 97 102 95 86 80 80 75 73 72 68 64 60 57 55 54 51 49 47 45 47 47 46 43 42 41 39 37 35 34 32 31 31 31 32 30 29 28 27 27
85 89 95 90 85 82 82 87 92 96 99 95 95 88 77 81 78 75 74 69 68 62 59 58 57 54 52 52 50 49 50 49 47 46 43 43 41 38 37 36 32 29 27 29 28 25 25 26 26
77 85 90 96 86 81 83 90 94 100 97 94 94 92 80 77 78 78 77 72 71 67 63 58 54 54 55 55 54 53 52 53 51 49 48 45 46 41 39 38 36 33 30 29 28 24 23 25 26
68 73 78 85 85 90 88 91 92 101 93 86 91 91 82 75 75 78 79 77 72 71 68 65 59 53 52 54 54 53 55 55 56 54 51 47 44 44 41 41 40 37 34 32 30 26 27 26 28
60 70 73 81 83 91 93 93 98 102 93 90 84 90 87 81 75 77 78 77 72 71 68 66 62 59 55 55 52 50 51 55 56 54 50 49 47 44 42 42 43 42 39 37 34 31 30 32 32
55 57 68 76 80 92 99 99 100 104 102 91 88 85 81 89 83 79 74 70 71 72 68 66 61 60 62 60 57 55 59 58 60 58 50 46 48 47 42 43 42 43 42 40 36 35 35 36 38
54 60 67 73 77 90 98 98 104 108 104 100 93 84 83 93 85 79 73 64 73 72 67 61 61 66 66 63 64 60 56 55 56 54 51 57 55 50 47 47 46 45 44 43 40 41 43 44 45
57 60 68 73 79 90 92 95 102 109 107 107 89 85 87 89 85 76 75 63 67 68 66 58 61 66 71 67 62 57 61 59 57 61 62 58 49 50 50 52 47 48 48 46 47 47 48 48 47
49 57 72 77 83 88 91 92 104 110 110 103 101 86 93 93 86 84 63 53 63 59 54 53 59 62 59 62 60 59 59 59 61 66 62 57 56 55 52 48 48 50 47 48 50 49 49 48 50
44 58 71 80 79 85 92 91 103 108 109 95 107 105 96 88 94 92 89 80 71 69 64 62 50 57 57 57 60 61 64 65 62 56 54 58 55 54 55 55 55 53 51 52 52 52 52 52 54
48 60 72 78 80 81 88 92 98 108 109 103 87 98 94 92 98 87 86 85 82 77 68 58 52 51 52 57 61 61 58 57 57 54 55 57 57 58 58 56 53 56 56 56 58 58 59 59 58
42 61 68 74 78 80 85 90 95 105 109 108 100 93 98 85 75 71 80 85 85 74 75 59 49 46 49 55 58 62 65 61 55 58 60 61 62 63 64 62 59 58 60 59 60 62 61 62 59
25 49 59 69 62 73 84 87 93 99 107 107 104 95 93 92 85 66 73 79 89 78 75 72 66 62 63 61 63 65 72 76 75 75 78 84 80 76 75 70 68 67 69 66 63 63 64 61 62
19 36 52 66 61 59 71 81 87 96 105 108 105 100 98 95 94 80 71 62 72 84 80 77 85 84 84 79 66 71 85 85 79 86 83 76 73 76 80 73 68 71 73 72 66 65 66 67 69
21 28 40 52 54 66 62 76 82 92 102 108 108 107 101 98 94 82 80 73 70 78 82 79 77 70 79 60 78 55 59 57 63 68 65 65 71 71 74 76 74 73 72 71 75 76 78 80 84
27 31 34 44 46 54 59 67 81 89 96 105 109 109 106 111 106 88 85 91 76 70 69 83 80 77 73 75 66 75 74 64 66 73 74 79 70 69 71 71 75 73 73 75 77 77 78 81 82
23 36 37 41 45 50 57 57 68 83 91 99 107 110 112 114 111 110 100 91 100 89 91 83 81 88 87 79 82 75 70 75 79 83 86 83 73 78 70 73 65 64 66 73 74 74 77 79 80
21 31 44 43 49 48 50 54 60 74 86 89 99 107 112 114 113 111 111 105 100 100 96 99 95 87 92 96 86 90 78 94 87 86 74 78 77 75 80 80 80 83 79 78 72 73 78 82 78
25 29 41 53 52 53 52 53 58 59 72 93 100 103 108 113 115 114 114 113 112 109 106 100 97 98 100 94 99 96 97 95 94 96 96 94 91 87 86 85 82 76 83 86 85 90 91 89 85
29 28 35 42 47 52 58 55 57 61 68 76 87 98 101 107 109 113 112 112 113 118 115 114 113 112 112 109 110 109 106 111 106 99 97 102 95 84 72 74 73 82 86 90 90 89 101 101 103
28 30 30 37 45 52 63 58 64 64 66 69 73 80 91 99 101 106 109 111 112 113 117 122 114 115 115 116 116 114 114 110 102 105 107 107 108 91 87 92 90 91 95 90 91 98 104 106 108
27 27 29 35 41 48 57 55 66 70 70 73 75 76 83 90 96 103 105 108 109 112 113 113 116 120 121 117 116 117 119 117 118 115 115 116 115 117 113 111 103 101 100 101 102 101 102 104 108
28 27 26 29 35 43 49 56 63 72 77 78 78 80 83 86 91 98 102 105 105 106 107 109 110 111 114 118 121 122 119 120 121 119 117 114 113 111 103 104 104 104 107 108 106 106 106 106 102
32 25 24 26 29 35 45 57 67 73 76 77 78 81 83 86 88 92 97 102 103 105 107 108 109 111 113 112 112 111 112 112 113 114 116 115 113 111 110 110 110 107 103 104 104 103 101 107 111
37 25 21 20 23 32 40 50 67 74 77 77 80 83 84 85 87 90 94 101 105 107 108 111 111 112 112 112 112 113 114 113 115 115 114 115 116 114 113 112 110 109 106 105 107 108 111 111 111

GFSSGP_250_spd_105.txt.gz
Wind_Speed
95 93 92 86 82 58 53 57 64 69 72 77 81 78 70 68 68 64 61 57 54 51 48 44 40 37 36 36 35 35 35 34 34 33 32 32 29 26 26 25 24 26 27 28 31 32 32 32 31
96 98 95 83 73 64 46 53 62 67 72 77 81 81 75 73 72 69 65 59 58 55 53 48 45 42 39 37 37 36 35 35 33 31 32 32 30 28 26 26 28 31 32 32 32 32 31 31 29
101 98 88 80 70 63 58 55 63 73 73 78 81 81 80 76 76 71 68 62 59 57 54 51 47 45 42 40 40 39 38 38 37 34 32 31 31 29 27 26 25 26 27 27 27 28 27 29 30
90 93 89 78 69 68 69 72 71 75 72 73 78 81 77 80 78 75 71 66 63 59 58 54 50 48 45 44 43 41 41 40 39 36 33 33 30 27 26 25 26 25 27 28 29 30 31 32 28
86 83 84 78 71 75 74 77 85 76 73 72 82 79 77 80 79 75 72 70 66 62 60 57 52 50 48 46 44 43 42 41 40 37 34 33 32 33 31 29 27 26 26 28 29 28 29 27 25
76 79 82 83 76 80 82 83 81 78 77 73 76 78 82 77 79 76 74 72 69 65 62 61 56 51 50 49 46 44 43 42 42 40 37 36 36 36 35 33 33 30 27 26 26 26 26 26 23
74 79 84 88 83 83 80 84 79 76 79 74 82 86 83 78 76 79 76 74 70 68 64 61 57 55 53 51 49 46 44 44 45 42 40 39 39 38 37 36 36 35 32 28 28 27 26 26 22
73 81 85 92 92 92 87 89 88 82 82 80 78 77 85 74 74 79 79 76 72 71 66 65 60 55 53 52 51 50 48 46 45 45 44 44 43 42 41 38 34 37 36 34 32 30 29 28 25
67 80 85 90 95 97 90 93 94 90 84 77 76 74 66 70 81 78 80 77 73 70 69 68 65 60 57 55 53 52 51 49 49 50 48 47 46 44 43 39 37 36 37 36 36 35 32 31 31
52 65 78 88 91 95 99 100 96 90 84 80 80 93 69 69 60 78 78 79 77 74 72 69 68 64 59 55 53 52 51 52 53 53 52 45 43 45 42 40 38 39 38 38 38 37 36 34 33
48 59 71 84 93 91 98 95 95 86 84 81 80 84 76 81 68 72 76 77 80 79 74 71 69 67 64 62 58 54 51 50 51 51 51 45 46 50 49 45 42 46 43 39 42 42 39 37 36
46 59 68 72 83 88 89 92 92 85 85 86 93 102 72 86 45 59 64 79 75 81 76 73 71 68 69 67 64 60 57 53 52 50 47 51 52 54 55 47 46 45 44 41 45 44 44 42 42
39 48 52 63 74 79 83 90 94 86 90 90 98 101 104 98 57 68 83 82 74 74 79 74 71 69 67 65 63 61 58 57 57 56 59 56 52 52 49 52 50 53 50 47 44 47 46 45 46
32 38 50 54 59 65 80 88 90 90 89 89 85 89 107 93 82 77 63 72 78 66 69 70 69 68 66 65 65 60 60 61 57 62 57 56 58 51 52 56 56 54 53 51 50 49 52 51 51
21 42 48 53 56 61 71 82 89 91 89 89 94 76 81 99 103 88 62 57 55 71 67 68 63 61 62 66 66 59 59 54 55 57 59 53 49 54 62 60 61 55 53 50 51 55 54 57 56
10 33 39 50 55 58 62 73 80 88 86 82 84 86 73 92 96 91 78 67 55 64 57 62 65 61 59 65 65 63 58 59 59 58 58 61 61 57 60 61 51 50 52 53 52 54 57 59 61
7 19 36 44 56 58 58 65 75 86 87 95 90 85 80 71 81 98 92 88 88 83 75 76 70 54 52 54 56 55 52 49 53 51 51 51 54 50 50 50 53 52 56 58 66 65 62 66 65
4 14 23 41 46 51 57 61 72 84 94 103 96 90 86 86 80 83 94 93 83 67 57 70 73 60 60 60 61 57 55 55 56 56 53 57 58 58 54 57 59 66 63 73 69 65 60 65 65
1 10 18 23 44 42 51 58 65 83 96 111 98 97 97 98 85 73 75 78 79 69 67 63 62 61 54 50 47 48 54 56 60 57 63 64 62 60 56 58 66 71 58 53 57 58 60 60 62
8 8 12 32 36 41 34 52 65 79 93 117 109 102 107 106 96 100 86 91 86 86 68 72 64 61 63 63 63 57 49 55 57 58 67 65 69 67 68 57 52 50 52 54 56 61 60 63 63
11 15 18 22 26 30 22 28 52 72 91 109 119 108 102 101 97 92 93 93 97 100 95 85 84 68 68 61 56 58 60 59 60 56 36 52 58 58 66 63 55 52 56 56 62 65 68 71 75
17 16 20 25 28 30 32 32 42 66 84 100 119 119 108 100 98 93 88 86 82 80 91 92 94 77 70 61 57 55 44 53 54 46 30 42 45 50 60 57 53 54 62 68 68 68 72 77 83
23 17 19 25 31 35 32 32 32 44 76 93 107 122 118 113 101 96 97 93 88 84 80 77 81 82 65 69 71 60 70 68 52 57 53 69 59 67 66 58 50 55 60 63 67 67 72 59 76
26 22 22 25 31 36 36 36 38 36 66 85 103 113 121 123 119 117 110 105 103 90 89 85 85 96 86 69 58 67 71 75 82 85 82 84 83 66 72 63 65 69 72 72 68 73 78 81 79
27 24 23 26 31 37 43 41 45 42 47 73 85 106 120 123 123 118 114 115 117 111 95 98 95 98 95 94 91 90 79 81 88 88 79 77 78 79 82 82 82 82 85 85 88 91 94 90 92
30 24 22 24 30 39 43 47 51 53 51 60 71 94 110 121 120 121 120 114 110 106 107 98 94 89 103 107 99 95 97 86 88 91 94 91 92 90 90 92 90 91 89 94 100 100 95 93 98
34 26 21 21 31 39 43 47 57 56 57 58 68 79 102 113 120 121 122 119 118 112 106 104 106 102 95 94 96 94 96 97 99 97 97 97 97 98 97 100 102 104 109 106 108 104 99 101 105
34 27 19 20 26 35 43 52 60 57 59 61 64 69 80 103 113 121 123 120 119 114 113 114 106 98 102 104 103 103 101 103 100 101 104 108 111 111 114 113 118 120 118 117 110 111 114 117 121
37 31 21 16 19 29 41 53 61 64 61 67 69 70 75 83 99 111 121 125 124 122 119 121 119 120 117 118 117 115 114 115 116 115 116 115 118 122 122 124 126 124 126 125 124 125 129 132 125
46 35 25 13 13 23 36 49 57 65 65 67 72 72 74 76 84 90 108 118 127 128 124 125 129 129 126 125 124 122 121 121 120 120 123 124 126 126 125 126 128 132 130 132 133 134 132 127 125

GFSSGP_250_spd_108.txt.gz
Wind_Speed
79 88 88 90 72 61 55 51 57 58 66 68 69 70 77 77 72 68 62 60 57 55 49 46 45 42 38 36 34 33 33 36 35 33 28 28 29 29 28 22 21 24 24 26 29 30 31 30 30
82 92 99 92 53 51 56 69 59 58 70 72 71 70 72 81 77 72 68 64 61 59 54 50 48 45 41 37 36 35 34 34 34 33 31 28 29 28 28 23 24 23 24 26 25 26 25 26 26
93 100 98 85 57 32 74 69 71 70 69 74 73 74 70 75 80 76 70 67 64 62 58 53 51 49 45 41 38 36 36 35 35 33 32 29 27 26 25 26 23 22 22 21 22 25 27 29 28
101 104 97 80 76 63 79 78 77 79 71 74 74 75 68 67 85 81 76 71 67 65 61 56 53 51 49 46 42 40 38 37 36 35 34 31 31 28 25 23 21 23 23 23 23 24 25 25 25
98 98 92 89 81 76 86 78 80 78 76 67 73 69 67 69 81 86 80 73 69 66 63 61 55 53 51 49 46 43 41 40 39 39 37 33 31 29 28 27 25 25 24 24 24 21 23 24 24
86 82 80 80 83 77 87 81 88 78 72 65 70 72 69 72 78 86 83 77 72 68 66 64 59 55 53 50 48 46 44 43 42 41 39 36 33 32 30 31 28 27 27 28 25 25 22 24 25
78 78 75 78 79 73 79 82 77 70 69 59 67 71 68 67 71 83 83 78 74 69 67 66 63 58 56 54 52 48 45 45 44 42 42 39 36 34 33 32 34 30 29 28 27 25 26 25 26
68 72 73 71 74 67 76 84 77 65 58 66 67 67 65 62 70 72 80 78 76 71 68 67 65 62 59 55 52 51 49 46 46 45 44 42 39 36 35 35 34 35 31 29 29 29 28 28 27
64 68 74 71 70 66 73 77 73 69 67 61 61 65 66 65 64 60 74 75 74 73 71 69 68 66 62 59 56 53 52 50 47 46 46 45 42 41 40 39 37 36 30 33 31 36 33 31 32
60 65 71 74 77 75 80 79 73 69 64 61 59 73 67 62 50 46 59 75 72 77 72 72 71 68 64 60 56 55 54 52 50 49 48 47 46 44 43 39 37 38 35 37 38 39 37 35 37
54 56 67 73 80 85 87 86 80 69 64 62 66 67 68 59 42 46 52 61 71 79 80 76 74 72 68 65 61 57 55 54 55 52 50 50 48 45 44 43 38 45 45 46 40 42 35 38 38
44 49 57 68 78 87 88 90 85 82 76 70 76 77 73 60 41 61 61 66 67 67 82 81 77 72 71 68 65 64 60 58 54 52 49 47 42 43 47 44 43 43 49 46 46 48 49 45 44
38 45 55 68 76 86 92 94 91 85 80 75 80 78 68 64 64 50 59 60 60 66 71 79 83 76 72 70 66 65 64 61 60 58 56 53 50 48 50 49 50 48 48 46 47 50 53 50 50
28 34 45 60 68 74 79 87 89 89 91 85 84 77 68 76 64 68 71 71 59 49 57 71 77 80 74 70 67 65 66 64 63 62 58 55 53 51 52 55 59 56 50 48 51 55 56 57 50
14 16 29 44 59 67 75 82 84 90 89 86 87 80 78 81 64 72 79 60 56 54 44 48 64 78 77 73 71 67 65 64 61 61 56 58 58 61 58 57 55 54 49 52 58 57 58 47 49
8 15 28 38 46 55 63 70 76 82 89 85 88 86 92 92 67 67 62 62 57 55 53 59 63 69 69 73 73 69 66 64 64 61 61 62 60 57 51 54 54 54 52 52 60 61 54 51 54
10 3 16 32 40 44 52 59 69 78 85 89 92 94 108 95 76 68 61 59 58 62 57 53 58 61 61 64 67 68 65 63 63 65 64 64 61 56 52 54 56 54 45 52 50 52 54 54 60
8 7 4 13 29 37 41 47 61 76 86 93 97 102 111 102 87 81 73 69 57 59 56 55 52 59 65 68 63 62 63 62 62 64 66 60 55 55 53 50 50 48 49 49 54 55 59 59 63
5 5 6 5 15 22 35 43 54 69 84 94 104 109 119 114 104 95 89 72 67 58 55 57 65 66 60 61 59 61 60 56 54 55 56 56 51 50 53 55 58 58 61 56 53 55 58 68 54
11 1 6 8 11 16 21 41 48 61 78 93 104 113 117 115 106 94 97 83 73 70 67 67 68 60 55 61 65 62 63 56 58 58 55 56 57 57 60 60 62 64 66 62 63 62 52 55 54
15 7 9 14 19 21 20 22 41 53 76 94 102 111 127 113 112 101 101 96 94 78 73 74 67 67 69 66 68 65 66 66 65 60 56 57 62 64 62 64 66 67 64 60 55 55 52 52 59
20 12 7 14 21 24 20 26 35 48 74 92 99 114 130 124 116 110 106 105 99 105 85 81 75 68 69 68 67 70 67 60 55 54 55 59 57 62 66 67 71 73 71 59 56 56 54 60 64
27 18 12 13 20 26 33 32 37 54 66 101 104 109 117 120 126 112 124 116 98 101 106 84 80 77 65 64 67 63 60 52 52 55 55 55 60 60 55 54 52 53 59 57 54 55 54 59 65
28 24 18 14 20 27 37 45 45 48 71 103 118 117 116 113 110 101 104 114 114 115 87 96 86 76 62 64 69 66 63 58 59 58 56 54 56 53 54 52 51 57 57 56 56 63 62 68 77
30 25 20 18 23 32 37 43 47 55 76 102 121 117 120 113 112 111 107 109 112 122 108 100 102 83 82 78 66 70 65 62 61 63 61 63 59 61 63 61 57 59 63 61 59 61 70 71 74
29 26 21 19 25 33 39 45 57 59 70 102 121 122 120 116 118 113 113 107 113 111 102 101 109 96 82 76 84 79 73 69 68 71 73 69 61 63 69 73 76 78 75 77 78 82 84 84 84
28 25 20 20 24 31 35 50 57 69 74 87 124 126 123 126 124 122 115 108 114 113 111 110 105 107 107 100 85 82 85 87 83 84 85 85 84 80 76 81 85 83 85 90 95 93 89 92 94
35 28 22 19 20 26 33 50 59 65 75 87 109 131 129 130 127 123 116 112 114 117 113 113 116 117 111 115 110 103 95 97 98 91 98 94 94 89 90 94 95 93 96 100 98 99 95 96 103
43 34 26 19 18 21 30 42 53 64 73 81 99 116 135 134 132 132 128 120 118 113 118 123 122 117 110 107 103 99 99 99 101 97 97 91 90 96 97 95 96 97 98 95 97 100 104 107 114
49 37 31 23 16 19 26 35 43 57 69 80 88 103 117 138 134 133 130 131 125 123 123 115 114 117 108 107 105 104 101 101 102 107 107 106 103 97 96 99 98 98 100 102 106 111 114 115 120

GFSSGP_250_spd_111.txt.gz
Wind_Speed
66 68 77 85 84 72 62 56 61 62 53 58 72 71 69 68 81 75 68 66 63 57 52 48 47 44 41 38 37 34 34 36 34 30 29 29 28 29 28 26 25 23 21 22 25 27 29 29 28
62 67 71 86 84 75 70 57 66 70 73 67 68 72 70 68 72 73 75 70 67 61 55 52 50 47 44 41 38 37 35 35 35 33 33 31 30 28 27 26 25 21 20 20 22 23 23 23 25
61 72 81 82 72 84 65 73 84 82 76 67 63 68 74 72 68 73 80 76 69 67 59 56 53 51 47 42 40 39 38 37 35 32 30 29 27 27 25 24 23 20 17 18 21 21 24 23 24
60 70 80 98 94 91 77 88 92 89 79 67 63 62 70 68 59 69 76 80 71 69 63 59 55 53 50 45 43 41 39 38 36 34 31 29 28 27 27 26 23 20 19 19 19 20 20 21 21
67 79 96 98 96 95 94 98 92 87 77 72 63 58 61 69 66 73 77 83 78 72 67 63 58 55 53 49 46 43 42 40 38 36 34 32 30 29 28 27 25 23 22 21 21 22 23 22 21
80 92 95 92 98 88 86 96 93 91 86 82 72 58 57 64 71 73 71 78 82 75 71 67 61 58 56 53 49 46 45 43 41 40 38 34 33 31 29 29 27 27 24 22 21 22 21 20 23
82 93 95 93 93 80 81 95 90 90 95 78 75 64 48 62 69 74 72 70 78 79 74 69 65 61 59 57 54 50 48 46 44 42 40 38 36 35 33 31 29 28 28 28 25 21 17 21 24
77 85 84 85 82 84 79 72 85 85 84 89 87 58 55 58 70 74 73 71 72 79 77 73 68 65 61 59 57 54 50 48 46 45 43 41 40 36 35 33 32 31 29 30 25 23 24 25 29
71 70 69 74 71 76 72 64 70 78 72 60 56 57 59 68 69 74 70 70 67 74 79 78 71 68 65 62 60 57 53 50 49 47 45 43 42 39 36 36 35 33 34 32 28 28 31 35 32
59 59 65 66 66 66 66 61 66 68 60 61 52 64 56 58 60 72 64 54 63 68 79 78 75 69 67 64 62 60 58 54 51 49 48 46 44 43 41 39 38 38 35 35 34 33 38 37 36
53 56 59 63 66 66 64 65 66 61 54 55 63 63 64 62 59 67 63 47 53 65 78 83 80 73 69 68 65 63 62 58 53 51 51 50 49 46 45 44 43 38 39 42 41 38 40 40 38
55 57 58 62 67 73 73 71 67 58 62 67 73 73 74 68 63 61 58 50 55 62 66 80 81 78 74 69 68 66 64 62 57 53 51 51 49 50 50 48 43 38 43 44 42 42 42 42 42
45 46 47 54 61 70 75 71 72 71 77 75 76 81 68 61 67 66 62 65 63 56 48 70 74 72 78 74 71 69 67 65 61 56 51 53 53 52 51 49 46 47 47 44 45 49 50 49 46
40 39 41 45 53 61 72 77 77 82 87 81 67 57 53 62 69 68 65 74 67 66 65 49 60 66 71 80 74 68 67 67 65 62 58 56 55 56 54 54 55 49 48 49 50 56 56 47 47
29 33 35 40 48 58 64 73 81 85 92 83 65 59 59 64 69 70 64 76 59 66 71 57 55 56 58 75 78 74 71 66 65 65 60 61 60 59 59 53 52 55 55 56 56 50 49 50 54
21 26 29 29 37 49 56 67 76 87 94 88 74 65 63 66 71 64 66 75 67 66 71 65 58 55 59 58 77 76 73 70 66 64 64 62 57 60 65 60 54 61 58 56 50 50 52 53 54
14 13 11 16 24 28 43 56 64 80 90 86 73 69 66 63 68 63 70 69 71 64 74 77 64 48 48 55 63 71 77 76 70 67 63 59 56 59 57 53 60 60 59 58 56 55 55 51 47
3 6 12 11 16 20 29 42 54 68 82 83 80 75 69 74 71 68 71 73 67 68 60 78 75 63 54 46 50 53 64 73 69 67 65 60 60 59 65 64 67 64 64 58 57 53 52 50 53
7 1 8 14 12 15 22 33 48 61 79 82 81 79 75 78 79 77 73 86 77 77 65 55 63 55 56 51 53 52 53 56 60 63 64 64 65 64 63 63 64 64 58 52 54 56 55 60 59
12 3 5 13 16 13 18 26 40 54 72 83 88 87 80 78 87 88 77 71 77 76 78 67 59 62 59 57 50 53 57 60 54 58 58 58 62 61 56 61 59 62 62 57 57 60 61 64 66
15 7 3 9 17 21 20 25 33 48 66 80 89 93 88 83 91 94 81 79 76 83 76 80 68 66 61 50 54 59 60 58 59 60 58 60 60 57 56 56 56 57 56 55 62 66 66 70 71
19 12 6 10 15 23 29 30 26 43 64 81 93 98 97 93 100 93 78 78 82 86 79 77 81 74 57 59 58 62 57 57 56 55 54 54 59 59 57 61 61 56 59 62 64 66 69 70 75
23 15 8 11 18 26 34 40 41 39 63 77 93 102 102 109 110 104 89 90 84 83 82 73 68 79 66 64 72 64 60 62 64 65 60 62 58 56 66 67 68 65 63 63 70 66 68 62 69
27 19 15 10 18 29 39 48 52 48 62 81 93 104 111 118 117 115 105 99 97 83 88 79 75 76 71 67 71 68 68 62 65 67 65 66 62 57 65 69 66 65 66 66 57 52 63 63 68
26 26 16 13 18 27 43 57 58 56 64 78 92 101 116 126 123 115 114 106 101 93 87 85 84 82 78 71 70 73 69 71 71 73 70 71 70 65 60 64 63 60 61 63 64 70 68 66 69
24 22 20 15 16 22 39 57 67 67 64 78 95 106 116 129 128 122 116 107 97 98 85 93 95 89 83 76 72 66 72 74 73 73 69 65 64 60 66 66 65 63 68 68 70 74 78 71 70
25 20 18 15 13 22 30 51 71 77 78 82 92 106 118 132 129 128 117 109 102 98 92 86 97 99 99 88 80 83 73 72 78 77 72 67 67 62 67 70 73 77 74 74 81 82 82 80 81
32 28 20 14 13 16 27 43 61 78 85 88 95 112 119 132 134 131 123 116 109 105 101 95 98 100 104 103 92 92 84 79 74 79 81 80 79 80 81 80 80 76 73 76 78 81 85 86 87
41 33 23 18 15 15 24 27 46 65 84 92 99 110 126 130 136 135 129 123 117 111 100 105 103 109 92 105 106 98 96 87 76 75 78 81 84 90 87 82 79 80 85 84 79 82 86 91 94
49 44 31 19 15 12 17 19 35 61 72 93 101 107 117 131 135 139 137 131 125 122 107 104 116 107 99 94 106 107 103 100 95 84 83 85 83 89 87 91 89 89 90 95 92 95 98 101 104

GFSSGP_250_spd_114.txt.gz
Wind_Speed
57 59 61 67 69 65 57 47 55 54 50 59 57 67 71 68 68 75 74 68 62 64 58 54 50 44 42 40 39 35 31 32 30 29 27 27 27 24 22 24 28 25 23 22 20 21 22 23 23
58 61 64 72 65 65 42 42 53 61 63 65 59 67 70 70 69 71 67 71 68 69 61 57 55 49 44 42 41 38 35 33 35 34 33 32 30 28 28 26 27 25 24 20 18 17 19 20 22
60 62 67 71 68 47 31 56 62 67 68 68 64 67 68 69 71 68 61 67 72 72 66 60 58 54 48 45 43 41 38 36 35 34 34 33 31 30 28 28 25 23 22 18 17 17 18 20 21
60 63 71 75 64 46 42 66 64 65 71 76 71 65 70 59 64 64 65 61 77 78 70 66 61 58 52 49 46 44 41 39 38 36 35 31 29 27 25 25 22 23 21 19 18 18 18 21 21
68 66 72 72 67 61 56 67 74 71 75 75 79 67 67 70 55 68 67 66 73 77 77 69 63 61 56 52 49 46 44 41 39 37 36 32 29 27 26 25 25 22 23 21 20 20 20 20 14
69 77 78 72 74 68 63 71 72 81 78 68 64 57 68 57 54 69 67 69 74 74 78 76 68 63 60 55 52 49 47 45 42 38 37 36 32 28 27 26 25 24 24 21 20 20 20 17 14
73 80 79 78 74 81 67 75 81 84 85 81 82 74 74 45 55 57 58 72 71 71 69 74 75 67 63 60 56 53 50 48 45 41 40 40 36 31 29 27 27 26 25 24 22 23 21 19 18
71 76 77 81 85 89 87 91 91 87 85 93 92 68 58 52 57 59 61 66 70 70 66 68 73 72 67 65 60 56 54 51 49 45 44 41 39 35 32 30 29 29 26 27 26 26 22 22 24
69 73 74 81 96 91 98 96 96 99 92 91 86 73 73 69 56 56 55 58 65 68 65 63 69 74 71 67 63 60 57 54 51 50 48 45 42 39 36 32 31 30 30 30 29 28 28 28 29
66 68 78 86 89 91 93 92 92 87 85 80 75 77 61 67 66 52 47 52 61 66 63 60 64 73 74 70 67 64 61 57 54 53 51 48 45 42 40 37 34 34 33 32 32 30 30 34 35
62 64 71 76 79 77 77 75 73 73 67 65 63 62 45 57 61 64 53 57 53 61 65 63 64 69 77 73 70 66 63 60 57 55 53 52 48 45 43 41 40 38 38 37 37 34 35 35 37
56 58 57 59 64 65 66 66 64 63 65 66 57 48 46 52 37 54 51 52 48 50 52 63 67 66 74 76 71 70 66 63 60 57 55 53 52 48 47 45 44 44 41 42 41 37 40 42 38
44 47 52 55 57 60 62 64 61 66 63 63 56 51 53 53 75 70 50 54 58 51 45 52 52 60 65 78 75 72 68 65 63 60 58 56 54 51 49 49 48 48 47 48 45 43 42 45 44
41 43 45 49 53 58 63 64 63 63 61 60 54 56 53 53 57 66 52 53 58 57 41 53 50 51 56 62 75 73 72 66 65 62 61 59 57 55 52 51 51 52 51 48 47 46 46 48 51
35 41 45 46 47 51 60 66 66 64 62 60 65 65 67 65 70 77 66 64 65 72 48 51 53 48 53 50 69 75 73 71 67 63 62 62 60 59 57 55 54 55 53 53 48 52 50 52 52
33 35 39 39 39 40 42 54 62 59 63 66 68 68 69 81 81 73 64 71 64 71 70 52 70 53 49 43 53 67 73 74 73 68 62 57 58 59 60 59 59 58 56 53 57 59 55 57 56
28 29 26 27 29 28 32 37 42 47 62 67 74 76 77 87 82 77 66 71 69 74 64 78 60 69 57 49 46 53 64 71 69 71 69 66 62 60 60 58 60 60 56 51 56 54 57 60 60
19 21 18 21 24 23 27 27 33 45 59 74 86 85 83 85 71 76 73 72 73 81 65 72 64 75 63 54 56 45 47 53 63 64 68 75 67 64 62 60 59 60 56 60 61 66 65 64 65
15 17 15 13 21 23 25 27 35 49 61 76 84 84 84 77 46 66 77 76 79 83 76 67 65 64 62 64 65 57 46 50 56 61 64 64 67 67 65 63 61 60 61 65 67 64 64 66 64
12 12 11 12 15 25 30 32 38 52 61 79 90 92 84 84 63 69 81 76 71 75 80 61 71 76 60 67 72 67 57 53 53 58 60 52 52 53 61 62 60 62 63 63 62 59 63 65 64
14 12 10 10 16 21 28 36 41 58 60 73 92 97 88 76 60 66 74 74 68 75 79 70 79 64 68 67 68 69 68 61 55 51 53 50 50 48 52 57 62 62 60 62 61 60 62 61 61
15 14 13 8 13 20 30 37 43 57 73 78 83 90 84 71 65 69 72 72 67 75 74 66 56 55 81 70 74 76 77 64 62 56 54 52 56 51 59 60 62 62 63 61 62 61 61 61 62
23 17 14 13 11 20 28 38 48 56 74 84 86 87 86 76 70 76 75 73 73 72 69 76 81 54 61 59 68 66 64 65 61 57 55 57 55 61 64 65 62 62 62 60 59 59 60 62 62
24 26 17 14 14 17 31 34 45 55 66 81 93 91 89 83 79 79 82 88 82 79 80 94 80 71 67 63 54 61 63 62 57 60 50 56 61 62 66 68 60 64 66 66 61 59 64 68 67
24 25 24 17 16 18 26 35 42 54 61 71 82 92 95 90 87 89 87 94 88 82 89 92 103 77 71 71 67 60 58 60 66 64 57 56 59 61 65 64 64 68 64 65 67 72 71 73 71
19 22 23 20 17 22 21 31 44 52 60 69 82 92 97 95 95 99 102 104 92 87 87 93 98 98 82 82 81 75 62 64 70 72 71 72 69 73 71 73 74 75 77 74 72 66 68 72 72
22 21 20 16 16 19 20 26 42 51 59 69 83 95 100 100 102 103 105 100 97 97 96 95 97 103 102 84 80 84 78 78 79 74 76 78 77 74 75 78 77 78 79 79 73 72 71 73 74
26 20 18 14 13 13 11 22 38 49 60 70 84 95 101 102 106 108 107 109 101 98 99 101 91 89 101 99 81 87 91 85 80 78 81 79 76 79 78 79 79 78 80 79 77 79 79 81 79
35 28 22 16 13 8 8 19 34 45 58 65 82 93 102 106 109 113 113 115 114 110 108 102 101 98 96 95 94 91 94 92 83 78 79 83 83 86 84 80 79 79 77 80 81 83 81 80 81
41 39 28 22 18 10 3 12 28 40 53 63 70 89 101 108 110 114 118 125 127 123 118 111 103 106 99 98 97 95 95 95 92 95 88 80 87 92 86 84 85 86 82 83 82 82 84 83 88

GFSSGP_250_spd_117.txt.gz
Wind_Speed
50 51 56 58 51 41 31 35 43 53 58 54 57 60 64 68 64 60 67 69 72 66 60 57 54 51 46 43 39 36 33 30 29 27 25 25 24 24 22 21 23 24 24 25 23 23 20 18 19
57 53 57 58 56 43 42 44 46 51 59 58 66 59 59 65 67 60 60 69 73 70 66 62 57 54 51 46 43 39 37 33 31 30 28 29 27 27 27 26 25 25 25 24 20 17 16 16 18
64 62 60 60 52 38 50 45 49 52 59 59 64 65 62 62 64 61 60 65 70 74 71 66 60 57 55 50 46 42 39 36 34 33 33 31 29 30 30 27 27 26 24 20 18 16 16 18 19
72 70 66 60 53 49 51 56 60 59 59 64 64 69 63 68 61 52 61 64 64 69 74 69 65 61 57 55 50 47 42 39 38 36 35 34 33 32 28 27 23 21 19 18 18 18 17 16 17
75 77 76 65 54 53 61 61 63 65 66 68 65 64 61 57 61 44 54 67 65 66 72 70 69 65 61 58 55 52 47 43 40 39 37 35 32 31 29 26 24 22 20 19 18 18 17 17 17
82 83 78 73 63 60 62 66 67 68 72 74 68 63 58 52 51 49 48 60 65 66 71 64 68 70 65 60 57 55 51 47 43 41 39 38 35 33 30 27 26 24 22 21 20 18 17 18 17
85 81 79 73 71 67 70 73 72 73 74 72 69 63 57 50 36 49 61 58 60 66 68 63 62 66 69 65 60 58 56 50 46 43 42 40 38 35 32 30 29 25 24 22 23 20 19 18 20
83 81 77 79 78 72 76 78 72 71 74 81 77 67 62 62 41 46 52 61 58 62 65 68 61 62 67 68 65 61 59 54 50 45 45 43 41 39 36 33 31 27 26 24 25 23 23 22 20
82 81 76 77 74 75 77 74 77 75 73 85 82 75 70 65 57 45 49 52 55 58 66 66 59 61 63 66 68 64 61 58 53 49 48 46 44 42 40 37 34 31 28 26 26 26 25 24 25
80 79 70 71 72 72 74 74 76 80 79 83 81 83 82 74 63 58 40 47 54 56 61 64 62 63 63 64 68 68 62 60 56 52 50 49 47 45 44 42 39 36 32 30 30 29 30 30 31
74 69 65 64 69 70 73 73 72 75 84 84 86 90 84 79 74 62 46 46 45 57 61 57 59 64 63 61 63 70 68 63 60 55 52 51 50 48 47 46 44 40 38 35 35 35 35 36 36
62 59 59 61 63 66 67 68 67 69 75 86 80 86 83 81 78 72 72 48 40 51 51 54 55 58 64 60 61 63 71 66 62 59 56 55 54 52 50 49 47 45 44 41 40 41 40 42 41
53 51 53 55 57 58 60 63 66 72 77 75 74 71 69 72 73 71 67 47 61 61 56 53 58 54 58 55 56 59 65 69 65 62 61 58 57 55 53 51 49 49 47 45 45 46 46 47 43
45 47 50 51 52 53 55 57 61 63 68 68 70 64 69 65 66 60 67 77 62 62 60 57 56 49 49 55 57 53 58 68 67 64 64 62 60 58 56 54 53 52 50 49 50 49 51 50 48
40 42 44 45 47 50 52 55 57 59 62 64 63 63 62 67 59 63 68 83 74 67 65 60 53 47 49 41 52 57 55 55 69 66 66 65 61 60 59 57 57 55 55 54 53 53 53 55 53
29 29 31 38 42 47 53 59 60 62 62 59 64 64 63 63 65 64 60 70 58 71 76 70 65 49 52 47 38 43 45 55 62 70 68 65 64 62 60 59 57 58 57 56 56 54 57 58 53
22 28 35 39 40 44 48 51 55 60 62 63 65 65 65 68 67 67 66 82 81 89 88 84 68 67 52 49 42 41 44 48 50 69 70 67 65 64 62 57 55 54 56 55 59 61 62 62 63
27 29 30 29 30 34 39 43 50 58 61 63 67 70 71 73 73 71 80 82 95 87 82 71 70 65 65 50 50 44 44 45 45 56 68 70 67 65 66 65 65 62 60 59 58 59 59 64 68
24 23 22 22 23 25 31 33 45 55 57 60 66 73 78 79 78 93 86 90 97 102 71 67 66 63 67 57 52 50 44 46 42 47 54 64 71 71 72 71 67 67 68 65 65 66 65 67 69
16 16 16 18 17 20 23 29 34 47 52 55 65 75 84 90 89 76 95 97 92 72 70 73 68 68 59 52 61 58 55 50 47 43 41 44 53 56 57 58 58 58 57 57 64 65 64 72 69
13 14 16 18 18 16 17 25 30 39 51 60 70 81 93 96 92 92 91 102 90 80 70 80 66 57 53 56 59 59 60 63 58 54 48 41 49 54 60 63 65 52 46 54 58 66 72 71 68
15 13 12 16 19 14 15 22 26 38 50 65 82 93 99 100 100 97 100 85 84 67 79 80 66 71 65 56 53 60 58 61 60 63 62 57 56 53 55 57 62 60 51 46 58 65 68 69 68
23 19 16 15 17 17 15 21 25 41 57 72 80 95 102 103 104 100 89 75 75 68 80 96 83 78 74 56 53 60 61 64 60 66 67 63 59 61 59 54 59 58 56 56 61 67 66 67 68
25 26 24 20 12 16 11 21 25 35 54 67 83 95 102 104 100 81 62 67 90 80 80 93 80 85 72 58 60 58 57 62 69 65 62 65 63 62 68 66 63 59 56 67 70 71 71 71 70
28 27 26 22 17 6 11 21 27 33 48 62 82 92 101 104 100 84 55 65 75 84 83 88 83 82 75 67 72 76 70 74 77 76 68 68 68 72 73 68 63 58 63 69 72 71 73 74 72
27 26 24 19 15 3 14 23 30 39 53 69 72 92 100 101 92 91 61 59 81 90 93 89 83 75 74 72 75 73 71 72 75 76 80 60 65 67 63 65 63 52 62 69 74 72 76 80 77
27 24 20 19 10 7 10 20 32 43 53 65 75 86 100 101 92 84 84 65 80 87 91 87 82 84 80 81 77 82 80 72 73 69 70 69 73 75 76 67 67 70 69 68 67 73 74 77 77
26 25 20 17 12 6 6 17 25 40 44 65 73 85 93 100 99 93 85 90 73 81 84 82 85 83 82 81 88 88 81 73 73 70 69 78 82 83 73 73 75 71 71 74 74 74 76 78 83
31 31 24 21 15 3 5 9 21 30 45 62 76 85 83 91 100 93 93 101 80 84 86 88 88 85 92 96 92 85 83 82 81 78 76 78 87 86 81 82 79 78 81 80 80 81 80 84 86
36 34 30 23 17 11 8 8 14 21 30 47 63 81 90 90 86 94 99 103 96 88 94 92 98 100 97 99 100 98 90 85 86 86 89 88 91 87 88 85 88 91 91 88 88 88 84 87 90